[[{"header":{"parameterUnit":"m.s-1","parameterCategory":1,"la1":31.0,"la2":29.5877,"lo1":-88.7671,"lo2":-86.6584,"dy":0.0162,"dx":0.0185,"nx":115,"ny":88,"refTime":"2024-07-27T06:00:00:Z","depth":0,"parameterNumber":2,"parameterNumberName":"U-component_of_WINDS"},"data":[0.0,0.0,0.0,0.0,0.0,0.0,0.0,0.0,0.0,0.0,0.0,0.0,0.0,0.0,0.0,0.0,0.0,0.0,0.0,0.0,0.0,0.0,0.0,0.0,0.0,0.0,0.0,0.0,0.0,0.0,0.0,0.0,0.0,0.0,0.0,0.0,0.0,0.0,0.0,0.0,0.0,0.0,0.0,0.0,0.0,0.0,0.0,0.0,0.0,0.0,0.0,0.0,0.0,0.0,0.0,0.0,0.0,0.0,0.0,0.0,0.0,0.0,0.0,0.0,0.0,0.0,0.0,0.0,0.0,0.0,0.0,0.0,0.0,0.0,0.0,0.0,0.0,0.0,0.0,0.0,0.0,0.0,0.0,0.0,0.0,0.0,0.0,0.0,0.0,0.0,0.0,0.0,0.0,0.0,0.0,0.0,0.0,0.0,0.0,0.0,0.0,0.0,0.0,0.0,0.0,0.0,0.0,0.0,0.0,0.0,0.0,0.0,0.0,0.0,0.0,0.0,0.0,0.0,0.0,0.0,0.0,0.0,0.0,0.0,0.0,0.0,0.0,0.0,0.0,0.0,0.0,0.0,0.0,0.0,0.0,0.0,0.0,0.0,0.0,0.0,0.0,0.0,0.0,0.0,0.0,0.0,0.0,0.0,0.0,0.0,0.0,0.0,0.0,0.0,0.0,0.0,0.0,0.0,0.0,0.0,0.0,0.0,0.0,0.0,0.0,0.0,0.0,0.0,0.0,0.0,0.0,0.0,0.0,0.0,0.0,0.0,0.0,0.0,0.0,0.0,0.0,0.0,0.0,0.0,0.0,0.0,0.0,0.0,0.0,0.0,0.0,0.0,0.0,0.0,0.0,0.0,0.0,0.0,0.0,0.0,0.0,0.0,0.0,0.0,0.0,0.0,0.0,0.0,0.0,0.0,0.0,0.0,0.0,0.0,0.0,0.0,0.0,0.0,0.0,0.0,0.0,0.0,0.0,0.0,0.0,0.0,0.0,0.0,0.0,0.0,0.0,0.0,0.0,0.0,0.0,0.0,0.0,0.0,0.0,0.0,0.0,0.0,0.0,0.0,0.0,0.0,0.0,0.0,0.0,0.0,0.0,0.0,0.0,0.0,0.0,0.0,0.0,0.0,0.0,0.0,0.0,0.0,0.0,0.0,0.0,0.0,0.0,0.0,0.0,0.0,0.0,0.0,0.0,0.0,0.0,0.0,0.0,0.0,0.0,0.0,0.0,0.0,0.0,0.0,0.0,0.0,0.0,0.0,0.0,0.0,0.0,0.0,0.0,0.0,0.0,0.0,0.0,0.0,0.0,0.0,0.0,0.0,0.0,0.0,0.0,0.0,0.0,0.0,0.0,0.0,0.0,0.0,0.0,0.0,0.0,0.0,0.0,0.0,0.0,0.0,0.0,0.0,0.0,0.0,0.0,0.0,0.0,0.0,0.0,0.0,0.0,0.0,0.0,0.0,0.0,0.0,0.0,0.0,0.0,0.0,0.0,0.0,0.0,0.0,0.0,0.0,0.0,0.0,0.0,0.0,0.0,0.0,0.0,0.0,0.0,0.0,0.0,0.0,0.0,0.0,0.0,0.0,0.0,0.0,0.0,0.0,0.0,0.0,0.0,0.0,0.0,0.0,0.0,0.0,0.0,0.0,0.0,0.0,0.0,0.0,0.0,0.0,0.0,0.0,0.0,0.0,0.0,0.0,0.0,0.0,0.0,0.0,0.0,0.0,0.0,0.0,0.0,0.0,0.0,0.0,0.0,0.0,0.0,0.0,0.0,0.0,0.0,0.0,0.0,0.0,0.0,0.0,0.0,0.0,0.0,0.0,0.0,0.0,0.0,0.0,0.0,0.0,0.0,0.0,0.0,0.0,0.0,0.0,0.0,0.0,0.0,0.0,0.0,0.0,0.0,0.0,0.0,0.0,0.0,0.0,0.0,0.0,0.0,0.0,0.0,0.0,0.0,0.0,0.0,0.0,0.0,0.0,0.0,0.0,0.0,0.0,0.0,0.0,0.0,0.0,0.0,0.0,0.0,0.0,0.0,0.0,0.0,0.0,0.0,0.0,0.0,0.0,0.0,0.0,0.0,0.0,0.0,0.0,0.0,0.0,0.0,0.0,0.0,0.0,0.0,0.0,0.0,0.0,0.0,0.0,0.0,0.0,0.0,0.0,0.0,0.0,0.0,0.0,0.0,0.0,0.0,0.0,0.0,0.0,0.0,0.0,0.0,0.0,0.0,0.0,0.0,0.0,0.0,0.0,0.0,0.0,0.0,0.0,0.0,0.0,0.0,0.0,0.0,0.0,0.0,0.0,0.0,0.0,0.0,0.0,0.0,0.0,0.0,0.0,0.0,0.0,0.0,0.0,0.0,0.0,0.0,0.0,0.0,0.0,0.0,0.0,0.0,0.0,0.0,0.0,0.0,0.0,0.0,0.0,0.0,0.0,0.0,0.0,0.0,0.0,0.0,0.0,0.0,0.0,0.0,0.0,0.0,0.0,0.0,0.0,0.0,0.0,0.0,0.0,0.0,0.0,0.0,0.0,0.0,0.0,0.0,0.0,0.0,0.0,0.0,0.0,0.0,0.0,0.0,0.0,0.0,0.0,0.0,0.0,0.0,0.0,0.0,0.0,0.0,0.0,0.0,0.0,0.0,0.0,0.0,0.0,0.0,0.0,0.0,0.0,0.0,0.0,0.0,0.0,0.0,0.0,0.0,0.0,0.0,0.0,0.0,0.0,0.0,0.0,0.0,0.0,0.0,0.0,0.0,0.0,0.0,0.0,0.0,0.0,0.0,0.0,0.0,0.0,0.0,0.0,0.0,0.0,0.0,0.0,0.0,0.0,0.0,0.0,0.0,0.0,0.0,0.0,0.0,0.0,0.0,0.0,0.0,0.0,0.0,0.0,0.0,0.0,0.0,0.0,0.0,0.0,0.0,0.0,0.0,0.0,0.0,0.0,0.0,0.0,0.0,0.0,0.0,0.0,0.0,0.0,0.0,0.0,0.0,0.0,0.0,0.0,0.0,0.0,0.0,0.0,0.0,0.0,0.0,0.0,0.0,0.0,0.0,0.0,0.0,0.0,0.0,0.0,0.0,0.0,0.0,0.0,0.0,0.0,0.0,0.0,0.0,0.0,0.0,0.0,0.0,0.0,0.0,0.0,0.0,0.0,0.0,0.0,0.0,0.0,0.0,0.0,0.0,0.0,0.0,0.0,0.0,0.0,0.0,0.0,0.0,0.0,0.0,0.0,0.0,0.0,0.0,0.0,0.0,0.0,0.0,0.0,0.0,0.0,0.0,0.0,0.0,0.0,0.0,0.0,0.0,0.0,0.0,0.0,0.0,0.0,0.0,0.0,0.0,0.0,0.0,0.0,0.0,0.0,0.0,0.0,0.0,0.0,0.0,0.0,0.0,0.0,0.0,0.0,0.0,0.0,0.0,0.0,0.0,0.0,0.0,0.0,0.0,0.0,0.0,0.0,0.0,0.0,0.0,0.0,0.0,0.0,0.0,0.0,0.0,0.0,0.0,0.0,0.0,0.0,0.0,0.0,0.0,0.0,0.0,0.0,0.0,0.0,0.0,0.0,0.0,0.0,0.0,0.0,0.0,0.0,0.0,0.0,0.0,0.0,0.0,0.0,0.0,0.0,0.0,0.0,0.0,0.0,0.0,0.0,0.0,0.0,0.0,0.0,0.0,0.0,0.0,0.0,0.0,0.0,0.0,0.0,0.0,0.0,0.0,0.0,0.0,0.0,0.0,0.0,0.0,0.0,0.0,0.0,0.0,0.0,0.0,0.0,0.0,0.0,0.0,0.0,0.0,0.0,0.0,0.0,0.0,0.0,0.0,0.0,0.0,0.0,0.0,0.0,0.0,0.0,0.0,0.0,0.0,0.0,0.0,0.0,0.0,0.0,0.0,0.0,0.0,0.0,0.0,0.0,0.0,0.0,0.0,0.0,0.0,0.0,0.0,0.0,0.0,0.0,0.0,0.0,0.0,0.0,0.0,0.0,0.0,0.0,0.0,0.0,0.0,0.0,0.0,0.0,0.0,0.0,0.0,0.0,0.0,0.0,0.0,0.0,0.0,0.0,0.0,0.0,0.0,0.0,0.0,0.0,0.0,0.0,0.0,0.0,0.0,0.0,0.0,0.0,0.0,0.0,0.0,0.0,0.0,0.0,0.0,0.0,0.0,0.0,0.0,0.0,0.0,0.0,0.0,0.0,0.0,0.0,0.0,0.0,0.0,0.0,0.0,0.0,-0.7032,0.0,0.0,0.0,0.0,0.0,0.0,0.0,0.0,0.0,0.0,0.0,0.0,0.0,0.0,0.0,0.0,0.0,0.0,0.0,0.0,0.0,0.0,0.0,0.0,0.0,0.0,0.0,0.0,0.0,0.0,0.0,0.0,0.0,0.0,0.0,0.0,0.0,0.0,0.0,0.0,0.0,0.0,0.0,0.0,0.0,0.0,0.0,0.0,0.0,0.0,0.0,0.0,0.0,0.0,0.0,0.0,0.0,0.0,0.0,0.0,0.0,0.0,0.0,0.0,0.0,0.0,0.0,0.0,0.0,0.0,0.0,0.0,0.0,0.0,0.0,0.0,0.0,0.0,0.0,0.0,0.0,0.0,0.0,0.0,0.0,0.0,0.0,0.0,0.0,0.0,0.0,0.0,0.0,0.0,0.0,0.0,0.0,0.0,0.0,0.0,0.0,0.0,0.0,0.0,0.0,0.0,0.0,0.0,0.0,0.0,-0.7758,-0.8043,-0.8071,-0.7936,-0.7571,0.0,0.0,0.0,0.0,0.0,0.0,0.0,0.0,0.0,0.0,0.0,0.0,0.0,0.0,0.0,0.0,0.0,0.0,0.0,0.0,0.0,0.0,0.0,0.0,0.0,0.0,0.0,0.0,0.0,0.0,0.0,0.0,0.0,0.0,0.0,0.0,0.0,0.0,0.0,0.0,0.0,0.0,0.0,0.0,0.0,0.0,0.0,0.0,0.0,0.0,0.0,0.0,0.0,0.0,0.0,0.0,0.0,0.0,0.0,0.0,0.0,0.0,0.0,0.0,0.0,0.0,0.0,0.0,0.0,0.0,0.0,0.0,0.0,0.0,0.0,0.0,0.0,0.0,0.0,0.0,0.0,0.0,0.0,0.0,0.0,0.0,0.0,0.0,0.0,0.0,0.0,0.0,0.0,0.0,0.0,0.0,0.0,0.0,0.0,0.0,0.0,0.0,0.0,0.0,0.0,0.0,0.0,0.0,0.0,0.0,0.0,0.0,-0.8789,-0.8488,-0.821,0.0,0.0,0.0,0.0,0.0,0.0,0.0,0.0,0.0,0.0,0.0,0.0,0.0,0.0,0.0,0.0,0.0,0.0,0.0,0.0,0.0,0.0,0.0,0.0,0.0,0.0,0.0,0.0,0.0,0.0,0.0,0.0,0.0,0.0,0.0,0.0,0.0,0.0,0.0,0.0,0.0,0.0,0.0,0.0,0.0,0.0,0.0,0.0,0.0,0.0,0.0,0.0,0.0,0.0,0.0,0.0,0.0,0.0,0.0,0.0,0.0,0.0,0.0,0.0,0.0,0.0,0.0,0.0,0.0,0.0,0.0,0.0,0.0,0.0,0.0,0.0,0.0,0.0,0.0,0.0,0.0,0.0,0.0,0.0,0.0,0.0,0.0,0.0,0.0,0.0,0.0,0.0,0.0,0.0,0.0,0.0,0.0,0.0,0.0,0.0,0.0,0.0,0.0,0.0,0.0,0.0,0.0,0.0,0.0,0.0,-0.8688,-0.976,-0.9864,0.0,-0.8847,0.0,0.0,0.0,0.0,0.0,0.0,0.0,0.0,0.0,0.0,0.0,0.0,0.0,0.0,0.0,0.0,0.0,0.0,0.0,0.0,0.0,0.0,0.0,0.0,0.0,0.0,0.0,0.0,0.0,0.0,0.0,0.0,0.0,0.0,0.0,0.0,0.0,0.0,0.0,0.0,0.0,0.0,0.0,0.0,0.0,0.0,0.0,0.0,0.0,0.0,0.0,0.0,0.0,0.0,0.0,0.0,0.0,0.0,0.0,0.0,0.0,0.0,0.0,0.0,0.0,0.0,0.0,0.0,0.0,0.0,0.0,0.0,0.0,0.0,0.0,0.0,0.0,0.0,0.0,0.0,0.0,0.0,0.0,0.0,0.0,0.0,0.0,0.0,0.0,0.0,0.0,0.0,0.0,0.0,0.0,0.0,0.0,0.0,0.0,0.0,0.0,0.0,0.0,0.0,0.0,0.0,0.0,0.0,0.0,0.0,-0.9268,-0.9896,-0.9731,-0.9343,0.0,0.0,0.0,0.0,0.0,0.0,0.0,0.0,0.0,0.0,0.0,0.0,0.0,0.0,0.0,0.0,0.0,0.0,0.0,0.0,0.0,0.0,0.0,0.0,0.0,0.0,0.0,0.0,0.0,0.0,0.0,0.0,0.0,0.0,0.0,0.0,0.0,0.0,0.0,0.0,0.0,0.0,0.0,0.0,0.0,0.0,0.0,0.0,0.0,0.0,0.0,0.0,0.0,0.0,0.0,0.0,0.0,0.0,0.0,0.0,0.0,0.0,0.0,0.0,0.0,0.0,0.0,0.0,0.0,0.0,0.0,0.0,0.0,0.0,0.0,0.0,0.0,0.0,0.0,0.0,0.0,0.0,0.0,0.0,0.0,0.0,0.0,0.0,0.0,0.0,0.0,0.0,0.0,0.0,0.0,0.0,0.0,0.0,0.0,0.0,0.0,0.0,0.0,0.0,0.0,0.0,0.0,0.0,0.0,0.0,-0.9517,-0.9624,-0.997,-0.9868,-0.9445,-0.8808,0.0,0.0,0.0,0.0,0.0,0.0,0.0,0.0,0.0,0.0,0.0,0.0,0.0,0.0,0.0,0.0,0.0,0.0,0.0,0.0,0.0,0.0,0.0,0.0,0.0,0.0,0.0,0.0,0.0,0.0,0.0,0.0,0.0,0.0,0.0,0.0,0.0,0.0,0.0,0.0,0.0,0.0,0.0,0.0,0.0,0.0,0.0,0.0,0.0,0.0,0.0,0.0,0.0,0.0,0.0,0.0,0.0,0.0,0.0,0.0,0.0,0.0,0.0,0.0,0.0,0.0,0.0,0.0,0.0,0.0,0.0,0.0,0.0,0.0,0.0,0.0,0.0,0.0,0.0,0.0,0.0,0.0,0.0,0.0,0.0,0.0,0.0,0.0,0.0,0.0,0.0,0.0,0.0,0.0,0.0,0.0,0.0,0.0,0.0,0.0,0.0,0.0,0.0,0.0,0.0,0.0,0.0,0.0,0.0,-0.9692,-0.9639,-1.0287,-1.0709,-1.0301,0.0,0.0,0.0,0.0,0.0,0.0,0.0,0.0,0.0,0.0,0.0,0.0,0.0,0.0,0.0,0.0,0.0,0.0,0.0,0.0,0.0,0.0,0.0,0.0,0.0,0.0,0.0,0.0,0.0,0.0,0.0,0.0,0.0,0.0,0.0,0.0,0.0,0.0,0.0,0.0,0.0,0.0,0.0,0.0,0.0,0.0,0.0,0.0,0.0,0.0,0.0,0.0,0.0,0.0,0.0,0.0,0.0,0.0,0.0,0.0,0.0,0.0,0.0,0.0,0.0,0.0,0.0,0.0,0.0,0.0,0.0,0.0,0.0,0.0,0.0,0.0,0.0,0.0,0.0,0.0,0.0,0.0,0.0,0.0,0.0,0.0,0.0,0.0,0.0,0.0,0.0,0.0,0.0,0.0,0.0,0.0,0.0,0.0,0.0,0.0,0.0,0.0,0.0,0.0,0.0,0.0,0.0,0.0,0.0,-0.9453,-0.989,-1.0554,-1.1389,-1.0994,-1.0415,0.0,0.0,0.0,0.0,0.0,0.0,0.0,0.0,0.0,0.0,0.0,0.0,0.0,0.0,0.0,0.0,0.0,0.0,0.0,0.0,0.0,0.0,0.0,0.0,0.0,0.0,0.0,0.0,0.0,0.0,0.0,0.0,0.0,0.0,0.0,0.0,0.0,0.0,0.0,0.0,0.0,0.0,0.0,0.0,0.0,0.0,0.0,0.0,0.0,0.0,0.0,0.0,0.0,0.0,0.0,0.0,0.0,0.0,0.0,0.0,0.0,0.0,0.0,0.0,0.0,0.0,0.0,0.0,0.0,0.0,0.0,0.0,0.0,0.0,0.0,0.0,0.0,0.0,0.0,0.0,0.0,0.0,0.0,0.0,0.0,0.0,0.0,0.0,0.0,0.0,0.0,0.0,0.0,0.0,0.0,0.0,0.0,0.0,0.0,0.0,0.0,0.0,0.0,0.0,0.0,0.0,0.0,0.0,0.0,-0.9604,0.0,-1.1499,0.0,-1.1276,-1.0595,0.0,0.0,0.0,0.0,0.0,0.0,0.0,0.0,0.0,0.0,0.0,0.0,0.0,0.0,0.0,0.0,0.0,0.0,0.0,0.0,0.0,0.0,0.0,0.0,0.0,0.0,0.0,0.0,0.0,0.0,0.0,0.0,0.0,0.0,0.0,0.0,0.0,0.0,0.0,0.0,0.0,0.0,0.0,0.0,0.0,0.0,0.0,0.0,0.0,0.0,0.0,0.0,0.0,0.0,0.0,0.0,0.0,0.0,0.0,0.0,0.0,0.0,0.0,0.0,0.0,0.0,0.0,0.0,0.0,0.0,0.0,0.0,0.0,0.0,0.0,0.0,0.0,0.0,0.0,0.0,0.0,0.0,0.0,0.0,0.0,0.0,0.0,0.0,0.0,0.0,0.0,0.0,0.0,0.0,0.0,0.0,0.0,0.0,0.0,0.0,0.0,0.0,0.0,0.0,0.0,0.0,0.0,0.0,-1.004,-1.1074,-1.2027,-1.2349,-1.1959,-1.1613,-1.0964,0.0,0.0,0.0,0.0,0.0,0.0,0.0,0.0,0.0,0.0,0.0,0.0,0.0,0.0,0.0,0.0,0.0,0.0,0.0,0.0,0.0,0.0,0.0,0.0,0.0,0.0,0.0,0.0,0.0,0.0,0.0,0.0,0.0,0.0,0.0,0.0,0.0,0.0,0.0,0.0,0.0,0.0,0.0,0.0,0.0,0.0,0.0,0.0,0.0,0.0,0.0,0.0,0.0,0.0,0.0,0.0,0.0,0.0,0.0,0.0,0.0,0.0,0.0,0.0,0.0,0.0,0.0,0.0,0.0,0.0,0.0,0.0,0.0,0.0,0.0,0.0,0.0,0.0,0.0,0.0,0.0,0.0,0.0,0.0,0.0,0.0,0.0,0.0,0.0,0.0,0.0,0.0,0.0,0.0,0.0,0.0,0.0,0.0,0.0,0.0,0.0,0.0,0.0,0.0,0.0,0.0,0.0,0.0,0.0,-1.1461,-1.2138,-1.2824,-1.3353,-1.2586,-1.1777,0.0,0.0,0.0,0.0,0.0,0.0,0.0,0.0,0.0,0.0,0.0,0.0,0.0,0.0,0.0,0.0,0.0,0.0,0.0,0.0,0.0,0.0,0.0,0.0,0.0,0.0,0.0,0.0,0.0,0.0,0.0,0.0,0.0,0.0,0.0,0.0,0.0,0.0,0.0,0.0,0.0,0.0,0.0,0.0,0.0,0.0,0.0,0.0,0.0,0.0,0.0,0.0,0.0,0.0,0.0,0.0,0.0,0.0,0.0,0.0,0.0,0.0,0.0,0.0,0.0,0.0,0.0,0.0,0.0,0.0,0.0,0.0,0.0,0.0,0.0,0.0,0.0,0.0,0.0,0.0,0.0,0.0,0.0,0.0,0.0,0.0,0.0,0.0,0.0,0.0,0.0,0.0,0.0,0.0,0.0,0.0,0.0,0.0,0.0,0.0,0.0,0.0,0.0,0.0,0.0,0.0,0.0,0.0,0.0,-1.2461,-1.298,-1.3512,-1.3983,-1.3232,-1.2409,-1.1688,0.0,0.0,0.0,0.0,0.0,0.0,0.0,0.0,0.0,0.0,0.0,0.0,0.0,0.0,0.0,0.0,0.0,0.0,0.0,0.0,0.0,0.0,0.0,0.0,0.0,0.0,0.0,0.0,0.0,0.0,0.0,0.0,0.0,0.0,0.0,0.0,0.0,0.0,0.0,0.0,0.0,0.0,0.0,0.0,0.0,0.0,0.0,0.0,0.0,0.0,0.0,0.0,0.0,0.0,0.0,0.0,0.0,0.0,0.0,0.0,0.0,0.0,0.0,0.0,0.0,0.0,0.0,0.0,0.0,0.0,0.0,0.0,0.0,0.0,0.0,0.0,0.0,0.0,0.0,0.0,0.0,0.0,0.0,0.0,0.0,0.0,0.0,0.0,0.0,0.0,0.0,0.0,0.0,0.0,0.0,0.0,0.0,0.0,0.0,0.0,0.0,0.0,0.0,0.0,0.0,0.0,0.0,0.0,-1.3828,-1.4445,-1.4537,-1.3984,-1.361,-1.2947,0.0,0.0,0.0,0.0,0.0,0.0,0.0,0.0,0.0,0.0,0.0,0.0,0.0,0.0,0.0,0.0,0.0,0.0,0.0,0.0,0.0,0.0,0.0,0.0,0.0,0.0,0.0,0.0,0.0,0.0,0.0,0.0,0.0,0.0,0.0,0.0,0.0,0.0,0.0,0.0,0.0,0.0,0.0,0.0,0.0,0.0,0.0,0.0,0.0,0.0,0.0,0.0,0.0,0.0,0.0,0.0,0.0,0.0,0.0,0.0,0.0,0.0,0.0,0.0,0.0,0.0,0.0,0.0,0.0,0.0,0.0,0.0,0.0,0.0,0.0,0.0,0.0,0.0,0.0,0.0,0.0,0.0,0.0,0.0,0.0,0.0,0.0,0.0,0.0,0.0,0.0,0.0,0.0,0.0,0.0,0.0,0.0,0.0,0.0,0.0,0.0,0.0,0.0,0.0,0.0,0.0,0.0,0.0,0.0,-1.4244,-1.5895,-1.6454,-1.5727,-1.4768,-1.4053,0.0,0.0,0.0,0.0,0.0,0.0,0.0,0.0,0.0,0.0,0.0,0.0,0.0,0.0,0.0,0.0,0.0,0.0,0.0,0.0,0.0,0.0,0.0,0.0,0.0,0.0,0.0,0.0,0.0,0.0,0.0,0.0,0.0,0.0,0.0,0.0,0.0,0.0,0.0,0.0,0.0,0.0,0.0,0.0,0.0,0.0,0.0,0.0,0.0,0.0,0.0,0.0,0.0,0.0,0.0,0.0,0.0,0.0,0.0,0.0,0.0,0.0,0.0,0.0,0.0,0.0,0.0,0.0,0.0,0.0,0.0,0.0,0.0,0.0,0.0,0.0,0.0,0.0,0.0,0.0,0.0,0.0,0.0,0.0,0.0,0.0,0.0,0.0,0.0,0.0,0.0,0.0,0.0,0.0,0.0,0.0,0.0,0.0,0.0,0.0,0.0,0.0,0.0,0.0,0.0,0.0,0.0,0.0,-1.5578,-1.5468,-1.71,-1.7682,-1.6997,-1.6086,-1.5161,0.0,0.0,0.0,0.0,0.0,0.0,0.0,0.0,0.0,0.0,0.0,0.0,0.0,0.0,0.0,0.0,0.0,0.0,0.0,0.0,0.0,0.0,0.0,0.0,0.0,0.0,0.0,0.0,0.0,0.0,0.0,0.0,0.0,0.0,0.0,0.0,0.0,0.0,0.0,0.0,0.0,0.0,0.0,0.0,0.0,0.0,0.0,0.0,0.0,0.0,0.0,0.0,0.0,0.0,0.0,0.0,0.0,0.0,0.0,0.0,0.0,0.0,0.0,0.0,0.0,0.0,0.0,0.0,0.0,0.0,0.0,0.0,0.0,0.0,0.0,0.0,0.0,0.0,0.0,0.0,0.0,0.0,0.0,0.0,0.0,0.0,0.0,0.0,0.0,0.0,0.0,0.0,0.0,0.0,0.0,0.0,0.0,0.0,0.0,0.0,0.0,0.0,0.0,0.0,0.0,0.0,0.0,0.0,-1.6418,-1.6989,-1.8033,-1.833,-1.7813,-1.7256,-1.6155,0.0,0.0,0.0,0.0,0.0,0.0,0.0,0.0,0.0,0.0,0.0,0.0,0.0,0.0,0.0,0.0,0.0,0.0,0.0,0.0,0.0,0.0,0.0,0.0,0.0,0.0,0.0,0.0,0.0,0.0,0.0,0.0,0.0,0.0,0.0,0.0,0.0,0.0,0.0,0.0,0.0,0.0,0.0,0.0,0.0,0.0,0.0,0.0,0.0,0.0,0.0,0.0,0.0,0.0,0.0,0.0,0.0,0.0,0.0,0.0,0.0,0.0,0.0,0.0,0.0,0.0,0.0,0.0,0.0,0.0,0.0,0.0,0.0,0.0,0.0,0.0,0.0,0.0,0.0,0.0,0.0,0.0,0.0,0.0,0.0,0.0,0.0,0.0,0.0,0.0,0.0,0.0,0.0,0.0,0.0,0.0,0.0,0.0,0.0,0.0,0.0,0.0,0.0,0.0,0.0,0.0,0.0,0.0,-1.6768,-1.716,-1.8353,-1.851,-1.7571,-1.7205,-1.6425,0.0,0.0,0.0,0.0,0.0,0.0,0.0,0.0,0.0,0.0,0.0,0.0,0.0,0.0,0.0,0.0,0.0,0.0,0.0,0.0,0.0,0.0,0.0,0.0,0.0,0.0,0.0,0.0,0.0,0.0,0.0,0.0,0.0,0.0,0.0,0.0,0.0,0.0,0.0,0.0,0.0,0.0,0.0,0.0,0.0,0.0,0.0,0.0,-0.9004,0.0,0.0,0.0,0.0,0.0,0.0,0.0,0.0,0.0,0.0,0.0,0.0,0.0,0.0,0.0,0.0,0.0,0.0,0.0,0.0,0.0,0.0,0.0,0.0,0.0,0.0,0.0,0.0,0.0,0.0,0.0,0.0,0.0,0.0,0.0,0.0,0.0,0.0,0.0,0.0,0.0,0.0,0.0,0.0,0.0,0.0,0.0,0.0,0.0,0.0,0.0,0.0,0.0,0.0,0.0,0.0,0.0,0.0,0.0,-1.7334,-1.7733,-1.8635,-1.8747,-1.7998,-1.7593,-1.6812,0.0,0.0,0.0,0.0,0.0,0.0,0.0,0.0,0.0,0.0,0.0,0.0,0.0,0.0,0.0,0.0,0.0,0.0,0.0,0.0,0.0,0.0,0.0,0.0,0.0,0.0,0.0,0.0,0.0,0.0,0.0,0.0,0.0,0.0,0.0,0.0,0.0,0.0,0.0,0.0,0.0,0.0,0.0,0.0,0.0,0.0,0.0,0.0,0.0,0.0,0.0,0.0,0.0,0.0,0.0,0.0,0.0,0.0,0.0,0.0,0.0,0.0,0.0,0.0,0.0,0.0,0.0,0.0,0.0,0.0,0.0,0.0,0.0,0.0,0.0,0.0,0.0,0.0,0.0,0.0,0.0,0.0,0.0,0.0,0.0,0.0,0.0,0.0,0.0,0.0,0.0,0.0,0.0,0.0,0.0,0.0,0.0,0.0,0.0,0.0,0.0,0.0,0.0,0.0,0.0,0.0,0.0,-1.6897,-1.7826,-1.838,-1.8777,-1.8791,-1.8397,-1.7915,-1.6977,-1.5539,0.0,0.0,0.0,0.0,0.0,0.0,0.0,0.0,0.0,0.0,0.0,0.0,0.0,0.0,0.0,0.0,0.0,0.0,0.0,0.0,0.0,0.0,0.0,0.0,0.0,0.0,0.0,0.0,0.0,0.0,0.0,0.0,0.0,0.0,0.0,0.0,0.0,0.0,-0.8544,-0.9653,0.0,0.0,0.0,0.0,0.0,0.0,0.0,0.0,-1.0924,0.0,0.0,0.0,0.0,0.0,0.0,0.0,0.0,0.0,0.0,0.0,0.0,0.0,0.0,0.0,0.0,0.0,0.0,0.0,0.0,0.0,0.0,0.0,0.0,0.0,0.0,0.0,0.0,0.0,0.0,0.0,0.0,0.0,0.0,0.0,0.0,0.0,0.0,0.0,0.0,0.0,0.0,0.0,0.0,0.0,0.0,0.0,0.0,0.0,0.0,0.0,0.0,0.0,0.0,0.0,0.0,-1.7439,-1.736,-1.7762,-1.875,-1.857,-1.8266,-1.7908,-1.7358,-1.6541,-1.5545,0.0,0.0,0.0,0.0,0.0,0.0,0.0,0.0,0.0,0.0,0.0,0.0,0.0,0.0,0.0,0.0,0.0,0.0,0.0,0.0,0.0,0.0,0.0,0.0,0.0,0.0,0.0,0.0,0.0,0.0,0.0,0.0,0.0,0.0,0.0,0.0,0.0,0.0,0.0,-1.0398,-1.0877,0.0,0.0,0.0,0.0,0.0,0.0,0.0,0.0,-1.1005,0.0,0.0,0.0,0.0,0.0,0.0,0.0,0.0,0.0,0.0,0.0,0.0,0.0,0.0,0.0,0.0,0.0,0.0,0.0,0.0,0.0,0.0,0.0,0.0,0.0,0.0,0.0,0.0,0.0,0.0,0.0,0.0,0.0,0.0,0.0,0.0,0.0,0.0,0.0,0.0,0.0,0.0,0.0,0.0,0.0,0.0,0.0,0.0,0.0,0.0,0.0,0.0,0.0,0.0,0.0,-1.6849,-1.7648,-1.8354,-1.8871,-1.857,-1.8312,-1.8154,-1.7108,-1.621,0.0,0.0,0.0,0.0,0.0,0.0,0.0,0.0,0.0,0.0,0.0,0.0,0.0,0.0,0.0,0.0,0.0,0.0,0.0,0.0,0.0,0.0,0.0,0.0,0.0,0.0,0.0,0.0,0.0,0.0,0.0,0.0,0.0,0.0,0.0,0.0,0.0,0.0,0.0,0.0,-1.1077,-1.1541,-1.1783,0.0,0.0,0.0,0.0,0.0,0.0,-1.1632,-1.1627,0.0,0.0,0.0,0.0,0.0,0.0,0.0,0.0,0.0,0.0,0.0,0.0,0.0,0.0,0.0,0.0,0.0,0.0,0.0,0.0,0.0,0.0,0.0,0.0,0.0,0.0,0.0,0.0,0.0,0.0,0.0,0.0,0.0,0.0,0.0,0.0,0.0,0.0,0.0,0.0,0.0,0.0,0.0,0.0,0.0,0.0,0.0,0.0,0.0,0.0,0.0,0.0,0.0,0.0,0.0,-1.6138,-1.7702,-1.858,-1.8681,-1.8321,-1.8085,-1.7986,-1.6659,-1.566,0.0,0.0,0.0,0.0,0.0,0.0,0.0,0.0,0.0,0.0,0.0,0.0,0.0,0.0,0.0,0.0,0.0,0.0,0.0,0.0,0.0,0.0,0.0,0.0,0.0,0.0,0.0,0.0,0.0,0.0,0.0,0.0,0.0,0.0,0.0,0.0,0.0,0.0,0.0,0.0,0.0,-1.2454,-1.2245,-1.2315,0.0,0.0,0.0,0.0,-1.2524,-1.2369,0.0,0.0,0.0,0.0,0.0,0.0,0.0,0.0,0.0,0.0,0.0,0.0,0.0,0.0,0.0,0.0,0.0,0.0,0.0,0.0,0.0,0.0,0.0,0.0,0.0,0.0,0.0,0.0,0.0,0.0,0.0,0.0,0.0,0.0,0.0,0.0,0.0,0.0,0.0,0.0,0.0,0.0,0.0,0.0,0.0,0.0,0.0,0.0,0.0,0.0,0.0,0.0,0.0,0.0,0.0,0.0,-1.6724,-1.7076,-1.7511,-1.8011,-1.7319,-1.6698,-1.6275,-1.5478,-1.4632,0.0,0.0,0.0,0.0,0.0,0.0,0.0,0.0,0.0,0.0,0.0,0.0,0.0,0.0,0.0,0.0,0.0,0.0,0.0,0.0,0.0,0.0,0.0,0.0,0.0,0.0,0.0,0.0,0.0,0.0,0.0,0.0,0.0,0.0,0.0,0.0,0.0,0.0,0.0,0.0,0.0,-1.3676,-1.2693,-1.3016,-1.3434,0.0,0.0,-1.3091,-1.3906,-1.3353,0.0,0.0,0.0,0.0,0.0,0.0,0.0,0.0,0.0,0.0,0.0,0.0,0.0,0.0,0.0,0.0,0.0,0.0,0.0,0.0,0.0,0.0,0.0,0.0,0.0,0.0,0.0,0.0,0.0,0.0,0.0,0.0,0.0,0.0,0.0,0.0,0.0,0.0,0.0,0.0,0.0,0.0,0.0,0.0,0.0,0.0,0.0,0.0,0.0,0.0,0.0,0.0,0.0,0.0,0.0,-1.5073,-1.5847,-1.6348,-1.6831,-1.7211,-1.6552,-1.6124,-1.5979,-1.503,-1.4175,0.0,0.0,0.0,0.0,0.0,0.0,0.0,0.0,0.0,0.0,0.0,0.0,0.0,0.0,0.0,0.0,0.0,0.0,0.0,0.0,0.0,0.0,0.0,0.0,0.0,0.0,0.0,0.0,0.0,0.0,0.0,0.0,0.0,0.0,0.0,0.0,0.0,0.0,0.0,0.0,0.0,0.0,-1.3945,-1.3871,0.0,0.0,0.0,-1.3813,-1.4512,0.0,0.0,0.0,0.0,0.0,0.0,0.0,0.0,0.0,0.0,0.0,0.0,0.0,0.0,0.0,0.0,0.0,0.0,0.0,0.0,0.0,0.0,0.0,0.0,0.0,0.0,0.0,0.0,0.0,0.0,0.0,0.0,0.0,0.0,0.0,0.0,0.0,0.0,0.0,0.0,0.0,0.0,0.0,0.0,0.0,0.0,0.0,0.0,0.0,0.0,0.0,0.0,0.0,0.0,0.0,0.0,0.0,-1.5282,-1.5728,-1.6199,-1.6611,-1.5847,-1.5465,-1.5502,-1.4488,0.0,0.0,0.0,0.0,0.0,0.0,0.0,0.0,0.0,0.0,0.0,0.0,0.0,0.0,0.0,0.0,0.0,0.0,0.0,0.0,0.0,0.0,0.0,0.0,0.0,0.0,0.0,-0.6234,0.0,0.0,0.0,0.0,0.0,0.0,0.0,0.0,0.0,0.0,0.0,0.0,0.0,0.0,-1.472,-1.4819,-1.4632,-1.4639,0.0,0.0,-1.4695,-1.5203,-1.4859,-1.4487,0.0,0.0,0.0,0.0,0.0,0.0,0.0,0.0,0.0,0.0,0.0,0.0,0.0,0.0,0.0,0.0,0.0,0.0,0.0,0.0,0.0,0.0,0.0,0.0,0.0,0.0,0.0,0.0,0.0,0.0,0.0,0.0,0.0,0.0,0.0,0.0,0.0,0.0,0.0,0.0,0.0,0.0,0.0,0.0,0.0,0.0,0.0,0.0,0.0,0.0,0.0,0.0,0.0,0.0,0.0,-1.5657,-1.5311,-1.5544,-1.6419,-1.5195,-1.4409,-1.4245,-1.3607,-1.2647,0.0,0.0,0.0,0.0,0.0,0.0,0.0,0.0,0.0,0.0,0.0,0.0,0.0,0.0,0.0,0.0,0.0,0.0,0.0,0.0,0.0,0.0,0.0,0.0,0.0,0.0,0.0,0.0,0.0,0.0,0.0,0.0,0.0,0.0,0.0,0.0,0.0,0.0,0.0,0.0,0.0,-1.5953,-1.4858,-1.5205,-1.5558,0.0,0.0,-1.5775,-1.6314,-1.5932,-1.5423,-1.492,0.0,0.0,0.0,0.0,0.0,0.0,0.0,0.0,0.0,0.0,0.0,0.0,0.0,0.0,0.0,0.0,0.0,0.0,0.0,0.0,0.0,0.0,0.0,0.0,0.0,0.0,0.0,0.0,0.0,0.0,0.0,0.0,0.0,0.0,0.0,0.0,0.0,0.0,0.0,0.0,0.0,0.0,0.0,0.0,0.0,0.0,0.0,0.0,0.0,0.0,0.0,0.0,0.0,-1.4174,-1.4931,-1.4748,-1.4853,-1.5225,-1.4301,-1.3756,-1.3674,-1.3105,-1.2438,0.0,0.0,0.0,0.0,0.0,0.0,0.0,0.0,0.0,0.0,0.0,0.0,0.0,0.0,0.0,0.0,0.0,0.0,0.0,0.0,0.0,0.0,0.0,0.0,0.0,0.0,0.0,0.0,-0.6979,-0.7512,-0.8469,0.0,0.0,0.0,0.0,0.0,0.0,0.0,0.0,0.0,0.0,-1.5863,-1.574,-1.567,0.0,0.0,-1.5688,-1.5699,-1.6232,-1.5616,-1.5122,-1.5246,-1.4332,0.0,0.0,0.0,0.0,0.0,0.0,0.0,0.0,0.0,0.0,0.0,0.0,0.0,0.0,0.0,0.0,0.0,0.0,0.0,0.0,0.0,0.0,0.0,0.0,0.0,0.0,0.0,0.0,0.0,0.0,0.0,0.0,0.0,0.0,0.0,0.0,0.0,0.0,0.0,0.0,0.0,0.0,0.0,0.0,0.0,0.0,0.0,0.0,0.0,0.0,0.0,0.0,-1.4183,-1.4564,-1.4651,-1.4777,-1.4901,-1.4092,-1.3639,-1.3598,-1.294,-1.2316,0.0,0.0,0.0,0.0,0.0,0.0,0.0,0.0,0.0,0.0,0.0,0.0,0.0,0.0,0.0,0.0,0.0,0.0,0.0,0.0,0.0,0.0,0.0,0.0,0.0,0.0,0.0,0.0,-0.7537,-0.8261,-0.9436,0.0,0.0,0.0,0.0,0.0,0.0,0.0,0.0,0.0,0.0,-1.5831,-1.6232,-1.5954,-1.5738,-1.5874,-1.5776,-1.5715,-1.593,-1.5627,-1.5356,-1.524,0.0,0.0,0.0,0.0,0.0,0.0,0.0,0.0,0.0,0.0,0.0,0.0,0.0,0.0,0.0,0.0,0.0,0.0,0.0,0.0,0.0,0.0,0.0,0.0,0.0,0.0,0.0,0.0,0.0,0.0,-1.3085,0.0,0.0,0.0,0.0,0.0,0.0,0.0,0.0,0.0,0.0,0.0,0.0,0.0,0.0,0.0,0.0,0.0,0.0,0.0,0.0,0.0,0.0,-1.4028,-1.498,-1.5165,-1.5447,-1.5833,-1.4746,-1.412,-1.4041,-1.3124,-1.2218,-1.1433,0.0,0.0,0.0,0.0,0.0,0.0,0.0,0.0,0.0,0.0,0.0,0.0,0.0,0.0,0.0,0.0,0.0,0.0,0.0,0.0,0.0,0.0,0.0,0.0,0.0,0.0,-0.7558,-0.8113,-0.8885,0.0,0.0,0.0,0.0,0.0,0.0,0.0,0.0,0.0,0.0,-1.5461,-1.6044,-1.6011,-1.6082,-1.5936,-1.532,-1.5807,-1.6016,-1.5536,-1.6268,-1.6408,0.0,0.0,0.0,0.0,0.0,0.0,0.0,0.0,0.0,0.0,0.0,0.0,0.0,0.0,0.0,0.0,0.0,0.0,0.0,0.0,0.0,0.0,0.0,0.0,0.0,0.0,0.0,-1.41,-1.4243,0.0,0.0,0.0,0.0,0.0,0.0,0.0,0.0,0.0,0.0,0.0,-1.4466,-1.4795,0.0,0.0,0.0,0.0,0.0,0.0,0.0,0.0,0.0,0.0,0.0,0.0,-1.4675,-1.5018,-1.5517,-1.5817,-1.5856,-1.4777,-1.4042,-1.3717,-1.2782,-1.1723,-1.0651,0.0,0.0,0.0,0.0,0.0,0.0,0.0,0.0,0.0,0.0,0.0,0.0,0.0,0.0,0.0,0.0,0.0,0.0,0.0,0.0,0.0,0.0,0.0,0.0,0.0,-0.8144,0.0,0.0,0.0,0.0,0.0,0.0,0.0,0.0,0.0,0.0,0.0,-1.4736,-1.5222,-1.6003,-1.631,-1.5611,-1.5856,-1.5934,0.0,0.0,0.0,0.0,0.0,0.0,0.0,0.0,0.0,0.0,0.0,0.0,0.0,0.0,-1.4545,-1.3278,-1.2989,-1.2885,-1.2804,0.0,0.0,0.0,0.0,0.0,0.0,0.0,0.0,0.0,0.0,0.0,0.0,0.0,0.0,-1.4339,0.0,-1.3708,0.0,0.0,0.0,0.0,0.0,0.0,0.0,0.0,-1.4751,-1.4765,-1.4523,-1.4884,-1.5024,0.0,-1.5147,-1.4869,0.0,0.0,0.0,0.0,0.0,0.0,0.0,0.0,-1.5004,-1.5041,-1.5665,-1.5863,-1.5574,-1.4544,-1.3829,-1.3534,-1.247,-1.138,-1.0216,-1.035,-1.0149,0.0,0.0,0.0,0.0,0.0,0.0,0.0,0.0,0.0,0.0,0.0,0.0,0.0,0.0,0.0,0.0,0.0,0.0,0.0,0.0,0.0,0.0,0.0,-0.8789,0.0,0.0,0.0,0.0,0.0,0.0,0.0,0.0,0.0,-1.3831,-1.4473,-1.4968,-1.5307,-1.5798,-1.5959,-1.5499,0.0,0.0,0.0,0.0,0.0,0.0,0.0,-1.5584,-1.5282,-1.5081,-1.4987,-1.509,-1.5149,-1.5074,-1.4987,0.0,0.0,-1.3839,-1.3565,-1.3422,-1.313,-1.327,-1.3603,-1.4088,-1.4412,-1.4637,0.0,0.0,0.0,0.0,0.0,0.0,0.0,0.0,-1.4592,-1.4245,0.0,-1.3724,0.0,0.0,0.0,0.0,0.0,0.0,0.0,0.0,-1.4691,-1.4785,-1.5051,-1.5091,-1.5108,-1.5147,-1.5549,-1.5256,-1.4428,-1.5276,0.0,0.0,0.0,0.0,0.0,0.0,-1.4983,-1.4995,-1.561,-1.568,-1.5107,-1.4098,-1.3564,-1.3454,-1.219,-1.1094,-1.0303,-1.0649,-1.0474,-0.9574,-0.9949,0.0,0.0,0.0,0.0,0.0,0.0,0.0,0.0,0.0,0.0,0.0,0.0,0.0,0.0,0.0,0.0,0.0,0.0,0.0,0.0,-0.8488,0.0,0.0,0.0,0.0,0.0,0.0,0.0,0.0,0.0,0.0,-1.3375,-1.432,-1.5014,-1.4944,0.0,0.0,0.0,0.0,-1.4325,-1.434,-1.4299,-1.419,-1.3721,-1.4477,-1.4925,-1.4309,0.0,0.0,-1.4862,-1.5088,-1.5205,-1.4834,-1.4756,-1.4761,-1.4702,-1.4444,-1.4152,-1.3618,-1.3447,-1.352,-1.4038,-1.4384,-1.462,-1.8175,0.0,0.0,0.0,0.0,-1.7378,-1.7207,-1.6813,-1.5712,-1.5269,-1.5302,-1.4702,0.0,0.0,0.0,0.0,0.0,0.0,-1.5327,-1.5305,-1.4938,-1.4757,-1.4812,-1.4806,-1.4943,-1.5277,-1.5445,-1.5336,-1.4913,-1.5598,-1.5271,-1.3836,0.0,0.0,0.0,0.0,-1.4504,-1.4539,-1.5066,-1.5283,-1.5108,-1.4115,-1.3123,-1.214,-1.1421,-1.096,-1.0701,-1.0824,-1.0649,-1.0076,-1.019,0.0,0.0,0.0,0.0,0.0,0.0,0.0,0.0,0.0,0.0,0.0,0.0,0.0,0.0,0.0,0.0,0.0,0.0,0.0,-0.8171,-0.8692,-0.9362,0.0,0.0,0.0,0.0,0.0,0.0,0.0,0.0,0.0,-1.4526,-1.5141,-1.5509,0.0,0.0,-1.5303,-1.4733,-1.4414,-1.4302,-1.4314,0.0,0.0,0.0,-1.4645,-1.4875,-1.4257,-1.4369,-1.4473,-1.4321,-1.4424,-1.4408,-1.4287,-1.4321,-1.4228,-1.3945,-1.4028,-1.4077,-1.3883,-1.3811,-1.3801,-1.3912,-1.4096,-1.43,-1.9214,-1.9172,-1.9003,-1.849,-1.7774,-1.7665,-1.7439,-1.7126,-1.6108,-1.5717,-1.573,-1.5203,-1.4957,-1.5032,-1.5126,0.0,0.0,0.0,-1.5466,-1.5273,-1.4724,-1.4382,-1.4269,-1.4242,-1.4392,-1.4623,-1.4915,-1.4875,-1.4501,-1.5116,-1.4766,-1.3554,0.0,0.0,-1.4098,-1.425,-1.4323,-1.4345,-1.4637,-1.4737,-1.4485,-1.3735,-1.274,-1.1582,-1.129,-1.1018,-1.069,-1.0651,-1.0482,-1.0035,-1.0035,-0.957,0.0,0.0,0.0,0.0,0.0,0.0,0.0,0.0,0.0,0.0,0.0,-0.7207,-0.7437,0.0,0.0,0.0,-0.7948,-0.805,-0.848,-0.8864,0.0,0.0,0.0,0.0,0.0,0.0,0.0,-1.408,-1.4725,-1.5148,-1.5143,-1.5325,-1.533,-1.4952,-1.5047,-1.4893,-1.429,0.0,-1.3795,-1.3978,-1.4127,-1.4117,-1.3729,-1.397,-1.4125,-1.3918,-1.3975,-1.4077,-1.4082,-1.3966,-1.38,-1.3785,-1.3676,-1.348,-1.3237,-1.343,-1.3643,-1.3544,-1.3497,-1.3441,-1.3332,-1.337,-1.3433,-1.9622,-1.9425,-1.8264,-1.7848,-1.7825,-1.7036,-1.6723,-1.6653,-1.605,-1.5722,-1.5654,-1.5277,-1.56,-1.6348,-1.5969,0.0,-1.5725,-1.5526,-1.5269,-1.4977,-1.4282,-1.3906,-1.3621,-1.3663,-1.3621,-1.3668,-1.414,-1.4087,-1.3668,-1.414,-1.4093,-1.3615,-1.468,-1.5091,-1.4988,-1.4549,-1.4317,-1.4316,-1.4332,-1.4066,-1.3548,-1.315,-1.2459,-1.1608,-1.1588,-1.1166,-1.0356,-1.0298,-1.0073,-0.9588,-0.954,-0.922,-0.8519,0.0,0.0,0.0,0.0,0.0,0.0,0.0,0.0,0.0,0.0,0.0,0.0,0.0,0.0,0.0,-0.8246,0.0,-0.8696,-0.9113,0.0,0.0,0.0,-1.1075,-1.2509,-1.3004,-1.3631,-1.4685,0.0,0.0,-1.5308,0.0,-1.4722,-1.4632,-1.4277,-1.4088,-1.4144,-1.3426,-1.307,-1.3483,-1.321,-1.2939,-1.2969,-1.2954,-1.3032,-1.3292,-1.367,-1.3753,-1.371,-1.339,-1.3144,-1.3054,-1.2798,-1.2561,-1.2608,-1.275,-1.2783,-1.2866,-1.2812,-1.2656,-1.2586,-1.2443,-1.2447,-1.7792,-1.7399,-1.6968,-1.7196,-1.7884,-1.7596,-1.7104,-1.6626,-1.6372,-1.6017,-1.5701,-1.5949,-1.6166,-1.6362,-1.6409,-1.6229,-1.5991,-1.5725,-1.5353,-1.4921,-1.4315,-1.4077,-1.4046,-1.4035,-1.3994,-1.3915,-1.402,-1.3915,-1.3615,-1.381,-1.381,-1.3621,-1.3994,-1.4087,-1.3936,-1.383,-1.3778,-1.381,-1.3805,-1.3538,-1.3103,-1.2984,-1.2431,-1.157,-1.1502,-1.1126,-1.0252,-1.0229,-0.9881,-0.919,-0.9128,-0.8928,-0.8447,-0.814,0.0,0.0,0.0,0.0,0.0,0.0,0.0,0.0,0.0,-0.8435,-0.827,0.0,-0.822,0.0,-0.8579,-0.8707,-0.9029,-0.9466,0.0,0.0,-1.1296,-1.2002,-1.3853,-1.3793,-1.3923,-1.4715,-1.4873,-1.481,-1.4423,-1.4296,-1.3999,-1.3316,-1.3451,-1.366,-1.3654,-1.3244,-1.2925,-1.3017,-1.2925,-1.2886,-1.2832,-1.2529,-1.2306,-1.2404,-1.214,-1.1879,-1.1879,-1.1781,-1.173,-1.167,-1.1541,-1.1582,-1.2017,-1.2022,-1.213,-1.248,-1.2573,-1.2529,-1.2382,-1.2234,-1.2224,-1.6991,-1.6662,-1.63,-1.6489,-1.7036,-1.6784,-1.651,-1.6162,-1.5993,-1.5737,-1.5519,-1.5714,-1.5823,-1.5873,-1.5862,-1.5836,-1.5685,-1.5474,-1.5201,-1.4805,-1.4311,-1.4079,-1.4104,-1.4087,-1.4051,-1.4025,-1.3926,-1.3821,-1.3721,-1.3721,-1.3668,-1.3615,-1.3668,-1.3668,-1.3615,-1.3668,-1.3668,-1.3615,-1.3615,-1.3486,-1.3243,-1.2996,-1.2645,-1.2138,-1.1676,-1.1163,-1.0483,-1.0244,-0.9774,-0.9006,-0.8939,-0.8856,-0.865,-0.8417,-0.846,0.0,0.0,0.0,0.0,0.0,0.0,0.0,0.0,0.0,0.0,0.0,-0.8491,-0.8674,-0.8937,-0.9175,-0.9351,-0.9869,-1.0428,-1.1102,-1.1142,-1.1699,-1.3061,-1.2989,-1.3141,-1.4042,-1.4148,-1.4122,-1.4111,-1.3748,-1.3284,-1.2742,-1.2558,-1.2443,-1.2485,-1.23,-1.2116,-1.2121,-1.2161,-1.2107,-1.2053,-1.1796,-1.1597,-1.1493,-1.1246,-1.1036,-1.0986,-1.0838,-1.0685,-1.0639,-1.0622,-1.0669,-1.0994,-1.1187,-1.1392,-1.1597,-1.1692,-1.181,-1.2229,-1.2234,-1.2278,-1.6422,-1.6373,-1.5836,-1.5689,-1.5744,-1.5429,-1.5385,-1.5565,-1.5331,-1.5216,-1.5216,-1.5112,-1.5055,-1.5216,-1.5055,-1.5081,-1.5112,-1.4993,-1.4869,-1.4616,-1.4265,-1.4067,-1.4015,-1.402,-1.401,-1.402,-1.3873,-1.3826,-1.3821,-1.3721,-1.3668,-1.3621,-1.3615,-1.3621,-1.3615,-1.3721,-1.3721,-1.3615,-1.3615,-1.3615,-1.3615,-1.3059,-1.2785,-1.2757,-1.186,-1.116,-1.0718,-1.0234,-0.9666,-0.8989,-0.8965,-0.8965,-0.8969,-0.8965,-0.9096,0.0,-0.939,0.0,0.0,0.0,0.0,0.0,0.0,0.0,0.0,-0.9034,-0.8787,-0.8754,-0.9277,-0.9629,-0.9669,-1.0192,-1.0539,-1.058,-1.058,-1.0876,-1.1507,-1.1612,-1.1979,-1.3018,-1.3122,-1.3275,-1.3556,-1.3001,-1.2477,-1.2277,-1.1631,-1.1137,-1.1006,-1.1158,-1.1305,-1.1204,-1.1204,-1.1238,-1.1124,-1.0969,-1.0817,-1.072,-1.0626,-1.0614,-1.0564,-1.0163,-0.9909,-0.9913,-0.9917,-0.9913,-0.9965,-1.0364,-1.0669,-1.0813,-1.0716,-1.0977,-1.1864,-1.2126,-1.217,-1.4835,-1.484,-1.4704,-1.4662,-1.4673,-1.4609,-1.4784,-1.5143,-1.5305,-1.5388,-1.5336,-1.5227,-1.517,-1.5216,-1.517,-1.5012,-1.4811,-1.4802,-1.4639,-1.4274,-1.4167,-1.4118,-1.4176,-1.4181,-1.4181,-1.4134,-1.401,-1.3968,-1.3973,-1.3921,-1.3868,-1.3768,-1.3773,-1.371,-1.3615,0.0,0.0,0.0,-1.3615,-1.3615,-1.3615,-1.3059,-1.2589,-1.2183,-1.1599,0.0,-1.0131,-0.9963,-0.9755,-0.933,-0.9302,0.0,0.0,0.0,0.0,0.0,0.0,0.0,0.0,0.0,0.0,0.0,-0.9531,-0.945,-0.9486,-0.9429,-0.9336,-0.9169,-0.9409,-0.9724,-0.998,-1.0111,-1.0298,-1.055,-1.058,-1.0872,-1.1503,-1.1608,-1.1734,-1.2121,-1.2193,-1.207,-1.185,-1.1599,-1.1319,-1.0978,-1.064,-1.0395,-0.9976,-1.0643,-1.1154,-1.1204,-1.1032,-1.1023,-1.1015,-1.0509,-1.0167,-1.0115,-0.988,-0.9681,-0.9569,-0.9458,-0.9302,-0.9364,-0.9263,-0.9361,-0.9714,-0.9865,-0.9965,-1.0368,-1.0419,-1.0673,-1.1464,-1.1569,-1.1623,-1.4425,0.0,-1.4425,-1.4395,0.0,-1.4332,-1.4398,-1.4537,-1.4717,-1.4816,-1.4821,-1.4678,-1.4623,-1.4722,-1.4628,-1.4551,-1.4457,-1.4473,-1.4434,-1.4274,-1.4274,-1.4269,-1.4274,-1.4274,-1.4285,-1.4274,-1.414,-1.4062,-1.402,-1.3926,-1.3668,-1.3314,-1.3314,-1.3122,-1.2832,-1.2788,-1.2929,-1.3213,-1.2929,-1.2788,-1.2788,-1.2344,-1.2049,-1.1954,0.0,0.0,0.0,0.0,0.0,0.0,0.0,0.0,0.0,0.0,0.0,-0.9821,-0.9926,-0.9926,-0.9829,-0.9877,-0.9998,-1.0077,-0.9946,-0.9791,-0.9644,-0.9633,-0.9552,-0.9413,-0.9672,-0.9859,-0.9866,-1.0144,-1.0272,-1.0144,-1.025,-1.0457,-1.0577,-1.0601,-1.0743,-1.1067,-1.1179,-1.1152,-1.1179,-1.0952,-1.0702,-1.0399,-1.0146,-0.9928,-0.9718,-1.0075,-1.0383,-1.0387,-1.032,-1.0218,-1.0119,-0.9817,-0.9462,-0.9413,-0.9218,-0.9068,-0.9008,-0.9005,-0.8952,-0.9008,-0.8962,-0.9012,-0.9211,-0.9263,-0.9253,-0.951,-0.961,-0.9817,-1.0438,-1.0694,-1.0998,-1.4425,-1.4425,-1.4425,-1.4395,-1.4411,-1.4291,-1.414,-1.4057,0.0,0.0,0.0,-1.4062,-1.4057,-1.414,-1.4057,-1.4098,-1.417,-1.4228,-1.4285,-1.4425,-1.4321,-1.4326,-1.4425,-1.4332,-1.4332,-1.4378,-1.4181,-1.3994,-1.3873,-1.3668,-1.3256,-1.2764,-1.2667,-1.2472,-1.2053,-1.1904,-1.2093,-1.2477,-1.2192,-1.2008,-1.2008,-1.1514,-1.1473,-1.1864,-1.0968,-1.0722,-1.1124,-1.0718,-1.0335,-1.0041,-0.9972,-1.0017,-1.0021,-1.0017,-1.0103,-1.0289,-1.0423,-1.0415,-1.032,-1.0364,-1.0415,-1.0466,-1.0158,-0.9947,-0.9795,-0.9677,-0.9618,-0.9618,-0.9859,-0.9899,-0.9647,-1.0082,-1.0203,-0.9665,-0.9855,-0.9907,-0.9665,-0.9618,-0.9855,-1.019,-1.0261,-1.0391,-1.0795,-1.0494,-1.0245,-1.0194,-0.9877,-0.9618,-0.9618,-0.9666,-0.9718,-0.9718,-0.961,-0.9361,-0.926,-0.911,-0.8962,-0.891,-0.8804,-0.8808,-0.8808,-0.8808,-0.8808,-0.8804,-0.8808,-0.8804,-0.8804,-0.8857,-0.8808,-0.8808,-0.8804,-0.8903,-0.9361,-0.9814,-1.0269,-1.4425,-1.4425,-1.4425,-1.4425,-1.4425,-1.4373,-1.4274,-1.4186,-1.4062,-1.402,-1.4015,-1.4015,-1.402,-1.4062,-1.414,-1.4181,-1.4222,-1.4321,-1.4368,0.0,-1.3931,-1.3967,-1.4384,-1.4051,-1.4046,-1.4337,-1.38,-1.3515,-1.3415,-1.2914,-1.2467,-1.2307,-1.2258,-1.2173,-1.2004,-1.1619,-1.1414,-1.151,-1.1864,-1.2008,-1.2008,-1.1519,-1.1326,-1.1372,-1.082,-1.0522,-1.062,-1.0569,-1.0494,-1.0446,-1.0395,-1.0446,-1.0438,-1.0387,-1.0419,-1.0466,-1.0371,-1.032,-1.032,-1.0162,-1.0158,-1.0316,-1.0106,-0.9951,-0.9799,-0.9677,-0.9618,-0.9618,-0.9669,-0.9669,-0.9621,-0.9716,-0.9749,-0.9636,-0.9658,-0.9658,-0.9618,-0.9618,-0.9669,-0.9721,-0.9718,-0.9769,-0.9873,-0.9821,-0.9773,-0.9721,-0.961,-0.9566,-0.951,-0.9618,-0.9618,-0.9566,-0.9413,-0.926,-0.905,-0.8956,-0.8748,-0.8808,-0.8758,-0.8761,-0.8695,-0.8755,-0.8758,-0.8808,-0.8808,-0.8808,-0.8752,-0.8808,-0.8755,-0.8752,-0.8752,-0.8857,-0.8959,-0.9057,-0.9364,-1.4425,-1.4425,-1.4425,-1.4389,-1.4406,-1.4392,-1.4276,-1.4098,-1.401,-1.3821,-1.3568,-1.3568,-1.351,-1.3362,-1.3251,-1.3394,-1.3647,-1.3547,-1.3595,-1.3752,-1.3484,-1.3542,-1.37,-1.3557,-1.3515,-1.3494,-1.3208,-1.2967,-1.2711,-1.2463,-1.207,-1.1742,-1.1443,-1.1259,-1.1158,-1.0968,-1.0867,-1.0871,-1.107,-1.1162,-1.1167,-1.0968,-1.0871,-1.0875,-1.062,-1.0522,-1.0522,-1.0522,-1.0522,-1.0522,-1.0522,-1.0522,-1.0522,-1.0522,-1.0466,-1.0419,-1.0423,-1.032,-1.0162,-1.0054,-1.0051,-1.0158,-0.9951,-0.9844,-0.9799,-0.9677,-0.9618,-0.9618,-0.9618,-0.9618,-0.9618,-0.9618,-0.9618,-0.9618,-0.9618,-0.9618,-0.9618,-0.9618,-0.9618,-0.9618,-0.9618,-0.9618,-0.9618,-0.9618,-0.9618,-0.9614,-0.9402,-0.9082,-0.8768,-0.8722,-0.8823,-0.9086,-0.8995,-0.8676,-0.8352,-0.814,-0.799,-0.7886,-0.8425,-0.8592,-0.8443,-0.8543,-0.8771,-0.8811,-0.8801,-0.8643,-0.8421,-0.8586,-0.8643,-0.8368,-0.859,-0.8752,-0.8808,-0.8748,-0.8945,-1.4425,-1.4425,-1.4425,-1.4395,-1.437,-1.421,-1.4052,-1.3915,-1.3779,-1.343,-1.3025,-1.3122,-1.3016,-1.2764,-1.2565,-1.2716,-1.3069,-1.2967,-1.3011,-1.3165,-1.3122,-1.3117,-1.3165,-1.3127,-1.2977,-1.2764,-1.2672,-1.2374,-1.2026,-1.1877,-1.1592,-1.112,-1.0722,-1.0522,-1.0522,-1.0522,-1.0522,-1.0522,-1.0522,-1.0522,-1.0522,-1.0522,-1.0522,-1.0522,-1.0522,-1.0522,-1.0522,-1.0522,-1.0522,-1.0522,-1.0522,-1.0462,-1.0352,-1.036,-1.0257,-1.0106,-1.0051,-0.9888,-0.9569,-0.9569,-0.9569,-0.9566,-0.9469,-0.9424,-0.9417,-0.9298,-0.9347,-0.9562,-0.9618,-0.9618,-0.9618,-0.9618,-0.9618,-0.9618,-0.9618,-0.951,-0.9454,-0.9406,-0.935,-0.9242,-0.919,-0.9194,-0.9246,-0.9194,-0.9194,-0.9089,-0.8827,-0.8402,-0.7981,-0.7931,-0.8087,-0.8246,-0.8355,-0.819,-0.7545,-0.7393,-0.7292,-0.7136,-0.7782,-0.8054,-0.7892,-0.8084,-0.8252,-0.8198,-0.8245,-0.8077,-0.7754,-0.8106,-0.8292,-0.8062,-0.8418,-0.8781,-0.8694,-0.8384,-0.8492,-1.4373,-1.4425,-1.4378,-1.4425,-1.428,-1.3648,-1.3474,-1.3568,-1.3205,-1.2676,-1.2363,-1.288,-1.2967,-1.2662,-1.2667,-1.272,-1.2812,-1.3064,-1.3165,-1.3122,-1.2905,-1.2905,-1.3122,-1.2852,-1.2749,-1.2667,-1.2183,-1.1755,-1.1447,-1.0956,-1.0667,-1.0573,-1.0522,-1.0522,-1.0522,-1.0522,-1.0522,-1.0522,-1.0522,-1.0522,-1.0522,-1.0522,-1.0522,-1.0522,-1.0522,-1.0522,-1.0522,-1.0522,-1.0522,-1.0522,-1.0466,-1.03,-0.9925,-0.9869,-0.9718,-0.9312,-0.8995,-0.857,-0.8193,-0.8243,-0.8339,-0.8283,-0.8287,-0.8343,-0.829,-0.8184,-0.8504,-0.9302,-0.9566,-0.951,-0.9618,-0.9558,-0.9506,-0.9454,-0.9506,-0.9406,-0.9044,-0.8886,-0.8669,-0.8084,-0.8131,-0.8084,-0.819,-0.8193,-0.8137,-0.8134,-0.8087,-0.7928,-0.7768,-0.7714,-0.7557,-0.7399,-0.7447,-0.7545,-0.7382,-0.7235,-0.6972,-0.7028,-0.7141,-0.7201,-0.7162,-0.6902,-0.6791,-0.7324,-0.7001,-0.6917,-0.7044,-0.738,-0.7762,-0.7712,-0.8084,-0.8642,-0.841,-0.7834,-0.7735,-1.4051,-1.4004,-1.3805,-1.3695,-1.3647,-1.3336,-1.3241,-1.3314,-1.3132,-1.2852,-1.2475,-1.255,-1.2339,-1.1846,-1.1551,-1.1597,-1.1895,-1.1841,-1.19,-1.2049,-1.2062,-1.2166,-1.2304,-1.2166,-1.2067,-1.1904,-1.146,-1.1116,-1.0867,-1.0616,-1.0522,-1.0522,-1.0522,-1.0522,-1.0522,-1.0522,-1.0522,-1.0522,-1.0522,-1.0522,-1.0522,-1.0522,-1.0522,-1.0522,-1.0522,-1.0522,-1.0522,-1.0522,-1.036,-1.0087,-1.0087,-0.9877,-0.9462,-0.9465,-0.9361,-0.9215,-0.8837,-0.8521,-0.8306,-0.8134,-0.7975,-0.7975,-0.7975,-0.7975,-0.7978,-0.7922,-0.8137,-0.8508,-0.8554,-0.861,-0.861,-0.861,-0.8606,-0.861,-0.856,-0.8745,-0.9246,-0.8656,-0.796,-0.7113,-0.752,-0.7877,-0.7931,-0.7931,-0.7771,-0.7503,-0.7453,-0.7348,-0.6972,-0.692,-0.6758,-0.6547,-0.6487,-0.6487,-0.6487,-0.6327,-0.622,-0.6057,-0.6057,-0.6109,-0.6445,-0.5907,-0.5763,-0.6598,-0.6471,-0.6264,-0.619,-0.6555,-0.6947,-0.6966,-0.7055,-0.747,-0.7628,-0.7376,-0.748,-1.391,-1.3721,-1.3372,-1.3218,-1.3165,-1.2953,-1.2957,-1.303,-1.2934,-1.2749,-1.2524,-1.222,-1.176,-1.1276,-1.0871,-1.0926,-1.1124,-1.1074,-1.1129,-1.1331,-1.1578,-1.1673,-1.1619,-1.1673,-1.1528,-1.1217,-1.1023,-1.0773,-1.0518,-1.0522,-1.0522,-1.0522,-1.0522,-1.0522,-1.0522,-1.0522,-1.0522,-1.0522,-1.0522,-1.0522,-1.0522,-1.0522,-1.0522,-1.0522,-1.0522,-1.0462,-1.03,-1.0304,-1.0095,-0.9662,-0.9662,-0.9462,-0.9047,-0.9054,-0.8945,-0.8623,-0.8359,-0.8093,-0.7934,-0.761,-0.745,-0.745,-0.745,-0.7447,-0.745,-0.7453,-0.745,-0.745,-0.745,-0.7501,-0.7874,-0.7931,-0.7931,-0.7931,-0.7931,-0.8287,-0.8781,-0.8136,-0.7315,-0.6464,-0.6883,-0.745,-0.7453,-0.7399,-0.7187,-0.6923,-0.6817,-0.6766,-0.6337,-0.623,-0.6173,-0.6003,-0.59,-0.5791,-0.5736,-0.5679,-0.546,-0.5352,-0.5407,-0.5546,-0.5815,-0.5195,-0.4817,-0.5677,-0.5899,-0.5849,-0.5543,-0.5738,-0.6248,-0.6087,-0.6125,-0.642,-0.6842,-0.6751,-0.6783,-1.4145,-1.3763,-1.3362,-1.317,-1.3165,-1.2473,-1.2355,-1.2725,-1.2372,-1.217,-1.2121,-1.1873,-1.1573,-1.1326,-1.1226,-1.1116,-1.0972,-1.112,-1.1226,-1.1276,-1.1523,-1.1578,-1.1326,-1.1569,-1.1418,-1.0972,-1.0875,-1.0722,-1.0522,-1.0522,-1.0522,-1.0522,-1.0522,-1.0522,-1.0522,-1.0522,-1.0522,-1.0522,-1.0522,-1.0466,-1.0466,-1.0466,-1.0466,-1.0415,-1.047,-1.0257,-0.9873,-0.9817,-0.961,-0.9263,-0.9211,-0.905,-0.8676,-0.8626,-0.8203,-0.7402,-0.7187,-0.6923,-0.65,-0.6393,-0.6391,-0.6337,-0.6391,-0.6334,-0.6443,-0.6445,-0.6443,-0.6337,-0.644,-0.6812,-0.7608,-0.7664,-0.7771,-0.7768,-0.7818,-0.7729,-0.7541,-0.7371,-0.6871,-0.6376,-0.6327,-0.6495,-0.6389,-0.6284,-0.6391,-0.6337,-0.6284,-0.623,-0.623,-0.6175,-0.6116,-0.6007,-0.5845,-0.5734,-0.5624,-0.5517,-0.5354,-0.5301,-0.5287,-0.5253,-0.5115,-0.494,-0.4833,-0.4716,-0.4763,-0.4818,-0.4707,-0.5043,-0.5605,-0.5664,-0.5521,-0.572,-0.6067,-0.5519,-0.5619,-1.3099,-1.2706,-1.2554,-1.2501,-1.2456,-1.2183,-1.2206,-1.2283,-1.2175,-1.2076,-1.2076,-1.1972,-1.1728,-1.1272,-1.1272,-1.107,-1.0663,-1.0769,-1.0769,-1.0828,-1.107,-1.1124,-1.1074,-1.1179,-1.112,-1.0922,-1.0718,-1.0565,-1.0518,-1.0522,-1.0522,-1.0522,-1.0522,-1.0522,-1.0522,-1.0522,-1.0522,-1.0518,-1.0522,-1.036,-1.0087,-1.0035,-0.9932,-0.9688,-0.9936,-0.988,-0.9409,-0.9409,-0.9256,-0.8837,-0.8837,-0.8629,-0.8212,-0.7996,-0.778,-0.7354,-0.7028,-0.6761,-0.6544,-0.6339,-0.6175,-0.6175,-0.6175,-0.6175,-0.6175,-0.6175,-0.6175,-0.6175,-0.6175,-0.6443,-0.6657,-0.6817,-0.6815,-0.6815,-0.6815,-0.682,-0.6665,-0.6554,-0.644,-0.6228,-0.6175,-0.6175,-0.6175,-0.6175,-0.6175,-0.6175,-0.6175,-0.6175,-0.6175,-0.6119,-0.6059,-0.5898,-0.5736,-0.5626,-0.5407,-0.5354,-0.5301,-0.5301,-0.5291,-0.5279,-0.5156,-0.4846,-0.4722,-0.4722,-0.4463,-0.4355,-0.4505,-0.4552,-0.5097,-0.5033,-0.4855,-0.5089,-0.5294,-0.5055,-0.5195,-1.252,-1.2274,-1.217,-1.2076,-1.2076,-1.2076,-1.2076,-1.2076,-1.2076,-1.2076,-1.2076,-1.2076,-1.1877,-1.1473,-1.1318,-1.1074,-1.0616,-1.0569,-1.0522,-1.0518,-1.0875,-1.0968,-1.0922,-1.0972,-1.0972,-1.0871,-1.062,-1.0522,-1.0522,-1.0522,-1.0522,-1.0522,-1.0522,-1.0522,-1.0466,-1.0356,-1.0253,-1.0253,-1.015,-0.9888,-0.9618,-0.9614,-0.9406,-0.9103,-0.9249,-0.9298,-0.905,-0.8998,-0.8844,-0.8474,-0.8371,-0.8265,-0.7898,-0.7625,-0.7467,-0.7354,-0.6977,-0.6652,-0.6544,-0.6334,-0.6175,-0.6175,-0.6175,-0.6175,-0.6175,-0.6175,-0.6175,-0.6175,-0.6175,-0.6175,-0.6175,-0.623,-0.6175,-0.6175,-0.6175,-0.6175,-0.6175,-0.623,-0.623,-0.623,-0.6175,-0.6175,-0.6175,-0.6175,-0.6175,-0.6175,-0.6175,-0.6175,-0.6175,-0.6116,-0.6003,-0.59,-0.5791,-0.5624,-0.546,-0.5352,-0.5299,-0.5244,-0.524,-0.5234,-0.5011,-0.4762,-0.453,-0.459,-0.4544,-0.4361,-0.432,-0.432,-0.432,-0.432,-0.4431,-0.4635,-0.4736,-0.4808,-0.4923,-1.2676,-1.2573,-1.2283,-1.2076,-1.2076,-1.2076,-1.2076,-1.2076,-1.2076,-1.2076,-1.2076,-1.2076,-1.1927,-1.1678,-1.1427,-1.112,-1.0871,-1.0624,-1.0522,-1.0518,-1.1027,-1.1078,-1.0871,-1.112,-1.1074,-1.0867,-1.0624,-1.0522,-1.0522,-1.0518,-1.0466,-1.0466,-1.0415,-1.0364,-1.0466,-0.9984,-0.9817,-0.9766,-0.9465,-0.926,-0.9208,-0.9208,-0.9001,-0.8629,-0.8626,-0.8629,-0.8577,-0.8573,-0.8421,-0.8005,-0.7955,-0.7904,-0.7848,-0.7625,-0.741,-0.7139,-0.6866,-0.6544,-0.6282,-0.6232,-0.6175,-0.6175,-0.6175,-0.6175,-0.6175,-0.6175,-0.6175,-0.6175,-0.6175,-0.6175,-0.6175,-0.6175,-0.6175,-0.6175,-0.6175,-0.6175,-0.6175,-0.6175,-0.6175,-0.6175,-0.6175,-0.6175,-0.6175,-0.6175,-0.6175,-0.6175,-0.6175,-0.6175,-0.6121,-0.6062,-0.6059,-0.5896,-0.5567,-0.5236,-0.5348,-0.5405,-0.5295,-0.5185,-0.5126,-0.5107,-0.4727,-0.4417,-0.4159,-0.4157,-0.4184,-0.4066,-0.432,-0.432,-0.432,-0.432,-0.4318,-0.4316,-0.4403,-0.4491,-0.4449,-1.2278,-1.2278,-1.217,-1.2076,-1.2076,-1.2076,-1.2076,-1.2076,-1.2076,-1.2076,-1.2076,-1.2076,-1.1923,-1.1673,-1.1423,-1.1171,-1.0871,-1.0624,-1.0522,-1.0565,-1.0867,-1.0922,-1.0777,-1.0918,-1.0871,-1.0616,-1.0522,-1.0522,-1.0466,-1.0466,-1.0356,-1.0087,-1.0035,-0.9884,-0.9629,-0.9469,-0.9361,-0.9361,-0.926,-0.9106,-0.8837,-0.8781,-0.8577,-0.8165,-0.8109,-0.8109,-0.8112,-0.8109,-0.8055,-0.7904,-0.7904,-0.7904,-0.7848,-0.7464,-0.7195,-0.7085,-0.6606,-0.6337,-0.6228,-0.6175,-0.6175,-0.6175,-0.6175,-0.6175,-0.6175,-0.6175,-0.6175,-0.6175,-0.6175,-0.6175,-0.6175,-0.6175,-0.6175,-0.6175,-0.6175,-0.6175,-0.6175,-0.6175,-0.6175,-0.6175,-0.6175,-0.6175,-0.6175,-0.6173,-0.6119,-0.6119,-0.6119,-0.6066,-0.5843,-0.5675,-0.5454,-0.5183,-0.4906,-0.4739,-0.4739,-0.468,-0.446,-0.4441,-0.4541,-0.4616,-0.4306,-0.4026,-0.3838,-0.3752,-0.3786,-0.3891,-0.4146,-0.4232,-0.4186,-0.423,-0.4228,-0.4228,-0.4276,-0.4232,-0.4144,-1.2076,-1.2076,-1.2076,-1.2076,-1.2076,-1.2076,-1.2076,-1.2076,-1.2076,-1.2076,-1.2076,-1.2076,-1.2026,-1.1773,-1.1473,-1.1221,-1.1023,-1.0671,-1.0522,-1.0569,-1.0871,-1.0968,-1.0926,-1.1019,-1.0824,-1.0573,-1.0522,-1.0415,-1.0249,-1.019,-1.0032,-0.9669,-0.9566,-0.9462,-0.9204,-0.9054,-0.8945,-0.8949,-0.8791,-0.858,-0.8418,-0.8315,-0.8212,-0.7955,-0.7904,-0.7904,-0.7904,-0.7904,-0.7904,-0.7901,-0.7794,-0.7735,-0.7684,-0.7246,-0.6918,-0.6866,-0.6495,-0.6175,-0.6175,-0.6175,-0.6175,-0.6175,-0.6175,-0.6175,-0.6175,-0.6175,-0.6175,-0.6175,-0.6175,-0.6175,-0.6175,-0.6175,-0.6119,-0.5957,-0.6121,-0.6175,-0.6175,-0.6175,-0.6119,-0.6009,-0.5955,-0.59,-0.5786,-0.5729,-0.5729,-0.5729,-0.5732,-0.5677,-0.5397,-0.523,-0.4958,-0.4739,-0.4515,-0.4349,-0.4128,-0.3906,-0.3572,-0.3656,-0.3792,-0.3849,-0.3812,-0.3572,-0.3371,-0.345,-0.3546,-0.3575,-0.3741,-0.3919,-0.3919,-0.4007,-0.3961,-0.3873,-0.3785,-0.3834,-0.379,-1.2076,-1.2076,-1.2076,-1.2076,-1.2076,-1.2076,-1.2076,-1.2076,-1.2076,-1.2076,-1.2076,-1.2076,-1.2076,-1.1977,-1.1523,-1.1272,-1.1171,-1.0722,-1.0462,-1.0561,-1.0913,-1.1167,-1.1309,-1.1112,-1.071,-1.036,-1.0312,-1.015,-0.9769,-0.9766,-0.9562,-0.9208,-0.9155,-0.9106,-0.8949,-0.8732,-0.858,-0.8468,-0.8159,-0.7949,-0.7955,-0.7952,-0.7952,-0.7904,-0.7904,-0.7904,-0.7904,-0.7904,-0.7904,-0.7845,-0.7684,-0.7518,-0.741,-0.7028,-0.6756,-0.6704,-0.6391,-0.623,-0.6175,-0.6175,-0.6175,-0.6175,-0.6175,-0.6175,-0.6175,-0.6175,-0.6178,-0.6121,-0.6121,-0.6119,-0.6064,-0.6007,-0.5896,-0.5675,-0.5959,-0.6126,-0.6119,-0.6064,-0.5841,-0.562,-0.551,-0.5401,-0.5066,-0.5011,-0.5011,-0.5011,-0.5066,-0.5011,-0.4899,-0.4842,-0.4842,-0.4568,-0.4128,-0.385,-0.363,-0.3296,-0.3014,-0.2825,-0.2938,-0.3014,-0.306,-0.2911,-0.2881,-0.3014,-0.3138,-0.3214,-0.3341,-0.3475,-0.3475,-0.3341,-0.3295,-0.3251,-0.3296,-0.3388,-0.3341,-1.2076,-1.2076,-1.2076,-1.2076,-1.2076,-1.2076,-1.2076,-1.2076,-1.2076,-1.2076,-1.2076,-1.2076,-1.2076,-1.2026,-1.1523,-1.1272,-1.112,-1.0722,-1.0399,-1.0336,-1.0379,-1.0626,-1.0728,-1.0431,-0.998,-0.9629,-0.9629,-0.9472,-0.9361,-0.9357,-0.9152,-0.8784,-0.8735,-0.858,-0.8268,-0.8162,-0.8109,-0.8052,-0.8005,-0.7904,-0.7904,-0.7904,-0.7904,-0.7904,-0.7904,-0.7904,-0.7904,-0.7904,-0.7904,-0.7901,-0.7628,-0.7521,-0.741,-0.6977,-0.6652,-0.6652,-0.6386,-0.6175,-0.6175,-0.6175,-0.6175,-0.6175,-0.6175,-0.6175,-0.6175,-0.6175,-0.6066,-0.5843,-0.5732,-0.5618,-0.5342,-0.5287,-0.5177,-0.5232,-0.5637,-0.5863,-0.5458,-0.5232,-0.5173,-0.5066,-0.5067,-0.5011,-0.4901,-0.4846,-0.4846,-0.4846,-0.4791,-0.4734,-0.4512,-0.4401,-0.4401,-0.3965,-0.358,-0.3299,-0.302,-0.2741,-0.2455,-0.2105,-0.2044,-0.2046,-0.2042,-0.1961,-0.2077,-0.228,-0.2417,-0.25,-0.2808,-0.3074,-0.2897,-0.272,-0.2853,-0.2896,-0.2893,-0.2981,-0.2889,-1.2076,-1.2076,-1.2076,-1.2076,-1.2076,-1.2076,-1.2076,-1.2076,-1.2076,-1.2076,-1.2022,-1.1877,-1.1778,-1.1678,-1.1002,-1.0698,-1.0596,-1.0146,-0.988,-0.9769,-0.9766,-0.9913,-1.0068,-0.9817,-0.951,-0.9204,-0.9208,-0.9106,-0.8998,-0.8942,-0.8738,-0.8368,-0.8315,-0.8159,-0.7955,-0.7904,-0.7904,-0.7901,-0.7904,-0.7904,-0.7904,-0.7904,-0.7904,-0.7904,-0.7904,-0.7904,-0.7901,-0.7791,-0.7741,-0.7687,-0.7467,-0.73,-0.7141,-0.6763,-0.649,-0.6492,-0.6282,-0.6175,-0.6175,-0.6175,-0.6175,-0.6175,-0.6066,-0.5955,-0.59,-0.5786,-0.551,-0.534,-0.5289,-0.5175,-0.4954,-0.4732,-0.462,-0.4624,-0.4917,-0.5087,-0.4846,-0.4613,-0.45,-0.4506,-0.4622,-0.4513,-0.4408,-0.4353,-0.4353,-0.4353,-0.4244,-0.4132,-0.4019,-0.3962,-0.3907,-0.3635,-0.3303,-0.3134,-0.289,-0.255,-0.2245,-0.1904,-0.1674,-0.1591,-0.149,-0.1486,-0.1689,-0.1922,-0.1878,-0.1923,-0.2322,-0.2498,-0.2365,-0.232,-0.2454,-0.2435,-0.2377,-0.2474,-0.2385,-1.2076,-1.2076,-1.2076,-1.2076,-1.2076,-1.2076,-1.2076,-1.2076,-1.2076,-1.2076,-1.2026,-1.1628,-1.1528,-1.1322,-1.074,-1.0024,-0.9969,-0.9669,-0.9309,-0.9204,-0.9152,-0.9197,-0.9302,-0.9402,-0.9201,-0.8945,-0.9054,-0.8844,-0.858,-0.8521,-0.8312,-0.8055,-0.7955,-0.7901,-0.7904,-0.7904,-0.7904,-0.7904,-0.7904,-0.7904,-0.7904,-0.7904,-0.7904,-0.7904,-0.7904,-0.7845,-0.7791,-0.7631,-0.7518,-0.741,-0.7195,-0.6974,-0.6707,-0.6391,-0.623,-0.6228,-0.6232,-0.6175,-0.6175,-0.6121,-0.6121,-0.6009,-0.5732,-0.5563,-0.5454,-0.5232,-0.5009,-0.4842,-0.4842,-0.4787,-0.4624,-0.4346,-0.4181,-0.4127,-0.3859,-0.4079,-0.4403,-0.4055,-0.372,-0.4065,-0.4124,-0.3962,-0.3748,-0.3585,-0.3641,-0.397,-0.3916,-0.3859,-0.3748,-0.3748,-0.3748,-0.364,-0.336,-0.3023,-0.2716,-0.2414,-0.2101,-0.1747,-0.1612,-0.1489,-0.1442,-0.1495,-0.1621,-0.1744,-0.1656,-0.1701,-0.1877,-0.1922,-0.1833,-0.1821,-0.1945,-0.1741,-0.159,-0.1826,-0.1877,-1.2076,-1.2076,-1.2076,-1.2076,-1.2076,-1.2076,-1.2076,-1.2076,-1.2076,-1.2076,-1.2076,-1.1927,-1.1882,-1.1823,-1.1103,-1.0795,-1.0265,-0.9762,-0.9354,-0.8732,-0.8498,-0.8349,-0.8415,-0.8682,-0.8577,-0.8321,-0.8218,-0.8165,-0.8112,-0.8112,-0.8005,-0.7955,-0.7904,-0.7904,-0.7904,-0.7904,-0.7904,-0.7904,-0.7904,-0.7904,-0.7904,-0.7904,-0.7904,-0.7904,-0.7904,-0.7791,-0.7628,-0.7521,-0.73,-0.6974,-0.681,-0.6761,-0.6598,-0.6337,-0.623,-0.6175,-0.6175,-0.6175,-0.6121,-0.59,-0.5736,-0.5677,-0.5344,-0.5066,-0.5066,-0.4958,-0.4679,-0.4455,-0.4345,-0.4236,-0.4022,-0.3802,-0.3802,-0.3747,-0.3692,-0.3694,-0.3803,-0.3744,-0.3688,-0.3745,-0.3747,-0.3691,-0.3638,-0.3585,-0.3585,-0.3585,-0.3585,-0.3585,-0.3585,-0.3585,-0.353,-0.3528,-0.3303,-0.2964,-0.2609,-0.2281,-0.1936,-0.1682,-0.1552,-0.1456,-0.1408,-0.1389,-0.1567,-0.1522,-0.1478,-0.1567,-0.1701,-0.1611,-0.1567,-0.1506,-0.1448,-0.1433,-0.1424,-0.1472,-0.1426,-1.2076,-1.2076,-1.2076,-1.2076,-1.2076,-1.2076,-1.2076,-1.2076,-1.2076,-1.2076,-1.2026,-1.1873,-1.1732,-1.1678,-1.0956,-1.0332,-0.9865,-0.9246,-0.8732,-0.8368,-0.82,-0.8043,-0.8052,-0.8162,-0.8106,-0.7901,-0.7904,-0.7904,-0.7904,-0.7904,-0.7901,-0.7904,-0.7904,-0.7904,-0.7904,-0.7904,-0.7904,-0.7904,-0.7904,-0.7904,-0.7904,-0.7904,-0.7904,-0.7904,-0.7901,-0.7788,-0.7521,-0.7354,-0.7082,-0.6758,-0.6544,-0.6495,-0.644,-0.6284,-0.623,-0.6175,-0.6009,-0.5952,-0.5841,-0.551,-0.5285,-0.5287,-0.4844,-0.462,-0.4512,-0.4405,-0.4189,-0.3965,-0.391,-0.3801,-0.3641,-0.3585,-0.3585,-0.3585,-0.3585,-0.3585,-0.3585,-0.3585,-0.3585,-0.3585,-0.3641,-0.3641,-0.3585,-0.3585,-0.3585,-0.3585,-0.3585,-0.3585,-0.3585,-0.3585,-0.3471,-0.3359,-0.3245,-0.2959,-0.2497,-0.2152,-0.1777,-0.1614,-0.1493,-0.142,-0.1396,-0.1389,-0.1434,-0.1389,-0.1389,-0.1389,-0.1478,-0.1389,-0.1389,-0.1426,-0.1414,-0.1355,-0.1347,-0.1435,-0.1339,-1.2076,-1.2076,-1.2076,-1.2076,-1.2076,-1.2076,-1.2076,-1.2076,-1.2076,-1.2031,-1.1923,-1.1477,-1.1322,-1.1006,-1.0285,-0.9614,-0.9044,-0.8458,-0.8084,-0.8212,-0.804,-0.799,-0.8052,-0.8005,-0.7952,-0.7904,-0.7904,-0.7904,-0.7904,-0.7904,-0.7904,-0.7904,-0.7904,-0.7904,-0.7904,-0.7904,-0.7904,-0.7904,-0.7904,-0.7904,-0.7904,-0.7904,-0.7904,-0.7904,-0.7791,-0.7681,-0.741,-0.7192,-0.6864,-0.6539,-0.6277,-0.6116,-0.6007,-0.6119,-0.6119,-0.6064,-0.5732,-0.551,-0.5399,-0.5067,-0.4789,-0.4787,-0.4403,-0.4127,-0.4016,-0.391,-0.3749,-0.3695,-0.364,-0.364,-0.3585,-0.3585,-0.3585,-0.3585,-0.3585,-0.3585,-0.3585,-0.3585,-0.3585,-0.3585,-0.3585,-0.3585,-0.3585,-0.3585,-0.3585,-0.3585,-0.3585,-0.3585,-0.3585,-0.3473,-0.3303,-0.3079,-0.2911,-0.2632,-0.223,-0.1976,-0.1611,-0.1551,-0.1426,-0.1397,-0.1389,-0.1389,-0.1389,-0.1389,-0.1389,-0.1389,-0.1389,-0.1389,-0.1389,-0.1387,-0.137,-0.1345,-0.1344,-0.1352,-0.1257,-1.2076,-1.2076,-1.2076,-1.2076,-1.2076,-1.2076,-1.2071,-1.2076,-1.2022,-1.1828,-1.1418,-1.1322,-1.1002,-1.0529,-1.0068,-0.9451,-0.8873,-0.8274,-0.8013,-0.8093,-0.7975,-0.7969,-0.7952,-0.7955,-0.7904,-0.7904,-0.7904,-0.7904,-0.7904,-0.7904,-0.7904,-0.7904,-0.7904,-0.7904,-0.7904,-0.7904,-0.7904,-0.7904,-0.7904,-0.7904,-0.7904,-0.7904,-0.7904,-0.7904,-0.7738,-0.7461,-0.719,-0.692,-0.6485,-0.5834,-0.5734,-0.551,-0.5342,-0.551,-0.562,-0.5563,-0.5287,-0.5011,-0.4956,-0.4568,-0.4346,-0.4236,-0.3962,-0.3747,-0.3694,-0.3638,-0.3585,-0.3585,-0.3585,-0.3585,-0.3585,-0.3585,-0.3585,-0.3585,-0.3585,-0.3585,-0.3585,-0.3585,-0.3585,-0.3585,-0.3585,-0.3585,-0.3585,-0.3585,-0.3585,-0.3585,-0.3585,-0.3471,-0.3302,-0.319,-0.3079,-0.2799,-0.252,-0.2243,-0.1906,-0.1697,-0.1505,-0.147,-0.1409,-0.1352,-0.1389,-0.1389,-0.1389,-0.1389,-0.1389,-0.1389,-0.1389,-0.1389,-0.1389,-0.1389,-0.1362,-0.1334,-0.135,-0.1365,-0.1316,-1.2076,-1.2076,-1.2076,-1.2076,-1.2022,-1.1778,-1.1673,-1.1619,-1.1355,-1.1091,-1.0889,-1.0842,-1.0681,-1.0364,-1.006,-0.9499,-0.8817,-0.828,-0.8081,-0.8046,-0.7928,-0.7928,-0.7904,-0.7904,-0.7904,-0.7904,-0.7904,-0.7904,-0.7904,-0.7904,-0.7904,-0.7904,-0.7904,-0.7904,-0.7904,-0.7904,-0.7904,-0.7904,-0.7904,-0.7904,-0.7904,-0.7904,-0.7904,-0.7848,-0.7631,-0.7354,-0.7031,-0.6542,-0.6107,-0.5673,-0.5346,-0.512,-0.4956,-0.4901,-0.5009,-0.5064,-0.4787,-0.4567,-0.4458,-0.4127,-0.391,-0.3855,-0.3692,-0.364,-0.3585,-0.3585,-0.3585,-0.3585,-0.3585,-0.3585,-0.3585,-0.3585,-0.3585,-0.3585,-0.3585,-0.3585,-0.3585,-0.3585,-0.3585,-0.3585,-0.3585,-0.3585,-0.3585,-0.3585,-0.3585,-0.3585,-0.3585,-0.3359,-0.3077,-0.2852,-0.2629,-0.2183,-0.179,-0.1553,-0.1378,-0.1315,-0.13,-0.1317,-0.1374,-0.132,-0.1344,-0.1389,-0.1389,-0.1389,-0.1389,-0.1389,-0.1389,-0.1389,-0.1389,-0.1389,-0.1374,-0.1363,-0.1371,-0.1376,-0.1327,-1.2076,-1.2076,-1.2076,-1.2076,-1.2026,-1.1523,-1.12,-1.0973,-1.0618,-1.0419,-1.0265,-1.021,-1.0159,-1.0005,-0.9751,-0.9291,-0.8676,-0.8315,-0.8162,-0.8058,-0.7952,-0.7904,-0.7904,-0.7904,-0.7904,-0.7904,-0.7904,-0.7904,-0.7904,-0.7904,-0.7904,-0.7904,-0.7904,-0.7904,-0.7904,-0.7904,-0.7904,-0.7904,-0.7904,-0.7904,-0.7904,-0.7904,-0.7848,-0.7735,-0.7467,-0.7133,-0.6761,-0.6105,-0.5616,-0.523,-0.4952,-0.4677,-0.4568,-0.4291,-0.4291,-0.4513,-0.4291,-0.4125,-0.4016,-0.3855,-0.3695,-0.364,-0.3641,-0.3585,-0.3585,-0.3585,-0.3585,-0.3585,-0.3585,-0.3585,-0.3585,-0.3585,-0.3585,-0.3585,-0.3585,-0.3585,-0.3585,-0.3585,-0.3585,-0.3585,-0.3585,-0.3585,-0.3528,-0.3585,-0.3585,-0.336,-0.3304,-0.2911,-0.2629,-0.2291,-0.2011,-0.1399,-0.1003,-0.0769,-0.0701,-0.0835,-0.0947,-0.1109,-0.1216,-0.1307,-0.1344,-0.1389,-0.1389,-0.1389,-0.1389,-0.1389,-0.1389,-0.1389,-0.1389,-0.1389,-0.1389,-0.1388,-0.1385,-0.1384,-0.1382,-1.2076,-1.2076,-1.2076,-1.2076,-1.2026,-1.1528,-1.083,-1.0175,-1.0379,-1.0115,-0.9814,-0.9714,-0.9451,-0.9037,-0.8886,-0.8679,-0.8474,-0.8374,-0.8271,-0.8162,-0.8008,-0.7904,-0.7904,-0.7904,-0.7904,-0.7904,-0.7904,-0.7904,-0.7904,-0.7904,-0.7904,-0.7904,-0.7904,-0.7904,-0.7904,-0.7904,-0.7904,-0.7904,-0.7904,-0.7904,-0.7904,-0.7848,-0.7735,-0.7405,-0.691,-0.6423,-0.6105,-0.5502,-0.4899,-0.451,-0.4343,-0.4127,-0.3802,-0.3748,-0.3692,-0.3748,-0.3694,-0.3638,-0.3692,-0.364,-0.3585,-0.3585,-0.3585,-0.3585,-0.3585,-0.3585,-0.3585,-0.3585,-0.3585,-0.3585,-0.3585,-0.3585,-0.3585,-0.3585,-0.3585,-0.3585,-0.3585,-0.3585,-0.3585,-0.3585,-0.3585,-0.3473,-0.3416,-0.3528,-0.3585,-0.3249,-0.2967,-0.2517,-0.2125,-0.1788,-0.1397,-0.0784,-0.0502,-0.0275,-0.0054,-0.0207,-0.0547,-0.0766,-0.0925,-0.1121,-0.1254,-0.1299,-0.1344,-0.1344,-0.1389,-0.1389,-0.1389,-0.1389,-0.1389,-0.1389,-0.1389,-0.1389,-0.1389,-0.1389,-0.1389,-1.2076,-1.2076,-1.2076,-1.2076,-1.2026,-1.1523,-1.1019,-1.0604,-1.0442,-1.0265,-1.0016,-0.9714,-0.9256,-0.8791,-0.8633,-0.8521,-0.8427,-0.8325,-0.8218,-0.8162,-0.7955,-0.7904,-0.7904,-0.7904,-0.7904,-0.7904,-0.7904,-0.7904,-0.7904,-0.7904,-0.7904,-0.7904,-0.7904,-0.7904,-0.7904,-0.7904,-0.7904,-0.7904,-0.7904,-0.7904,-0.7791,-0.7512,-0.7289,-0.713,-0.6253,-0.5823,-0.5445,-0.4897,-0.4455,-0.4179,-0.4016,-0.3802,-0.364,-0.3585,-0.3585,-0.3585,-0.3641,-0.3585,-0.3585,-0.3585,-0.3585,-0.3585,-0.3585,-0.3585,-0.3585,-0.3585,-0.3585,-0.3585,-0.3585,-0.3585,-0.3585,-0.3585,-0.3585,-0.3585,-0.3585,-0.3585,-0.3585,-0.3585,-0.3585,-0.3585,-0.353,-0.3304,-0.3025,-0.2912,-0.2688,-0.2182,-0.1901,-0.1509,-0.1286,-0.1063,-0.0616,-0.0168,-0.0,0.0055,0.0321,0.0361,-0.005,-0.0335,-0.0415,-0.063,-0.1031,-0.1164,-0.1164,-0.121,-0.1254,-0.1299,-0.1344,-0.1389,-0.1389,-0.1389,-0.1389,-0.1389,-0.1389,-0.1389,-0.1389,-1.2026,-1.1923,-1.2026,-1.2076,-1.2026,-1.1528,-1.1272,-1.1221,-1.0474,-1.0218,-1.0068,-0.961,-0.9099,-0.8794,-0.8633,-0.8521,-0.8318,-0.8271,-0.8112,-0.8008,-0.7901,-0.7904,-0.7904,-0.7904,-0.7904,-0.7904,-0.7904,-0.7904,-0.7904,-0.7904,-0.7904,-0.7904,-0.7904,-0.7904,-0.7904,-0.7904,-0.7904,-0.7904,-0.7904,-0.7848,-0.7684,-0.7184,-0.691,-0.6421,-0.5767,-0.5113,-0.4948,-0.4457,-0.4072,-0.3964,-0.3802,-0.3641,-0.3585,-0.3585,-0.3585,-0.3585,-0.3585,-0.3585,-0.3585,-0.3585,-0.3585,-0.3585,-0.3585,-0.3585,-0.3585,-0.3585,-0.3585,-0.3585,-0.3585,-0.3585,-0.3585,-0.3585,-0.3585,-0.3585,-0.3585,-0.3585,-0.3531,-0.3364,-0.3422,-0.3592,-0.3366,-0.2748,-0.2522,-0.2242,-0.1792,-0.1175,-0.0783,-0.0559,-0.0391,-0.0336,-0.0056,0.0336,0.0336,0.0386,0.0527,0.0611,0.0295,0.0048,-0.0046,-0.0225,-0.0673,-0.0806,-0.0761,-0.0895,-0.103,-0.0985,-0.094,-0.1164,-0.1389,-0.1389,-0.1389,-0.1389,-0.1389,-0.1389,-0.1389,-1.1832,-1.1372,-1.1882,-1.2076,-1.2081,-1.1528,-1.158,-1.1657,-1.0308,-0.9766,-0.9658,-0.904,-0.8732,-0.8527,-0.8527,-0.8474,-0.8215,-0.8203,-0.8156,-0.8112,-0.8005,-0.7904,-0.7904,-0.7904,-0.7904,-0.7904,-0.7904,-0.7904,-0.7904,-0.7904,-0.7904,-0.7904,-0.7904,-0.7904,-0.7904,-0.7904,-0.7904,-0.7904,-0.7848,-0.7681,-0.7408,-0.6969,-0.6532,-0.5937,-0.5222,-0.4617,-0.4289,-0.391,-0.3692,-0.3692,-0.364,-0.3585,-0.3585,-0.3585,-0.3585,-0.3585,-0.3585,-0.3585,-0.3585,-0.3585,-0.3585,-0.3585,-0.3585,-0.3585,-0.3585,-0.3585,-0.3585,-0.3585,-0.3585,-0.3585,-0.3585,-0.3585,-0.3585,-0.3585,-0.353,-0.3361,-0.3195,-0.2921,-0.3035,-0.343,-0.309,-0.23,-0.1457,-0.1064,-0.1008,-0.0448,-0.0056,0.0224,0.028,0.0392,0.0504,0.0729,0.0729,0.0711,0.0723,0.06,0.0394,0.019,0.0046,-0.0135,-0.0403,-0.0403,-0.0269,-0.0448,-0.0582,-0.0537,-0.0582,-0.0851,-0.112,-0.1299,-0.1389,-0.1299,-0.1344,-0.1389,-0.1389,-1.1769,-1.1326,-1.1528,-1.1813,-1.2072,-1.1499,-1.1204,-1.0977,-1.0368,-0.9917,-0.9558,-0.9298,-0.8935,-0.8626,-0.8474,-0.8424,-0.8268,-0.8052,-0.8106,-0.8109,-0.8005,-0.7901,-0.7904,-0.7904,-0.7904,-0.7904,-0.7904,-0.7904,-0.7904,-0.7904,-0.7904,-0.7904,-0.7904,-0.7904,-0.7904,-0.7904,-0.7901,-0.7794,-0.7574,-0.7297,-0.6966,-0.6098,-0.5496,-0.5167,-0.446,-0.4019,-0.3801,-0.3692,-0.364,-0.3585,-0.3585,-0.3585,-0.3585,-0.3585,-0.3585,-0.3585,-0.3585,-0.3585,-0.3585,-0.3585,-0.3585,-0.3585,-0.3585,-0.3585,-0.3585,-0.3585,-0.3585,-0.3585,-0.3585,-0.3585,-0.3585,-0.3585,-0.3585,-0.3585,-0.3474,-0.325,-0.2634,-0.2245,-0.2022,-0.2132,-0.1963,-0.1458,-0.056,0.028,0.028,0.028,0.0617,0.0897,0.0841,0.0783,0.0783,0.0783,0.0782,0.0823,0.078,0.0658,0.0494,0.0333,0.0137,0.0045,-0.0,0.0224,0.0314,0.009,-0.0179,-0.0269,-0.0403,-0.0627,-0.0806,-0.0895,-0.103,-0.1164,-0.1254,-0.1344,-0.1299,-1.1773,-1.1322,-1.1469,-1.1753,-1.1998,-1.131,-1.062,-1.0039,-1.0069,-0.9869,-0.9357,-0.9361,-0.9099,-0.8682,-0.8583,-0.8427,-0.8321,-0.8162,-0.8115,-0.8062,-0.7952,-0.7901,-0.7904,-0.7904,-0.7904,-0.7904,-0.7904,-0.7904,-0.7904,-0.7904,-0.7904,-0.7904,-0.7904,-0.7904,-0.7904,-0.7904,-0.7848,-0.7574,-0.7354,-0.6807,-0.6426,-0.5553,-0.4785,-0.4563,-0.3964,-0.3694,-0.364,-0.3585,-0.3585,-0.3585,-0.3585,-0.3585,-0.3585,-0.3585,-0.3585,-0.3585,-0.3585,-0.3585,-0.3585,-0.3585,-0.3585,-0.3585,-0.3585,-0.3585,-0.3585,-0.3585,-0.3585,-0.3585,-0.3585,-0.3585,-0.3585,-0.3585,-0.3585,-0.3587,-0.3598,-0.326,-0.1848,-0.1121,-0.0841,-0.0729,-0.0505,-0.0393,-0.0112,0.0673,0.0617,0.0561,0.0729,0.0897,0.0897,0.0838,0.0778,0.0723,0.0723,0.076,0.079,0.0715,0.0643,0.0574,0.0461,0.0452,0.0494,0.0675,0.0675,0.0449,0.0179,-0.0,-0.0045,-0.0045,-0.0224,-0.0447,-0.0627,-0.0806,-0.0851,-0.0895,-0.094,-1.1773,-1.1368,-1.1828,-1.2036,-1.184,-1.0908,-0.987,-0.9118,-0.939,-0.9364,-0.8906,-0.8854,-0.8794,-0.8633,-0.8639,-0.8537,-0.8321,-0.8265,-0.8215,-0.8005,-0.7952,-0.7901,-0.7904,-0.7904,-0.7904,-0.7904,-0.7904,-0.7904,-0.7904,-0.7904,-0.7904,-0.7904,-0.7904,-0.7904,-0.7904,-0.7901,-0.7628,-0.719,-0.7082,-0.6428,-0.5775,-0.5064,-0.4567,-0.4182,-0.3799,-0.3584,-0.3585,-0.3585,-0.3585,-0.3585,-0.3585,-0.3585,-0.3585,-0.3585,-0.3585,-0.3585,-0.3585,-0.3585,-0.3585,-0.3585,-0.3585,-0.3585,-0.3585,-0.3585,-0.3585,-0.3585,-0.3585,-0.3585,-0.3585,-0.3585,-0.3585,-0.3585,-0.3585,-0.3535,-0.349,-0.2585,-0.1121,-0.0224,-0.0,0.0112,0.0505,0.0785,0.0785,0.0841,0.0841,0.0841,0.0841,0.0897,0.0897,0.0839,0.0779,0.0774,0.0774,0.0811,0.0841,0.0817,0.0742,0.0766,0.0698,0.0636,0.0629,0.0675,0.0675,0.0629,0.0539,0.0314,0.0449,0.0629,0.0314,-0.0,-0.0269,-0.0403,-0.0447,-0.0492,-0.0582,-1.1769,-1.1322,-1.1473,-1.1348,-1.0963,-1.0604,-0.9794,-0.8916,-0.8954,-0.8959,-0.8804,-0.8808,-0.8745,-0.8636,-0.853,-0.8484,-0.8374,-0.8058,-0.7955,-0.8115,-0.7952,-0.7901,-0.7904,-0.7904,-0.7904,-0.7904,-0.7904,-0.7904,-0.7904,-0.7904,-0.7904,-0.7904,-0.7848,-0.7904,-0.7794,-0.7631,-0.7249,-0.6972,-0.6372,-0.5611,-0.512,-0.4627,-0.4187,-0.3856,-0.3637,-0.3584,-0.3585,-0.3585,-0.3585,-0.3585,-0.3585,-0.3585,-0.3585,-0.3585,-0.3585,-0.3585,-0.3585,-0.3585,-0.3585,-0.3585,-0.3585,-0.3587,-0.3585,-0.3585,-0.3585,-0.3585,-0.3585,-0.3585,-0.3585,-0.3585,-0.3585,-0.3585,-0.3532,-0.3261,-0.2813,-0.1346,-0.0112,0.0392,0.0673,0.0673,0.0897,0.0897,0.0897,0.0897,0.0897,0.0897,0.0897,0.0897,0.0897,0.0897,0.0838,0.083,0.0823,0.086,0.0891,0.0807,0.0787,0.0767,0.0744,0.0679,0.0675,0.0719,0.0675,0.0675,0.0675,0.0719,0.0719,0.0675,0.0629,0.0404,0.0135,-0.0134,-0.0224,-0.0269,-0.0268,-1.1873,-1.1573,-1.1578,-1.1326,-1.0926,-1.0584,-0.9872,-0.9138,-0.8886,-0.8808,-0.8808,-0.8808,-0.8745,-0.858,-0.8524,-0.8371,-0.8321,-0.8115,-0.7958,-0.8115,-0.7952,-0.7901,-0.7904,-0.7904,-0.7904,-0.7904,-0.7904,-0.7904,-0.7904,-0.7904,-0.7904,-0.7848,-0.7738,-0.7577,-0.747,-0.7252,-0.6864,-0.6426,-0.5664,-0.5115,-0.468,-0.4242,-0.3912,-0.3694,-0.3585,-0.3585,-0.3585,-0.3585,-0.3585,-0.3585,-0.3585,-0.3585,-0.3585,-0.3585,-0.3585,-0.3585,-0.3585,-0.3585,-0.3585,-0.3585,-0.3587,-0.3589,-0.3587,-0.3585,-0.3585,-0.3585,-0.3585,-0.3585,-0.353,-0.3588,-0.3589,-0.3589,-0.3427,-0.3155,-0.1684,-0.0224,0.0336,0.0785,0.0897,0.0897,0.0897,0.0897,0.0897,0.0897,0.0897,0.0897,0.0897,0.0897,0.0897,0.0897,0.0889,0.0872,0.0861,0.0895,0.0869,0.0839,0.0822,0.0813,0.0745,0.0721,0.0719,0.0719,0.0719,0.0719,0.0719,0.0719,0.0719,0.0675,0.0629,0.0584,0.0494,0.0224,-0.0,0.0045,0.009,-1.2076,-1.2076,-1.2076,-1.2036,-1.1889,-1.0977,-1.0174,-0.961,-0.9057,-0.8857,-0.8857,-0.8804,-0.8692,-0.8629,-0.8573,-0.8421,-0.8215,-0.8168,-0.8065,-0.7958,-0.7901,-0.7904,-0.7904,-0.7904,-0.7904,-0.7904,-0.7904,-0.7904,-0.7904,-0.7904,-0.7904,-0.7738,-0.741,-0.7139,-0.6974,-0.6701,-0.6261,-0.5716,-0.5281,-0.4789,-0.4298,-0.4076,-0.3858,-0.3695,-0.3585,-0.3585,-0.3585,-0.3585,-0.3585,-0.3585,-0.3585,-0.3585,-0.3585,-0.3585,-0.3585,-0.3585,-0.3585,-0.3585,-0.3531,-0.3531,-0.3532,-0.3479,-0.342,-0.353,-0.3587,-0.3587,-0.3416,-0.3306,-0.3138,-0.3425,-0.3596,-0.3488,-0.3379,-0.2192,-0.0673,0.0168,0.0673,0.0897,0.0897,0.0897,0.0897,0.0897,0.0895,0.0895,0.089,0.0894,0.0893,0.0892,0.0893,0.0897,0.0882,0.0844,0.0885,0.0872,0.0846,0.0818,0.0804,0.0747,0.0738,0.0719,0.0719,0.0719,0.0719,0.0719,0.0719,0.0719,0.0719,0.0719,0.0675,0.0675,0.063,0.0584,0.0314,0.0494,0.0628,-1.2076,-1.2076,-1.2076,-1.2094,-1.2027,-1.1758,-1.1061,-1.0171,-0.9618,-0.9361,-0.9357,-0.8844,-0.8629,-0.8573,-0.8421,-0.8275,-0.8171,-0.8065,-0.7958,-0.7904,-0.7904,-0.7904,-0.7904,-0.7904,-0.7904,-0.7904,-0.7904,-0.7904,-0.7901,-0.7901,-0.7628,-0.73,-0.7028,-0.6591,-0.6152,-0.5823,-0.555,-0.5279,-0.4954,-0.4515,-0.4132,-0.3965,-0.3802,-0.3695,-0.3585,-0.3585,-0.3585,-0.3585,-0.3585,-0.3585,-0.3585,-0.3585,-0.3585,-0.3585,-0.3585,-0.3585,-0.3585,-0.3587,-0.3478,-0.2801,-0.2689,-0.3199,-0.2914,-0.297,-0.3251,-0.3534,-0.3247,-0.3083,-0.2465,-0.2411,-0.2639,-0.2699,-0.2192,-0.0897,0.0168,0.0449,0.0841,0.0897,0.0897,0.0897,0.0897,0.0897,0.0895,0.0883,0.0879,0.0885,0.0889,0.0889,0.089,0.0895,0.0881,0.0843,0.0817,0.0808,0.0828,0.0798,0.074,0.0729,0.0723,0.0719,0.0719,0.0719,0.0719,0.0723,0.0728,0.0725,0.0719,0.0724,0.0738,0.0724,0.0677,0.0676,0.072,0.0815,0.0908,-1.1891,-1.1914,-1.2016,-1.2076,-1.2026,-1.1641,-1.1116,-1.0631,-0.9925,-0.951,-0.926,-0.8784,-0.8573,-0.8471,-0.8321,-0.8168,-0.8062,-0.8008,-0.7904,-0.7904,-0.7904,-0.7904,-0.7904,-0.7904,-0.7904,-0.7904,-0.7904,-0.7904,-0.7848,-0.7628,-0.7354,-0.7136,-0.6753,-0.6041,-0.5496,-0.5226,-0.5009,-0.4846,-0.4627,-0.4242,-0.4076,-0.3965,-0.3802,-0.364,-0.3585,-0.3585,-0.3585,-0.3585,-0.3585,-0.3585,-0.3585,-0.3585,-0.3585,-0.3585,-0.3585,-0.3585,-0.3585,-0.3592,-0.343,-0.2465,-0.2693,-0.292,-0.2522,-0.2692,-0.3144,-0.3543,-0.3257,-0.292,-0.1906,-0.1233,-0.1515,-0.1628,-0.0617,0.0449,0.0561,0.0673,0.0785,0.0841,0.0897,0.0897,0.0897,0.0897,0.089,0.0875,0.0872,0.0886,0.0893,0.0891,0.0893,0.0896,0.0881,0.0851,0.0822,0.08,0.0768,0.0742,0.0731,0.0724,0.0722,0.0719,0.0719,0.0724,0.0728,0.0734,0.074,0.0742,0.0748,0.0755,0.0763,0.075,0.0747,0.0756,0.0756,0.0796,0.0935,-1.1462,-1.1544,-1.196,-1.2076,-1.1864,-1.091,-1.0667,-1.1006,-0.9976,-0.9316,-0.8956,-0.8629,-0.8474,-0.8371,-0.8218,-0.8065,-0.8008,-0.7904,-0.7904,-0.7904,-0.7904,-0.7904,-0.7904,-0.7904,-0.7904,-0.7904,-0.7904,-0.7904,-0.7735,-0.7464,-0.7192,-0.6974,-0.5989,-0.5334,-0.5117,-0.4791,-0.4682,-0.4627,-0.441,-0.4135,-0.4021,-0.391,-0.3744,-0.364,-0.3585,-0.3585,-0.3585,-0.3585,-0.3585,-0.3585,-0.3585,-0.3585,-0.3585,-0.3585,-0.3585,-0.3591,-0.3592,-0.3087,-0.2696,-0.1793,-0.2075,-0.23,-0.2412,-0.2244,-0.2471,-0.3379,-0.3265,-0.2132,-0.1065,-0.0336,-0.0392,-0.0393,0.0336,0.0673,0.0729,0.0785,0.0841,0.0897,0.0897,0.0897,0.0897,0.0897,0.0894,0.088,0.0874,0.0889,0.0888,0.0885,0.0895,0.0897,0.0881,0.0857,0.0827,0.0798,0.0769,0.0744,0.0727,0.072,0.0722,0.0728,0.0734,0.0737,0.0739,0.0752,0.0768,0.0779,0.0788,0.0788,0.0788,0.0789,0.0789,0.0799,0.0795,0.088,0.1027,-1.12,-1.1569,-1.1911,-1.1873,-1.141,-1.0701,-1.0152,-0.9825,-0.9618,-0.9361,-0.9159,-0.8586,-0.8271,-0.8275,-0.8062,-0.7958,-0.7904,-0.7904,-0.7904,-0.7904,-0.7904,-0.7904,-0.7904,-0.7904,-0.7904,-0.7904,-0.7904,-0.7848,-0.7684,-0.7303,-0.681,-0.6374,-0.5553,-0.5115,-0.4791,-0.4517,-0.4517,-0.4462,-0.4354,-0.4135,-0.4021,-0.3967,-0.3858,-0.3695,-0.3585,-0.3585,-0.3585,-0.3585,-0.3585,-0.3585,-0.3585,-0.3585,-0.3585,-0.3585,-0.3593,-0.3603,-0.3547,-0.2754,-0.0,-0.0,-0.0,-0.0,-0.1234,-0.1178,-0.1628,-0.2814,-0.2814,-0.1403,-0.0,-0.0,0.0673,0.0785,0.0897,0.0841,0.0841,0.0841,0.0897,0.0897,0.0897,0.0897,0.0897,0.0896,0.0893,0.0889,0.0883,0.0875,0.0866,0.0867,0.0889,0.0896,0.0885,0.0862,0.0829,0.0799,0.0774,0.0757,0.0745,0.0734,0.0734,0.0741,0.075,0.0756,0.0762,0.0783,0.0799,0.081,0.0813,0.0805,0.0806,0.092,0.0872,0.0931,0.0984,0.1024,0.1236,-1.0777,-1.1071,-1.1808,-1.1809,-1.1179,-1.0144,-0.9555,-0.9395,-0.9099,-0.8945,-0.884,-0.8431,-0.8228,-0.8171,-0.8011,-0.7904,-0.7904,-0.7904,-0.7904,-0.7904,-0.7904,-0.7904,-0.7904,-0.7904,-0.7904,-0.7904,-0.7631,-0.7467,-0.7467,-0.6647,-0.5991,-0.5773,-0.5224,-0.4844,-0.4462,-0.4462,-0.4462,-0.4462,-0.4354,-0.4245,-0.4078,-0.3967,-0.3858,-0.3638,-0.3585,-0.3585,-0.3585,-0.3585,-0.3585,-0.3585,-0.3585,-0.3585,-0.3417,-0.3022,-0.3144,-0.3436,-0.3326,-0.0,-0.0,-0.0,-0.0,-0.0,-0.0,-0.0,-0.0,-0.1515,-0.1515,-0.0,-0.0,-0.0,-0.0,0.0729,0.0841,0.0841,0.0841,0.0897,0.0897,0.0897,0.0897,0.0897,0.0897,0.0897,0.0895,0.0894,0.0889,0.0889,0.0875,0.0872,0.0889,0.0897,0.0885,0.0872,0.0844,0.0828,0.0868,0.0795,0.0773,0.0762,0.0751,0.0814,0.083,0.083,0.0788,0.0913,0.0934,0.0839,0.0839,0.0991,0.116,0.1341,0.1177,0.1066,0.1172,0.1333,0.1608,-1.0275,-1.0479,-1.1618,-1.1751,-1.1061,-0.9642,-0.9116,-0.9239,-0.8735,-0.8318,-0.8221,-0.8165,-0.8168,-0.8118,-0.8014,-0.7958,-0.7904,-0.7904,-0.7904,-0.7904,-0.7904,-0.7904,-0.7904,-0.7904,-0.7904,-0.7738,-0.7464,-0.7246,-0.719,-0.6206,-0.5498,-0.5226,-0.4846,-0.4462,-0.4462,-0.4462,-0.4462,-0.4462,-0.4408,-0.4358,-0.4189,-0.3965,-0.3799,-0.3692,-0.3585,-0.3585,-0.3585,-0.3585,-0.3585,-0.3585,-0.3587,-0.3589,-0.3422,-0.2972,-0.2467,-0.2699,-0.2587,-0.1572,-0.0,-0.0,-0.0,-0.0,-0.0,-0.0,-0.0,-0.0,-0.0,-0.0,-0.0,-0.0,-0.0,0.0673,0.0785,0.0897,0.0897,0.0897,0.0897,0.0897,0.0897,0.0897,0.0897,0.0897,0.0897,0.0896,0.0897,0.0897,0.0897,0.0897,0.0897,0.0897,0.0892,0.0885,0.087,0.0859,0.0902,0.0876,0.0844,0.0888,0.0929,0.0899,0.1016,0.1333,0.1402,0.1164,0.1132,0.1351,0.1419,0.1531,0.1661,0.1884,0.1817,0.1798,0.197,0.2139,0.2158,-1.0022,-1.039,-1.1614,-1.1595,-1.0782,-1.0004,-0.9537,-0.9148,-0.8685,-0.8268,-0.8008,-0.7955,-0.7955,-0.7955,-0.7958,-0.7904,-0.7904,-0.7904,-0.7904,-0.7904,-0.7904,-0.7904,-0.7904,-0.7904,-0.7904,-0.7631,-0.73,-0.7139,-0.6642,-0.5769,-0.5277,-0.5224,-0.4736,-0.4517,-0.4462,-0.4462,-0.4462,-0.4462,-0.4463,-0.4411,-0.4247,-0.4078,-0.3909,-0.3799,-0.3635,-0.364,-0.3585,-0.3585,-0.3585,-0.3585,-0.353,-0.3478,-0.3201,-0.2809,-0.2189,-0.0,-0.0,-0.0,-0.0,-0.0,-0.0,-0.0,-0.0,-0.0,-0.0,-0.0,-0.0,-0.0,-0.0,-0.0,0.0673,0.0785,0.0897,0.0897,0.0897,0.0897,0.0897,0.0897,0.0897,0.0897,0.0897,0.0897,0.0897,0.0897,0.0897,0.0897,0.0897,0.0897,0.0897,0.0897,0.0897,0.0949,0.0999,0.0874,0.091,0.0994,0.0967,0.1013,0.1167,0.144,0.1733,0.2165,0.2139,0.1806,0.2035,0.2319,0.2289,0.2069,0.2346,0.2561,0.2621,0.2672,0.285,0.285,0.285]},{"header":{"parameterUnit":"m.s-1","parameterCategory":1,"la1":31.0,"la2":29.5877,"lo1":-88.7671,"lo2":-86.6584,"dy":0.0162,"dx":0.0185,"nx":115,"ny":88,"refTime":"2024-07-27T06:00:00:Z","depth":0,"parameterNumber":3,"parameterNumberName":"V-component_of_WINDS"},"data":[0.0,0.0,0.0,0.0,0.0,0.0,0.0,0.0,0.0,0.0,0.0,0.0,0.0,0.0,0.0,0.0,0.0,0.0,0.0,0.0,0.0,0.0,0.0,0.0,0.0,0.0,0.0,0.0,0.0,0.0,0.0,0.0,0.0,0.0,0.0,0.0,0.0,0.0,0.0,0.0,0.0,0.0,0.0,0.0,0.0,0.0,0.0,0.0,0.0,0.0,0.0,0.0,0.0,0.0,0.0,0.0,0.0,0.0,0.0,0.0,0.0,0.0,0.0,0.0,0.0,0.0,0.0,0.0,0.0,0.0,0.0,0.0,0.0,0.0,0.0,0.0,0.0,0.0,0.0,0.0,0.0,0.0,0.0,0.0,0.0,0.0,0.0,0.0,0.0,0.0,0.0,0.0,0.0,0.0,0.0,0.0,0.0,0.0,0.0,0.0,0.0,0.0,0.0,0.0,0.0,0.0,0.0,0.0,0.0,0.0,0.0,0.0,0.0,0.0,0.0,0.0,0.0,0.0,0.0,0.0,0.0,0.0,0.0,0.0,0.0,0.0,0.0,0.0,0.0,0.0,0.0,0.0,0.0,0.0,0.0,0.0,0.0,0.0,0.0,0.0,0.0,0.0,0.0,0.0,0.0,0.0,0.0,0.0,0.0,0.0,0.0,0.0,0.0,0.0,0.0,0.0,0.0,0.0,0.0,0.0,0.0,0.0,0.0,0.0,0.0,0.0,0.0,0.0,0.0,0.0,0.0,0.0,0.0,0.0,0.0,0.0,0.0,0.0,0.0,0.0,0.0,0.0,0.0,0.0,0.0,0.0,0.0,0.0,0.0,0.0,0.0,0.0,0.0,0.0,0.0,0.0,0.0,0.0,0.0,0.0,0.0,0.0,0.0,0.0,0.0,0.0,0.0,0.0,0.0,0.0,0.0,0.0,0.0,0.0,0.0,0.0,0.0,0.0,0.0,0.0,0.0,0.0,0.0,0.0,0.0,0.0,0.0,0.0,0.0,0.0,0.0,0.0,0.0,0.0,0.0,0.0,0.0,0.0,0.0,0.0,0.0,0.0,0.0,0.0,0.0,0.0,0.0,0.0,0.0,0.0,0.0,0.0,0.0,0.0,0.0,0.0,0.0,0.0,0.0,0.0,0.0,0.0,0.0,0.0,0.0,0.0,0.0,0.0,0.0,0.0,0.0,0.0,0.0,0.0,0.0,0.0,0.0,0.0,0.0,0.0,0.0,0.0,0.0,0.0,0.0,0.0,0.0,0.0,0.0,0.0,0.0,0.0,0.0,0.0,0.0,0.0,0.0,0.0,0.0,0.0,0.0,0.0,0.0,0.0,0.0,0.0,0.0,0.0,0.0,0.0,0.0,0.0,0.0,0.0,0.0,0.0,0.0,0.0,0.0,0.0,0.0,0.0,0.0,0.0,0.0,0.0,0.0,0.0,0.0,0.0,0.0,0.0,0.0,0.0,0.0,0.0,0.0,0.0,0.0,0.0,0.0,0.0,0.0,0.0,0.0,0.0,0.0,0.0,0.0,0.0,0.0,0.0,0.0,0.0,0.0,0.0,0.0,0.0,0.0,0.0,0.0,0.0,0.0,0.0,0.0,0.0,0.0,0.0,0.0,0.0,0.0,0.0,0.0,0.0,0.0,0.0,0.0,0.0,0.0,0.0,0.0,0.0,0.0,0.0,0.0,0.0,0.0,0.0,0.0,0.0,0.0,0.0,0.0,0.0,0.0,0.0,0.0,0.0,0.0,0.0,0.0,0.0,0.0,0.0,0.0,0.0,0.0,0.0,0.0,0.0,0.0,0.0,0.0,0.0,0.0,0.0,0.0,0.0,0.0,0.0,0.0,0.0,0.0,0.0,0.0,0.0,0.0,0.0,0.0,0.0,0.0,0.0,0.0,0.0,0.0,0.0,0.0,0.0,0.0,0.0,0.0,0.0,0.0,0.0,0.0,0.0,0.0,0.0,0.0,0.0,0.0,0.0,0.0,0.0,0.0,0.0,0.0,0.0,0.0,0.0,0.0,0.0,0.0,0.0,0.0,0.0,0.0,0.0,0.0,0.0,0.0,0.0,0.0,0.0,0.0,0.0,0.0,0.0,0.0,0.0,0.0,0.0,0.0,0.0,0.0,0.0,0.0,0.0,0.0,0.0,0.0,0.0,0.0,0.0,0.0,0.0,0.0,0.0,0.0,0.0,0.0,0.0,0.0,0.0,0.0,0.0,0.0,0.0,0.0,0.0,0.0,0.0,0.0,0.0,0.0,0.0,0.0,0.0,0.0,0.0,0.0,0.0,0.0,0.0,0.0,0.0,0.0,0.0,0.0,0.0,0.0,0.0,0.0,0.0,0.0,0.0,0.0,0.0,0.0,0.0,0.0,0.0,0.0,0.0,0.0,0.0,0.0,0.0,0.0,0.0,0.0,0.0,0.0,0.0,0.0,0.0,0.0,0.0,0.0,0.0,0.0,0.0,0.0,0.0,0.0,0.0,0.0,0.0,0.0,0.0,0.0,0.0,0.0,0.0,0.0,0.0,0.0,0.0,0.0,0.0,0.0,0.0,0.0,0.0,0.0,0.0,0.0,0.0,0.0,0.0,0.0,0.0,0.0,0.0,0.0,0.0,0.0,0.0,0.0,0.0,0.0,0.0,0.0,0.0,0.0,0.0,0.0,0.0,0.0,0.0,0.0,0.0,0.0,0.0,0.0,0.0,0.0,0.0,0.0,0.0,0.0,0.0,0.0,0.0,0.0,0.0,0.0,0.0,0.0,0.0,0.0,0.0,0.0,0.0,0.0,0.0,0.0,0.0,0.0,0.0,0.0,0.0,0.0,0.0,0.0,0.0,0.0,0.0,0.0,0.0,0.0,0.0,0.0,0.0,0.0,0.0,0.0,0.0,0.0,0.0,0.0,0.0,0.0,0.0,0.0,0.0,0.0,0.0,0.0,0.0,0.0,0.0,0.0,0.0,0.0,0.0,0.0,0.0,0.0,0.0,0.0,0.0,0.0,0.0,0.0,0.0,0.0,0.0,0.0,0.0,0.0,0.0,0.0,0.0,0.0,0.0,0.0,0.0,0.0,0.0,0.0,0.0,0.0,0.0,0.0,0.0,0.0,0.0,0.0,0.0,0.0,0.0,0.0,0.0,0.0,0.0,0.0,0.0,0.0,0.0,0.0,0.0,0.0,0.0,0.0,0.0,0.0,0.0,0.0,0.0,0.0,0.0,0.0,0.0,0.0,0.0,0.0,0.0,0.0,0.0,0.0,0.0,0.0,0.0,0.0,0.0,0.0,0.0,0.0,0.0,0.0,0.0,0.0,0.0,0.0,0.0,0.0,0.0,0.0,0.0,0.0,0.0,0.0,0.0,0.0,0.0,0.0,0.0,0.0,0.0,0.0,0.0,0.0,0.0,0.0,0.0,0.0,0.0,0.0,0.0,0.0,0.0,0.0,0.0,0.0,0.0,0.0,0.0,0.0,0.0,0.0,0.0,0.0,0.0,0.0,0.0,0.0,0.0,0.0,0.0,0.0,0.0,0.0,0.0,0.0,0.0,0.0,0.0,0.0,0.0,0.0,0.0,0.0,0.0,0.0,0.0,0.0,0.0,0.0,0.0,0.0,0.0,0.0,0.0,0.0,0.0,0.0,0.0,0.0,0.0,0.0,0.0,0.0,0.0,0.0,0.0,0.0,0.0,0.0,0.0,0.0,0.0,0.0,0.0,0.0,0.0,0.0,0.0,0.0,0.0,0.0,0.0,0.0,0.0,0.0,0.0,0.0,0.0,0.0,0.0,0.0,0.0,0.0,0.0,0.0,0.0,0.0,0.0,0.0,0.0,0.0,0.0,0.0,0.0,0.0,0.0,0.0,0.0,0.0,0.0,0.0,0.0,0.0,0.0,0.0,0.0,0.0,0.0,0.0,0.0,0.0,0.0,0.0,0.0,0.0,0.0,0.0,0.0,0.0,0.0,0.0,0.0,0.0,0.0,0.0,0.0,0.0,0.0,0.0,0.0,0.0,0.0,0.0,0.0,0.0,0.0,0.0,0.0,0.0,0.0,0.0,0.0,0.0,0.0,0.0,0.0,0.0,0.0,0.0,0.0,0.0,0.0,0.0,0.0,0.0,0.0,0.0,0.0,0.0,0.0,0.0,0.0,0.0,0.0,0.0,0.0,0.0,0.0,0.0,0.0,0.0,0.0,0.0,0.0,0.0,0.0,0.0,0.0,0.0,0.0,0.0,0.0,0.0,0.0,0.0,0.0,-1.6567,0.0,0.0,0.0,0.0,0.0,0.0,0.0,0.0,0.0,0.0,0.0,0.0,0.0,0.0,0.0,0.0,0.0,0.0,0.0,0.0,0.0,0.0,0.0,0.0,0.0,0.0,0.0,0.0,0.0,0.0,0.0,0.0,0.0,0.0,0.0,0.0,0.0,0.0,0.0,0.0,0.0,0.0,0.0,0.0,0.0,0.0,0.0,0.0,0.0,0.0,0.0,0.0,0.0,0.0,0.0,0.0,0.0,0.0,0.0,0.0,0.0,0.0,0.0,0.0,0.0,0.0,0.0,0.0,0.0,0.0,0.0,0.0,0.0,0.0,0.0,0.0,0.0,0.0,0.0,0.0,0.0,0.0,0.0,0.0,0.0,0.0,0.0,0.0,0.0,0.0,0.0,0.0,0.0,0.0,0.0,0.0,0.0,0.0,0.0,0.0,0.0,0.0,0.0,0.0,0.0,0.0,0.0,0.0,0.0,0.0,-1.8963,-1.8833,-1.8342,-1.7515,-1.6328,0.0,0.0,0.0,0.0,0.0,0.0,0.0,0.0,0.0,0.0,0.0,0.0,0.0,0.0,0.0,0.0,0.0,0.0,0.0,0.0,0.0,0.0,0.0,0.0,0.0,0.0,0.0,0.0,0.0,0.0,0.0,0.0,0.0,0.0,0.0,0.0,0.0,0.0,0.0,0.0,0.0,0.0,0.0,0.0,0.0,0.0,0.0,0.0,0.0,0.0,0.0,0.0,0.0,0.0,0.0,0.0,0.0,0.0,0.0,0.0,0.0,0.0,0.0,0.0,0.0,0.0,0.0,0.0,0.0,0.0,0.0,0.0,0.0,0.0,0.0,0.0,0.0,0.0,0.0,0.0,0.0,0.0,0.0,0.0,0.0,0.0,0.0,0.0,0.0,0.0,0.0,0.0,0.0,0.0,0.0,0.0,0.0,0.0,0.0,0.0,0.0,0.0,0.0,0.0,0.0,0.0,0.0,0.0,0.0,0.0,0.0,0.0,-1.7922,-1.7025,-1.6027,0.0,0.0,0.0,0.0,0.0,0.0,0.0,0.0,0.0,0.0,0.0,0.0,0.0,0.0,0.0,0.0,0.0,0.0,0.0,0.0,0.0,0.0,0.0,0.0,0.0,0.0,0.0,0.0,0.0,0.0,0.0,0.0,0.0,0.0,0.0,0.0,0.0,0.0,0.0,0.0,0.0,0.0,0.0,0.0,0.0,0.0,0.0,0.0,0.0,0.0,0.0,0.0,0.0,0.0,0.0,0.0,0.0,0.0,0.0,0.0,0.0,0.0,0.0,0.0,0.0,0.0,0.0,0.0,0.0,0.0,0.0,0.0,0.0,0.0,0.0,0.0,0.0,0.0,0.0,0.0,0.0,0.0,0.0,0.0,0.0,0.0,0.0,0.0,0.0,0.0,0.0,0.0,0.0,0.0,0.0,0.0,0.0,0.0,0.0,0.0,0.0,0.0,0.0,0.0,0.0,0.0,0.0,0.0,0.0,0.0,-1.8112,-1.926,-1.8358,0.0,-1.5797,0.0,0.0,0.0,0.0,0.0,0.0,0.0,0.0,0.0,0.0,0.0,0.0,0.0,0.0,0.0,0.0,0.0,0.0,0.0,0.0,0.0,0.0,0.0,0.0,0.0,0.0,0.0,0.0,0.0,0.0,0.0,0.0,0.0,0.0,0.0,0.0,0.0,0.0,0.0,0.0,0.0,0.0,0.0,0.0,0.0,0.0,0.0,0.0,0.0,0.0,0.0,0.0,0.0,0.0,0.0,0.0,0.0,0.0,0.0,0.0,0.0,0.0,0.0,0.0,0.0,0.0,0.0,0.0,0.0,0.0,0.0,0.0,0.0,0.0,0.0,0.0,0.0,0.0,0.0,0.0,0.0,0.0,0.0,0.0,0.0,0.0,0.0,0.0,0.0,0.0,0.0,0.0,0.0,0.0,0.0,0.0,0.0,0.0,0.0,0.0,0.0,0.0,0.0,0.0,0.0,0.0,0.0,0.0,0.0,0.0,-1.7248,-1.7671,-1.6855,-1.594,0.0,0.0,0.0,0.0,0.0,0.0,0.0,0.0,0.0,0.0,0.0,0.0,0.0,0.0,0.0,0.0,0.0,0.0,0.0,0.0,0.0,0.0,0.0,0.0,0.0,0.0,0.0,0.0,0.0,0.0,0.0,0.0,0.0,0.0,0.0,0.0,0.0,0.0,0.0,0.0,0.0,0.0,0.0,0.0,0.0,0.0,0.0,0.0,0.0,0.0,0.0,0.0,0.0,0.0,0.0,0.0,0.0,0.0,0.0,0.0,0.0,0.0,0.0,0.0,0.0,0.0,0.0,0.0,0.0,0.0,0.0,0.0,0.0,0.0,0.0,0.0,0.0,0.0,0.0,0.0,0.0,0.0,0.0,0.0,0.0,0.0,0.0,0.0,0.0,0.0,0.0,0.0,0.0,0.0,0.0,0.0,0.0,0.0,0.0,0.0,0.0,0.0,0.0,0.0,0.0,0.0,0.0,0.0,0.0,0.0,-1.6652,-1.6421,-1.643,-1.6104,-1.5412,-1.4302,0.0,0.0,0.0,0.0,0.0,0.0,0.0,0.0,0.0,0.0,0.0,0.0,0.0,0.0,0.0,0.0,0.0,0.0,0.0,0.0,0.0,0.0,0.0,0.0,0.0,0.0,0.0,0.0,0.0,0.0,0.0,0.0,0.0,0.0,0.0,0.0,0.0,0.0,0.0,0.0,0.0,0.0,0.0,0.0,0.0,0.0,0.0,0.0,0.0,0.0,0.0,0.0,0.0,0.0,0.0,0.0,0.0,0.0,0.0,0.0,0.0,0.0,0.0,0.0,0.0,0.0,0.0,0.0,0.0,0.0,0.0,0.0,0.0,0.0,0.0,0.0,0.0,0.0,0.0,0.0,0.0,0.0,0.0,0.0,0.0,0.0,0.0,0.0,0.0,0.0,0.0,0.0,0.0,0.0,0.0,0.0,0.0,0.0,0.0,0.0,0.0,0.0,0.0,0.0,0.0,0.0,0.0,0.0,0.0,-1.621,-1.5729,-1.6303,-1.6891,-1.6248,0.0,0.0,0.0,0.0,0.0,0.0,0.0,0.0,0.0,0.0,0.0,0.0,0.0,0.0,0.0,0.0,0.0,0.0,0.0,0.0,0.0,0.0,0.0,0.0,0.0,0.0,0.0,0.0,0.0,0.0,0.0,0.0,0.0,0.0,0.0,0.0,0.0,0.0,0.0,0.0,0.0,0.0,0.0,0.0,0.0,0.0,0.0,0.0,0.0,0.0,0.0,0.0,0.0,0.0,0.0,0.0,0.0,0.0,0.0,0.0,0.0,0.0,0.0,0.0,0.0,0.0,0.0,0.0,0.0,0.0,0.0,0.0,0.0,0.0,0.0,0.0,0.0,0.0,0.0,0.0,0.0,0.0,0.0,0.0,0.0,0.0,0.0,0.0,0.0,0.0,0.0,0.0,0.0,0.0,0.0,0.0,0.0,0.0,0.0,0.0,0.0,0.0,0.0,0.0,0.0,0.0,0.0,0.0,0.0,-1.535,-1.5014,-1.5356,-1.6417,-1.5847,-1.5226,0.0,0.0,0.0,0.0,0.0,0.0,0.0,0.0,0.0,0.0,0.0,0.0,0.0,0.0,0.0,0.0,0.0,0.0,0.0,0.0,0.0,0.0,0.0,0.0,0.0,0.0,0.0,0.0,0.0,0.0,0.0,0.0,0.0,0.0,0.0,0.0,0.0,0.0,0.0,0.0,0.0,0.0,0.0,0.0,0.0,0.0,0.0,0.0,0.0,0.0,0.0,0.0,0.0,0.0,0.0,0.0,0.0,0.0,0.0,0.0,0.0,0.0,0.0,0.0,0.0,0.0,0.0,0.0,0.0,0.0,0.0,0.0,0.0,0.0,0.0,0.0,0.0,0.0,0.0,0.0,0.0,0.0,0.0,0.0,0.0,0.0,0.0,0.0,0.0,0.0,0.0,0.0,0.0,0.0,0.0,0.0,0.0,0.0,0.0,0.0,0.0,0.0,0.0,0.0,0.0,0.0,0.0,0.0,0.0,-1.4171,0.0,-1.5399,0.0,-1.5309,-1.4718,0.0,0.0,0.0,0.0,0.0,0.0,0.0,0.0,0.0,0.0,0.0,0.0,0.0,0.0,0.0,0.0,0.0,0.0,0.0,0.0,0.0,0.0,0.0,0.0,0.0,0.0,0.0,0.0,0.0,0.0,0.0,0.0,0.0,0.0,0.0,0.0,0.0,0.0,0.0,0.0,0.0,0.0,0.0,0.0,0.0,0.0,0.0,0.0,0.0,0.0,0.0,0.0,0.0,0.0,0.0,0.0,0.0,0.0,0.0,0.0,0.0,0.0,0.0,0.0,0.0,0.0,0.0,0.0,0.0,0.0,0.0,0.0,0.0,0.0,0.0,0.0,0.0,0.0,0.0,0.0,0.0,0.0,0.0,0.0,0.0,0.0,0.0,0.0,0.0,0.0,0.0,0.0,0.0,0.0,0.0,0.0,0.0,0.0,0.0,0.0,0.0,0.0,0.0,0.0,0.0,0.0,0.0,0.0,-1.4678,-1.4238,-1.5463,-1.5806,-1.5169,-1.5411,-1.4884,0.0,0.0,0.0,0.0,0.0,0.0,0.0,0.0,0.0,0.0,0.0,0.0,0.0,0.0,0.0,0.0,0.0,0.0,0.0,0.0,0.0,0.0,0.0,0.0,0.0,0.0,0.0,0.0,0.0,0.0,0.0,0.0,0.0,0.0,0.0,0.0,0.0,0.0,0.0,0.0,0.0,0.0,0.0,0.0,0.0,0.0,0.0,0.0,0.0,0.0,0.0,0.0,0.0,0.0,0.0,0.0,0.0,0.0,0.0,0.0,0.0,0.0,0.0,0.0,0.0,0.0,0.0,0.0,0.0,0.0,0.0,0.0,0.0,0.0,0.0,0.0,0.0,0.0,0.0,0.0,0.0,0.0,0.0,0.0,0.0,0.0,0.0,0.0,0.0,0.0,0.0,0.0,0.0,0.0,0.0,0.0,0.0,0.0,0.0,0.0,0.0,0.0,0.0,0.0,0.0,0.0,0.0,0.0,0.0,-1.3903,-1.4724,-1.5487,-1.6127,-1.5405,-1.4939,0.0,0.0,0.0,0.0,0.0,0.0,0.0,0.0,0.0,0.0,0.0,0.0,0.0,0.0,0.0,0.0,0.0,0.0,0.0,0.0,0.0,0.0,0.0,0.0,0.0,0.0,0.0,0.0,0.0,0.0,0.0,0.0,0.0,0.0,0.0,0.0,0.0,0.0,0.0,0.0,0.0,0.0,0.0,0.0,0.0,0.0,0.0,0.0,0.0,0.0,0.0,0.0,0.0,0.0,0.0,0.0,0.0,0.0,0.0,0.0,0.0,0.0,0.0,0.0,0.0,0.0,0.0,0.0,0.0,0.0,0.0,0.0,0.0,0.0,0.0,0.0,0.0,0.0,0.0,0.0,0.0,0.0,0.0,0.0,0.0,0.0,0.0,0.0,0.0,0.0,0.0,0.0,0.0,0.0,0.0,0.0,0.0,0.0,0.0,0.0,0.0,0.0,0.0,0.0,0.0,0.0,0.0,0.0,0.0,-1.4335,-1.4932,-1.5544,-1.6157,-1.5424,-1.512,-1.5232,0.0,0.0,0.0,0.0,0.0,0.0,0.0,0.0,0.0,0.0,0.0,0.0,0.0,0.0,0.0,0.0,0.0,0.0,0.0,0.0,0.0,0.0,0.0,0.0,0.0,0.0,0.0,0.0,0.0,0.0,0.0,0.0,0.0,0.0,0.0,0.0,0.0,0.0,0.0,0.0,0.0,0.0,0.0,0.0,0.0,0.0,0.0,0.0,0.0,0.0,0.0,0.0,0.0,0.0,0.0,0.0,0.0,0.0,0.0,0.0,0.0,0.0,0.0,0.0,0.0,0.0,0.0,0.0,0.0,0.0,0.0,0.0,0.0,0.0,0.0,0.0,0.0,0.0,0.0,0.0,0.0,0.0,0.0,0.0,0.0,0.0,0.0,0.0,0.0,0.0,0.0,0.0,0.0,0.0,0.0,0.0,0.0,0.0,0.0,0.0,0.0,0.0,0.0,0.0,0.0,0.0,0.0,0.0,-1.529,-1.5903,-1.6004,-1.5531,-1.5588,-1.5499,0.0,0.0,0.0,0.0,0.0,0.0,0.0,0.0,0.0,0.0,0.0,0.0,0.0,0.0,0.0,0.0,0.0,0.0,0.0,0.0,0.0,0.0,0.0,0.0,0.0,0.0,0.0,0.0,0.0,0.0,0.0,0.0,0.0,0.0,0.0,0.0,0.0,0.0,0.0,0.0,0.0,0.0,0.0,0.0,0.0,0.0,0.0,0.0,0.0,0.0,0.0,0.0,0.0,0.0,0.0,0.0,0.0,0.0,0.0,0.0,0.0,0.0,0.0,0.0,0.0,0.0,0.0,0.0,0.0,0.0,0.0,0.0,0.0,0.0,0.0,0.0,0.0,0.0,0.0,0.0,0.0,0.0,0.0,0.0,0.0,0.0,0.0,0.0,0.0,0.0,0.0,0.0,0.0,0.0,0.0,0.0,0.0,0.0,0.0,0.0,0.0,0.0,0.0,0.0,0.0,0.0,0.0,0.0,0.0,-1.501,-1.6104,-1.6964,-1.739,-1.6546,-1.6095,0.0,0.0,0.0,0.0,0.0,0.0,0.0,0.0,0.0,0.0,0.0,0.0,0.0,0.0,0.0,0.0,0.0,0.0,0.0,0.0,0.0,0.0,0.0,0.0,0.0,0.0,0.0,0.0,0.0,0.0,0.0,0.0,0.0,0.0,0.0,0.0,0.0,0.0,0.0,0.0,0.0,0.0,0.0,0.0,0.0,0.0,0.0,0.0,0.0,0.0,0.0,0.0,0.0,0.0,0.0,0.0,0.0,0.0,0.0,0.0,0.0,0.0,0.0,0.0,0.0,0.0,0.0,0.0,0.0,0.0,0.0,0.0,0.0,0.0,0.0,0.0,0.0,0.0,0.0,0.0,0.0,0.0,0.0,0.0,0.0,0.0,0.0,0.0,0.0,0.0,0.0,0.0,0.0,0.0,0.0,0.0,0.0,0.0,0.0,0.0,0.0,0.0,0.0,0.0,0.0,0.0,0.0,0.0,-1.5991,-1.5948,-1.6804,-1.7605,-1.8307,-1.7326,-1.6691,0.0,0.0,0.0,0.0,0.0,0.0,0.0,0.0,0.0,0.0,0.0,0.0,0.0,0.0,0.0,0.0,0.0,0.0,0.0,0.0,0.0,0.0,0.0,0.0,0.0,0.0,0.0,0.0,0.0,0.0,0.0,0.0,0.0,0.0,0.0,0.0,0.0,0.0,0.0,0.0,0.0,0.0,0.0,0.0,0.0,0.0,0.0,0.0,0.0,0.0,0.0,0.0,0.0,0.0,0.0,0.0,0.0,0.0,0.0,0.0,0.0,0.0,0.0,0.0,0.0,0.0,0.0,0.0,0.0,0.0,0.0,0.0,0.0,0.0,0.0,0.0,0.0,0.0,0.0,0.0,0.0,0.0,0.0,0.0,0.0,0.0,0.0,0.0,0.0,0.0,0.0,0.0,0.0,0.0,0.0,0.0,0.0,0.0,0.0,0.0,0.0,0.0,0.0,0.0,0.0,0.0,0.0,0.0,-1.678,-1.7288,-1.7567,-1.7935,-1.8285,-1.7791,-1.7249,0.0,0.0,0.0,0.0,0.0,0.0,0.0,0.0,0.0,0.0,0.0,0.0,0.0,0.0,0.0,0.0,0.0,0.0,0.0,0.0,0.0,0.0,0.0,0.0,0.0,0.0,0.0,0.0,0.0,0.0,0.0,0.0,0.0,0.0,0.0,0.0,0.0,0.0,0.0,0.0,0.0,0.0,0.0,0.0,0.0,0.0,0.0,0.0,0.0,0.0,0.0,0.0,0.0,0.0,0.0,0.0,0.0,0.0,0.0,0.0,0.0,0.0,0.0,0.0,0.0,0.0,0.0,0.0,0.0,0.0,0.0,0.0,0.0,0.0,0.0,0.0,0.0,0.0,0.0,0.0,0.0,0.0,0.0,0.0,0.0,0.0,0.0,0.0,0.0,0.0,0.0,0.0,0.0,0.0,0.0,0.0,0.0,0.0,0.0,0.0,0.0,0.0,0.0,0.0,0.0,0.0,0.0,0.0,-1.5982,-1.5863,-1.6817,-1.7337,-1.7342,-1.7432,-1.7384,0.0,0.0,0.0,0.0,0.0,0.0,0.0,0.0,0.0,0.0,0.0,0.0,0.0,0.0,0.0,0.0,0.0,0.0,0.0,0.0,0.0,0.0,0.0,0.0,0.0,0.0,0.0,0.0,0.0,0.0,0.0,0.0,0.0,0.0,0.0,0.0,0.0,0.0,0.0,0.0,0.0,0.0,0.0,0.0,0.0,0.0,0.0,0.0,-1.6669,0.0,0.0,0.0,0.0,0.0,0.0,0.0,0.0,0.0,0.0,0.0,0.0,0.0,0.0,0.0,0.0,0.0,0.0,0.0,0.0,0.0,0.0,0.0,0.0,0.0,0.0,0.0,0.0,0.0,0.0,0.0,0.0,0.0,0.0,0.0,0.0,0.0,0.0,0.0,0.0,0.0,0.0,0.0,0.0,0.0,0.0,0.0,0.0,0.0,0.0,0.0,0.0,0.0,0.0,0.0,0.0,0.0,0.0,0.0,-1.6449,-1.6609,-1.7001,-1.7254,-1.738,-1.7748,-1.7716,0.0,0.0,0.0,0.0,0.0,0.0,0.0,0.0,0.0,0.0,0.0,0.0,0.0,0.0,0.0,0.0,0.0,0.0,0.0,0.0,0.0,0.0,0.0,0.0,0.0,0.0,0.0,0.0,0.0,0.0,0.0,0.0,0.0,0.0,0.0,0.0,0.0,0.0,0.0,0.0,0.0,0.0,0.0,0.0,0.0,0.0,0.0,0.0,0.0,0.0,0.0,0.0,0.0,0.0,0.0,0.0,0.0,0.0,0.0,0.0,0.0,0.0,0.0,0.0,0.0,0.0,0.0,0.0,0.0,0.0,0.0,0.0,0.0,0.0,0.0,0.0,0.0,0.0,0.0,0.0,0.0,0.0,0.0,0.0,0.0,0.0,0.0,0.0,0.0,0.0,0.0,0.0,0.0,0.0,0.0,0.0,0.0,0.0,0.0,0.0,0.0,0.0,0.0,0.0,0.0,0.0,0.0,-1.6897,-1.7065,-1.7827,-1.7509,-1.7523,-1.7922,-1.839,-1.8205,-1.7258,0.0,0.0,0.0,0.0,0.0,0.0,0.0,0.0,0.0,0.0,0.0,0.0,0.0,0.0,0.0,0.0,0.0,0.0,0.0,0.0,0.0,0.0,0.0,0.0,0.0,0.0,0.0,0.0,0.0,0.0,0.0,0.0,0.0,0.0,0.0,0.0,0.0,0.0,-1.5818,-1.6889,0.0,0.0,0.0,0.0,0.0,0.0,0.0,0.0,-1.7483,0.0,0.0,0.0,0.0,0.0,0.0,0.0,0.0,0.0,0.0,0.0,0.0,0.0,0.0,0.0,0.0,0.0,0.0,0.0,0.0,0.0,0.0,0.0,0.0,0.0,0.0,0.0,0.0,0.0,0.0,0.0,0.0,0.0,0.0,0.0,0.0,0.0,0.0,0.0,0.0,0.0,0.0,0.0,0.0,0.0,0.0,0.0,0.0,0.0,0.0,0.0,0.0,0.0,0.0,0.0,0.0,-1.6622,-1.5978,-1.6204,-1.7409,-1.77,-1.8028,-1.8383,-1.8943,-1.8615,-1.7265,0.0,0.0,0.0,0.0,0.0,0.0,0.0,0.0,0.0,0.0,0.0,0.0,0.0,0.0,0.0,0.0,0.0,0.0,0.0,0.0,0.0,0.0,0.0,0.0,0.0,0.0,0.0,0.0,0.0,0.0,0.0,0.0,0.0,0.0,0.0,0.0,0.0,0.0,0.0,-1.6244,-1.6433,0.0,0.0,0.0,0.0,0.0,0.0,0.0,0.0,-1.7697,0.0,0.0,0.0,0.0,0.0,0.0,0.0,0.0,0.0,0.0,0.0,0.0,0.0,0.0,0.0,0.0,0.0,0.0,0.0,0.0,0.0,0.0,0.0,0.0,0.0,0.0,0.0,0.0,0.0,0.0,0.0,0.0,0.0,0.0,0.0,0.0,0.0,0.0,0.0,0.0,0.0,0.0,0.0,0.0,0.0,0.0,0.0,0.0,0.0,0.0,0.0,0.0,0.0,0.0,0.0,-1.6558,-1.6457,-1.6671,-1.7292,-1.77,-1.7995,-1.8154,-1.8589,-1.8322,0.0,0.0,0.0,0.0,0.0,0.0,0.0,0.0,0.0,0.0,0.0,0.0,0.0,0.0,0.0,0.0,0.0,0.0,0.0,0.0,0.0,0.0,0.0,0.0,0.0,0.0,0.0,0.0,0.0,0.0,0.0,0.0,0.0,0.0,0.0,0.0,0.0,0.0,0.0,0.0,-1.6193,-1.6406,-1.6749,0.0,0.0,0.0,0.0,0.0,0.0,-1.6925,-1.7319,0.0,0.0,0.0,0.0,0.0,0.0,0.0,0.0,0.0,0.0,0.0,0.0,0.0,0.0,0.0,0.0,0.0,0.0,0.0,0.0,0.0,0.0,0.0,0.0,0.0,0.0,0.0,0.0,0.0,0.0,0.0,0.0,0.0,0.0,0.0,0.0,0.0,0.0,0.0,0.0,0.0,0.0,0.0,0.0,0.0,0.0,0.0,0.0,0.0,0.0,0.0,0.0,0.0,0.0,0.0,-1.6494,-1.6799,-1.7175,-1.7497,-1.7692,-1.785,-1.7908,-1.81,-1.7778,0.0,0.0,0.0,0.0,0.0,0.0,0.0,0.0,0.0,0.0,0.0,0.0,0.0,0.0,0.0,0.0,0.0,0.0,0.0,0.0,0.0,0.0,0.0,0.0,0.0,0.0,0.0,0.0,0.0,0.0,0.0,0.0,0.0,0.0,0.0,0.0,0.0,0.0,0.0,0.0,0.0,-1.6831,-1.6548,-1.6642,0.0,0.0,0.0,0.0,-1.6925,-1.6869,0.0,0.0,0.0,0.0,0.0,0.0,0.0,0.0,0.0,0.0,0.0,0.0,0.0,0.0,0.0,0.0,0.0,0.0,0.0,0.0,0.0,0.0,0.0,0.0,0.0,0.0,0.0,0.0,0.0,0.0,0.0,0.0,0.0,0.0,0.0,0.0,0.0,0.0,0.0,0.0,0.0,0.0,0.0,0.0,0.0,0.0,0.0,0.0,0.0,0.0,0.0,0.0,0.0,0.0,0.0,0.0,-1.5801,-1.5854,-1.6617,-1.809,-1.7934,-1.7985,-1.8315,-1.7963,-1.7131,0.0,0.0,0.0,0.0,0.0,0.0,0.0,0.0,0.0,0.0,0.0,0.0,0.0,0.0,0.0,0.0,0.0,0.0,0.0,0.0,0.0,0.0,0.0,0.0,0.0,0.0,0.0,0.0,0.0,0.0,0.0,0.0,0.0,0.0,0.0,0.0,0.0,0.0,0.0,0.0,0.0,-1.7583,-1.6393,-1.6735,-1.7041,0.0,0.0,-1.7611,-1.796,-1.772,0.0,0.0,0.0,0.0,0.0,0.0,0.0,0.0,0.0,0.0,0.0,0.0,0.0,0.0,0.0,0.0,0.0,0.0,0.0,0.0,0.0,0.0,0.0,0.0,0.0,0.0,0.0,0.0,0.0,0.0,0.0,0.0,0.0,0.0,0.0,0.0,0.0,0.0,0.0,0.0,0.0,0.0,0.0,0.0,0.0,0.0,0.0,0.0,0.0,0.0,0.0,0.0,0.0,0.0,0.0,-1.5473,-1.571,-1.5925,-1.6325,-1.6914,-1.714,-1.7291,-1.7438,-1.7214,-1.6597,0.0,0.0,0.0,0.0,0.0,0.0,0.0,0.0,0.0,0.0,0.0,0.0,0.0,0.0,0.0,0.0,0.0,0.0,0.0,0.0,0.0,0.0,0.0,0.0,0.0,0.0,0.0,0.0,0.0,0.0,0.0,0.0,0.0,0.0,0.0,0.0,0.0,0.0,0.0,0.0,0.0,0.0,-1.7068,-1.6978,0.0,0.0,0.0,-1.7288,-1.7841,0.0,0.0,0.0,0.0,0.0,0.0,0.0,0.0,0.0,0.0,0.0,0.0,0.0,0.0,0.0,0.0,0.0,0.0,0.0,0.0,0.0,0.0,0.0,0.0,0.0,0.0,0.0,0.0,0.0,0.0,0.0,0.0,0.0,0.0,0.0,0.0,0.0,0.0,0.0,0.0,0.0,0.0,0.0,0.0,0.0,0.0,0.0,0.0,0.0,0.0,0.0,0.0,0.0,0.0,0.0,0.0,0.0,-1.5964,-1.6145,-1.627,-1.6395,-1.6626,-1.673,-1.6696,-1.652,0.0,0.0,0.0,0.0,0.0,0.0,0.0,0.0,0.0,0.0,0.0,0.0,0.0,0.0,0.0,0.0,0.0,0.0,0.0,0.0,0.0,0.0,0.0,0.0,0.0,0.0,0.0,-1.4168,0.0,0.0,0.0,0.0,0.0,0.0,0.0,0.0,0.0,0.0,0.0,0.0,0.0,0.0,-1.7543,-1.774,-1.7438,-1.7369,0.0,0.0,-1.7436,-1.8119,-1.763,-1.7419,0.0,0.0,0.0,0.0,0.0,0.0,0.0,0.0,0.0,0.0,0.0,0.0,0.0,0.0,0.0,0.0,0.0,0.0,0.0,0.0,0.0,0.0,0.0,0.0,0.0,0.0,0.0,0.0,0.0,0.0,0.0,0.0,0.0,0.0,0.0,0.0,0.0,0.0,0.0,0.0,0.0,0.0,0.0,0.0,0.0,0.0,0.0,0.0,0.0,0.0,0.0,0.0,0.0,0.0,0.0,-1.6644,-1.6206,-1.6523,-1.7684,-1.695,-1.6576,-1.6678,-1.6144,-1.5342,0.0,0.0,0.0,0.0,0.0,0.0,0.0,0.0,0.0,0.0,0.0,0.0,0.0,0.0,0.0,0.0,0.0,0.0,0.0,0.0,0.0,0.0,0.0,0.0,0.0,0.0,0.0,0.0,0.0,0.0,0.0,0.0,0.0,0.0,0.0,0.0,0.0,0.0,0.0,0.0,0.0,-1.9096,-1.8025,-1.8282,-1.8624,0.0,0.0,-1.8799,-1.9443,-1.8986,-1.8381,-1.786,0.0,0.0,0.0,0.0,0.0,0.0,0.0,0.0,0.0,0.0,0.0,0.0,0.0,0.0,0.0,0.0,0.0,0.0,0.0,0.0,0.0,0.0,0.0,0.0,0.0,0.0,0.0,0.0,0.0,0.0,0.0,0.0,0.0,0.0,0.0,0.0,0.0,0.0,0.0,0.0,0.0,0.0,0.0,0.0,0.0,0.0,0.0,0.0,0.0,0.0,0.0,0.0,0.0,-1.595,-1.6583,-1.638,-1.6496,-1.6909,-1.6307,-1.5965,-1.601,-1.604,-1.5637,0.0,0.0,0.0,0.0,0.0,0.0,0.0,0.0,0.0,0.0,0.0,0.0,0.0,0.0,0.0,0.0,0.0,0.0,0.0,0.0,0.0,0.0,0.0,0.0,0.0,0.0,0.0,0.0,-1.4632,-1.4585,-1.4743,0.0,0.0,0.0,0.0,0.0,0.0,0.0,0.0,0.0,0.0,-1.9158,-1.9095,-1.8925,0.0,0.0,-1.9201,-1.9129,-1.9778,-1.8944,-1.8263,-1.8413,-1.7698,0.0,0.0,0.0,0.0,0.0,0.0,0.0,0.0,0.0,0.0,0.0,0.0,0.0,0.0,0.0,0.0,0.0,0.0,0.0,0.0,0.0,0.0,0.0,0.0,0.0,0.0,0.0,0.0,0.0,0.0,0.0,0.0,0.0,0.0,0.0,0.0,0.0,0.0,0.0,0.0,0.0,0.0,0.0,0.0,0.0,0.0,0.0,0.0,0.0,0.0,0.0,0.0,-1.6461,-1.6828,-1.6779,-1.685,-1.7066,-1.6282,-1.5899,-1.5921,-1.6123,-1.5906,0.0,0.0,0.0,0.0,0.0,0.0,0.0,0.0,0.0,0.0,0.0,0.0,0.0,0.0,0.0,0.0,0.0,0.0,0.0,0.0,0.0,0.0,0.0,0.0,0.0,0.0,0.0,0.0,-1.5284,-1.5294,-1.5704,0.0,0.0,0.0,0.0,0.0,0.0,0.0,0.0,0.0,0.0,-1.9726,-1.9866,-1.9526,-1.9349,-1.9691,-1.9482,-1.9406,-1.9671,-1.9212,-1.8879,-1.9073,0.0,0.0,0.0,0.0,0.0,0.0,0.0,0.0,0.0,0.0,0.0,0.0,0.0,0.0,0.0,0.0,0.0,0.0,0.0,0.0,0.0,0.0,0.0,0.0,0.0,0.0,0.0,0.0,0.0,0.0,-1.5664,0.0,0.0,0.0,0.0,0.0,0.0,0.0,0.0,0.0,0.0,0.0,0.0,0.0,0.0,0.0,0.0,0.0,0.0,0.0,0.0,0.0,0.0,-1.6208,-1.754,-1.7445,-1.777,-1.8456,-1.7265,-1.6605,-1.6659,-1.6352,-1.5994,-1.5521,0.0,0.0,0.0,0.0,0.0,0.0,0.0,0.0,0.0,0.0,0.0,0.0,0.0,0.0,0.0,0.0,0.0,0.0,0.0,0.0,0.0,0.0,0.0,0.0,0.0,0.0,-1.6302,-1.5923,-1.5865,0.0,0.0,0.0,0.0,0.0,0.0,0.0,0.0,0.0,0.0,-2.0704,-2.1194,-2.0219,-2.0038,-1.9767,-1.9259,-1.9607,-1.9778,-1.9186,-2.0089,-2.0627,0.0,0.0,0.0,0.0,0.0,0.0,0.0,0.0,0.0,0.0,0.0,0.0,0.0,0.0,0.0,0.0,0.0,0.0,0.0,0.0,0.0,0.0,0.0,0.0,0.0,0.0,0.0,-1.7257,-1.705,0.0,0.0,0.0,0.0,0.0,0.0,0.0,0.0,0.0,0.0,0.0,-1.8104,-1.8516,0.0,0.0,0.0,0.0,0.0,0.0,0.0,0.0,0.0,0.0,0.0,0.0,-1.7107,-1.7584,-1.7929,-1.8276,-1.8565,-1.7302,-1.6735,-1.7015,-1.6657,-1.636,-1.6091,0.0,0.0,0.0,0.0,0.0,0.0,0.0,0.0,0.0,0.0,0.0,0.0,0.0,0.0,0.0,0.0,0.0,0.0,0.0,0.0,0.0,0.0,0.0,0.0,0.0,-1.7666,0.0,0.0,0.0,0.0,0.0,0.0,0.0,0.0,0.0,0.0,0.0,-2.1143,-2.1145,-2.1237,-2.1064,-2.053,-2.0204,-2.0031,0.0,0.0,0.0,0.0,0.0,0.0,0.0,0.0,0.0,0.0,0.0,0.0,0.0,0.0,-2.4448,-2.2542,-2.1942,-2.1765,-2.1846,0.0,0.0,0.0,0.0,0.0,0.0,0.0,0.0,0.0,0.0,0.0,0.0,0.0,0.0,-1.8687,0.0,-1.8027,0.0,0.0,0.0,0.0,0.0,0.0,0.0,0.0,-1.9844,-1.9773,-1.9185,-1.9574,-1.9404,0.0,-1.8621,-1.8281,0.0,0.0,0.0,0.0,0.0,0.0,0.0,0.0,-1.7802,-1.8165,-1.8751,-1.9158,-1.9318,-1.8041,-1.7463,-1.7717,-1.7085,-1.6636,-1.6428,-1.6644,-1.6321,0.0,0.0,0.0,0.0,0.0,0.0,0.0,0.0,0.0,0.0,0.0,0.0,0.0,0.0,0.0,0.0,0.0,0.0,0.0,0.0,0.0,0.0,0.0,-1.8323,0.0,0.0,0.0,0.0,0.0,0.0,0.0,0.0,0.0,-2.1711,-2.218,-2.2614,-2.2693,-2.2354,-2.1866,-2.1138,0.0,0.0,0.0,0.0,0.0,0.0,0.0,-2.145,-2.298,-2.2785,-2.2859,-2.4149,-2.5213,-2.5848,-2.557,0.0,0.0,-2.373,-2.3144,-2.2899,-2.2742,-2.31,-2.3325,-2.299,-2.3065,-2.2865,0.0,0.0,0.0,0.0,0.0,0.0,0.0,0.0,-1.972,-1.9971,0.0,-1.924,0.0,0.0,0.0,0.0,0.0,0.0,0.0,0.0,-2.1577,-2.1513,-2.0811,-2.0771,-2.0794,-2.0753,-2.0356,-2.0063,-1.9767,-1.9119,0.0,0.0,0.0,0.0,0.0,0.0,-1.8175,-1.9192,-1.9802,-2.0342,-2.0698,-1.9404,-1.8669,-1.8604,-1.7572,-1.684,-1.6489,-1.7125,-1.6843,-1.5471,-1.6077,0.0,0.0,0.0,0.0,0.0,0.0,0.0,0.0,0.0,0.0,0.0,0.0,0.0,0.0,0.0,0.0,0.0,0.0,0.0,0.0,-1.8733,0.0,0.0,0.0,0.0,0.0,0.0,0.0,0.0,0.0,0.0,-2.2371,-2.407,-2.5112,-2.4149,0.0,0.0,0.0,0.0,-2.094,-2.0012,-2.0709,-2.1137,-2.0535,-2.1463,-2.2443,-2.2899,0.0,0.0,-2.5485,-2.6133,-2.6336,-2.5693,-2.5558,-2.5566,-2.5465,-2.4768,-2.4146,-2.3587,-2.3528,-2.3418,-2.3134,-2.3587,-2.374,-2.0009,0.0,0.0,0.0,0.0,-2.1652,-2.2123,-2.2413,-2.2439,-2.2009,-2.1256,-2.1392,0.0,0.0,0.0,0.0,0.0,0.0,-2.1587,-2.1757,-2.194,-2.1674,-2.0958,-2.095,-2.0853,-2.0646,-2.0496,-2.0444,-2.0526,-2.0699,-1.9991,-1.8529,0.0,0.0,0.0,0.0,-1.9335,-1.9649,-2.0268,-2.0654,-2.0794,-1.9427,-1.8313,-1.75,-1.742,-1.7287,-1.7208,-1.7407,-1.7377,-1.7106,-1.73,0.0,0.0,0.0,0.0,0.0,0.0,0.0,0.0,0.0,0.0,0.0,0.0,0.0,0.0,0.0,0.0,0.0,0.0,0.0,-1.8905,-1.8639,-1.888,0.0,0.0,0.0,0.0,0.0,0.0,0.0,0.0,0.0,-2.4538,-2.483,-2.5062,0.0,0.0,-2.3341,-2.2687,-2.188,-2.1204,-2.0924,0.0,0.0,0.0,-2.2231,-2.2687,-2.3846,-2.4393,-2.4694,-2.4805,-2.4983,-2.5082,-2.487,-2.4805,-2.4644,-2.4154,-2.4298,-2.4382,-2.4291,-2.4287,-2.427,-2.4218,-2.4292,-2.4036,-2.2103,-2.2152,-2.2054,-2.2232,-2.2647,-2.3336,-2.3784,-2.401,-2.4108,-2.3746,-2.3102,-2.3079,-2.2598,-2.177,-2.1906,0.0,0.0,0.0,-2.2715,-2.2857,-2.2564,-2.2041,-2.1355,-2.1314,-2.1237,-2.1079,-2.0909,-2.095,-2.1198,-2.1389,-2.0991,-2.0,0.0,0.0,-1.9584,-1.9703,-1.9988,-2.0392,-2.0807,-2.1047,-2.1174,-2.0078,-1.8888,-1.7665,-1.7807,-1.7804,-1.7616,-1.7639,-1.7706,-1.7919,-1.7919,-1.7717,0.0,0.0,0.0,0.0,0.0,0.0,0.0,0.0,0.0,0.0,0.0,-1.7837,-1.8292,0.0,0.0,0.0,-1.9549,-1.9677,-1.9857,-1.9678,0.0,0.0,0.0,0.0,0.0,0.0,0.0,-2.4143,-2.5249,-2.5974,-2.5966,-2.5506,-2.5263,-2.5511,-2.4555,-2.3604,-2.298,0.0,-2.1653,-2.1524,-2.1962,-2.2374,-2.2625,-2.2466,-2.2714,-2.3865,-2.4328,-2.4506,-2.4515,-2.4559,-2.4641,-2.4616,-2.442,-2.407,-2.3636,-2.3616,-2.363,-2.3697,-2.3735,-2.3756,-2.3806,-2.3751,-2.3502,-2.3488,-2.3461,-2.2354,-2.2539,-2.3655,-2.4217,-2.4446,-2.4459,-2.4952,-2.516,-2.5052,-2.4448,-2.437,-2.4699,-2.4013,0.0,-2.5043,-2.4371,-2.3967,-2.3852,-2.3192,-2.2471,-2.1797,-2.1759,-2.1797,-2.1768,-2.1464,-2.1487,-2.1768,-2.1464,-2.1495,-2.1789,-2.1063,-2.0771,-2.082,-2.021,-2.0352,-2.1324,-2.1348,-2.1454,-2.1681,-2.1044,-2.0036,-1.8667,-1.8634,-1.8401,-1.7938,-1.7927,-1.7987,-1.8128,-1.8132,-1.7902,-1.7467,0.0,0.0,0.0,0.0,0.0,0.0,0.0,0.0,0.0,0.0,0.0,0.0,0.0,0.0,0.0,-2.0409,0.0,-2.1523,-2.1339,0.0,0.0,0.0,-2.2707,-2.4029,-2.4717,-2.5236,-2.5565,0.0,0.0,-2.6514,0.0,-2.5499,-2.5471,-2.4853,-2.4037,-2.3081,-2.2568,-2.2189,-2.1894,-2.2094,-2.2299,-2.235,-2.2324,-2.2572,-2.3256,-2.3918,-2.4309,-2.4356,-2.4533,-2.4721,-2.468,-2.4197,-2.3748,-2.3712,-2.3001,-2.2366,-2.2398,-2.2417,-2.2483,-2.259,-2.268,-2.2689,-2.267,-2.2985,-2.2723,-2.3453,-2.4728,-2.4898,-2.5239,-2.5602,-2.5823,-2.5632,-2.5127,-2.5524,-2.5746,-2.5807,-2.551,-2.5231,-2.4862,-2.4684,-2.3983,-2.2867,-2.2688,-2.2203,-2.1526,-2.1509,-2.1548,-2.1634,-2.1589,-2.1634,-2.1789,-2.1678,-2.1678,-2.1797,-2.1548,-2.1487,-2.1562,-2.1398,-2.142,-2.1678,-2.167,-2.1457,-2.0969,-2.0779,-2.0386,-1.974,-1.9723,-1.9467,-1.898,-1.8937,-1.878,-1.8432,-1.8408,-1.8408,-1.843,-1.7862,0.0,0.0,0.0,0.0,0.0,0.0,0.0,0.0,0.0,-2.0617,-1.9966,0.0,-2.0345,0.0,-2.1233,-2.155,-2.2347,-2.2165,0.0,0.0,-2.4364,-2.4471,-2.6191,-2.6079,-2.5777,-2.5615,-2.5761,-2.5651,-2.5107,-2.4887,-2.4618,-2.4273,-2.3896,-2.3541,-2.3295,-2.2709,-2.2274,-2.2209,-2.2274,-2.2319,-2.2338,-2.2487,-2.2666,-2.2846,-2.3197,-2.3441,-2.3441,-2.3501,-2.3527,-2.3535,-2.3403,-2.323,-2.3085,-2.2851,-2.2694,-2.2515,-2.2451,-2.2487,-2.2569,-2.2649,-2.2632,-2.2547,-2.2828,-2.3064,-2.3659,-2.4444,-2.4535,-2.4709,-2.5007,-2.5104,-2.4942,-2.4595,-2.5026,-2.52,-2.5157,-2.5141,-2.4857,-2.4385,-2.4057,-2.3407,-2.2581,-2.225,-2.1888,-2.1511,-2.1487,-2.1534,-2.1597,-2.165,-2.1694,-2.1746,-2.1746,-2.1768,-2.1789,-2.1768,-2.1768,-2.1789,-2.1768,-2.1768,-2.1789,-2.1789,-2.1582,-2.1193,-2.1311,-2.1044,-2.0402,-2.0637,-2.0453,-1.982,-1.989,-1.9712,-1.9204,-1.917,-1.9209,-1.9314,-1.8904,-1.9002,0.0,0.0,0.0,0.0,0.0,0.0,0.0,0.0,0.0,0.0,0.0,-2.1016,-2.1468,-2.212,-2.2709,-2.3143,-2.368,-2.4568,-2.5841,-2.5472,-2.5523,-2.6486,-2.6195,-2.579,-2.5333,-2.5263,-2.5088,-2.4565,-2.43,-2.409,-2.3839,-2.3495,-2.328,-2.3235,-2.2891,-2.2668,-2.2677,-2.2633,-2.2651,-2.2669,-2.2781,-2.2883,-2.2925,-2.3058,-2.3138,-2.3162,-2.3242,-2.3312,-2.3344,-2.3309,-2.3277,-2.3179,-2.3065,-2.2975,-2.2883,-2.2824,-2.2807,-2.2641,-2.2649,-2.2614,-2.2603,-2.2639,-2.3042,-2.326,-2.3341,-2.3422,-2.3579,-2.3741,-2.3835,-2.3885,-2.3885,-2.3951,-2.3976,-2.3885,-2.3976,-2.3902,-2.372,-2.3088,-2.2679,-2.2506,-2.1861,-2.1559,-2.1581,-2.1589,-2.1573,-2.1589,-2.1672,-2.1702,-2.1694,-2.1746,-2.1768,-2.1797,-2.1789,-2.1797,-2.1789,-2.1746,-2.1746,-2.1789,-2.1789,-2.1789,-2.1789,-2.2059,-2.1813,-2.1022,-2.1507,-2.1439,-2.07,-2.0868,-2.0728,-2.0189,-2.0135,-2.0135,-2.0144,-2.0135,-2.043,0.0,-2.109,0.0,0.0,0.0,0.0,0.0,0.0,0.0,0.0,-2.2081,-2.1749,-2.1667,-2.2962,-2.3831,-2.3931,-2.5226,-2.6086,-2.6186,-2.6186,-2.6096,-2.5845,-2.5777,-2.5543,-2.4875,-2.481,-2.4706,-2.433,-2.3944,-2.3715,-2.3709,-2.3456,-2.3219,-2.3206,-2.3133,-2.3051,-2.31,-2.31,-2.304,-2.3063,-2.3126,-2.3198,-2.3253,-2.3318,-2.3291,-2.3314,-2.3513,-2.3631,-2.364,-2.3649,-2.364,-2.3619,-2.3414,-2.3277,-2.3189,-2.3245,-2.3144,-2.279,-2.2685,-2.265,-2.1585,-2.1593,-2.1698,-2.1738,-2.1754,-2.1762,-2.2549,-2.377,-2.3794,-2.381,-2.3843,-2.3902,-2.3926,-2.3885,-2.3926,-2.3564,-2.2916,-2.2793,-2.2328,-2.1668,-2.1505,-2.1432,-2.1417,-2.1425,-2.1425,-2.1456,-2.1573,-2.1612,-2.162,-2.1642,-2.1664,-2.1716,-2.1724,-2.173,-2.1789,0.0,0.0,0.0,-2.1789,-2.1789,-2.1789,-2.2059,-2.2252,-2.2321,-2.2641,0.0,-2.1976,-2.1989,-2.1654,-2.0956,-2.0894,0.0,0.0,0.0,0.0,0.0,0.0,0.0,0.0,0.0,0.0,0.0,-2.2052,-2.2129,-2.2485,-2.3048,-2.3107,-2.2553,-2.3288,-2.4067,-2.4701,-2.5027,-2.5488,-2.6113,-2.6186,-2.6087,-2.5836,-2.5768,-2.5453,-2.4445,-2.4322,-2.4077,-2.351,-2.3265,-2.3337,-2.3543,-2.3483,-2.3486,-2.3646,-2.3353,-2.3124,-2.31,-2.3129,-2.3111,-2.3093,-2.3328,-2.3522,-2.3544,-2.3707,-2.381,-2.3834,-2.3858,-2.3919,-2.3926,-2.3976,-2.3917,-2.3744,-2.3671,-2.3619,-2.3423,-2.3401,-2.3286,-2.2994,-2.2952,-2.2936,-2.1285,0.0,-2.1285,-2.1341,0.0,-2.1348,-2.1856,-2.2709,-2.2662,-2.2598,-2.2606,-2.2711,-2.2734,-2.267,-2.2742,-2.2514,-2.205,-2.2075,-2.1808,-2.1363,-2.1363,-2.1355,-2.1363,-2.1363,-2.1379,-2.1363,-2.1464,-2.155,-2.1589,-2.165,-2.1768,-2.194,-2.194,-2.2056,-2.2226,-2.2262,-2.2169,-2.199,-2.2169,-2.2262,-2.2262,-2.25,-2.266,-2.2721,0.0,0.0,0.0,0.0,0.0,0.0,0.0,0.0,0.0,0.0,0.0,-2.232,-2.2294,-2.2294,-2.2337,-2.2316,-2.2455,-2.2901,-2.3011,-2.3067,-2.3139,-2.3545,-2.3641,-2.3297,-2.394,-2.4402,-2.442,-2.5108,-2.5425,-2.5108,-2.5371,-2.5402,-2.4918,-2.4823,-2.456,-2.4007,-2.3837,-2.3645,-2.3177,-2.3221,-2.3348,-2.3495,-2.3616,-2.3676,-2.3753,-2.3593,-2.3459,-2.3468,-2.3455,-2.35,-2.3553,-2.3701,-2.3867,-2.3896,-2.4014,-2.4092,-2.4094,-2.4084,-2.4104,-2.4094,-2.4132,-2.4103,-2.3996,-2.3976,-2.3948,-2.3837,-2.3786,-2.3701,-2.3445,-2.333,-2.3188,-2.1285,-2.1285,-2.1285,-2.1341,-2.1365,-2.1388,-2.1464,-2.1542,0.0,0.0,0.0,-2.155,-2.1542,-2.1464,-2.1542,-2.1503,-2.1409,-2.1394,-2.1379,-2.1285,-2.1332,-2.134,-2.1285,-2.1348,-2.1348,-2.1317,-2.1425,-2.1548,-2.1672,-2.1768,-2.1953,-2.222,-2.2275,-2.2385,-2.2669,-2.2747,-2.2625,-2.2393,-2.2572,-2.2703,-2.2703,-2.2969,-2.3011,-2.279,-2.3256,-2.3392,-2.3193,-2.3383,-2.3213,-2.2553,-2.253,-2.25,-2.2508,-2.25,-2.2825,-2.3522,-2.3548,-2.353,-2.3594,-2.3553,-2.353,-2.3508,-2.3643,-2.3721,-2.3795,-2.3801,-2.3804,-2.3804,-2.4402,-2.4502,-2.3877,-2.4954,-2.5253,-2.3922,-2.4393,-2.452,-2.3922,-2.3804,-2.3792,-2.3576,-2.3598,-2.3477,-2.3283,-2.3431,-2.3562,-2.3585,-2.3698,-2.3804,-2.3804,-2.3774,-2.3753,-2.3753,-2.3786,-2.3917,-2.3967,-2.4045,-2.4132,-2.4151,-2.419,-2.4199,-2.4199,-2.4199,-2.4199,-2.419,-2.4199,-2.419,-2.419,-2.417,-2.4199,-2.4199,-2.419,-2.4133,-2.3917,-2.3692,-2.3477,-2.1285,-2.1285,-2.1285,-2.1285,-2.1285,-2.1309,-2.1363,-2.1433,-2.155,-2.1589,-2.1581,-2.1581,-2.1589,-2.155,-2.1464,-2.1425,-2.1386,-2.1332,-2.1301,0.0,-2.1554,-2.1507,-2.1325,-2.1534,-2.1526,-2.1356,-2.1661,-2.184,-2.189,-2.2144,-2.2376,-2.2432,-2.2459,-2.2538,-2.2695,-2.2927,-2.3019,-2.296,-2.279,-2.2703,-2.2703,-2.2977,-2.3095,-2.3061,-2.3336,-2.3494,-2.3439,-2.3462,-2.3431,-2.3324,-2.3347,-2.3324,-2.3307,-2.3329,-2.3401,-2.3508,-2.3571,-2.3594,-2.3594,-2.3652,-2.3643,-2.3585,-2.3665,-2.373,-2.3804,-2.3801,-2.3804,-2.3804,-2.3931,-2.3931,-2.3813,-2.4049,-2.413,-2.385,-2.3904,-2.3904,-2.3804,-2.3804,-2.3783,-2.3762,-2.3753,-2.3732,-2.3689,-2.371,-2.3741,-2.3762,-2.3786,-2.3825,-2.3837,-2.3804,-2.3804,-2.3825,-2.3896,-2.3967,-2.4047,-2.4113,-2.42,-2.4199,-2.4227,-2.4236,-2.4219,-2.4218,-2.4227,-2.4199,-2.4199,-2.4199,-2.4209,-2.4199,-2.4218,-2.4209,-2.4209,-2.417,-2.4122,-2.4065,-2.3926,-2.1285,-2.1285,-2.1285,-2.1333,-2.1357,-2.1437,-2.1467,-2.1503,-2.1573,-2.1694,-2.1819,-2.1819,-2.1832,-2.1911,-2.1944,-2.1857,-2.1735,-2.1786,-2.1756,-2.1691,-2.179,-2.1777,-2.1713,-2.1802,-2.184,-2.1807,-2.1982,-2.2124,-2.2239,-2.2368,-2.2582,-2.2798,-2.295,-2.3084,-2.3133,-2.3256,-2.3304,-2.3313,-2.3208,-2.3142,-2.3151,-2.3256,-2.3313,-2.3321,-2.3439,-2.3494,-2.3494,-2.3494,-2.3494,-2.3494,-2.3494,-2.3494,-2.3494,-2.3494,-2.3508,-2.3539,-2.3548,-2.3594,-2.3652,-2.3687,-2.3678,-2.3643,-2.373,-2.3765,-2.3804,-2.3801,-2.3804,-2.3804,-2.3804,-2.3804,-2.3804,-2.3804,-2.3804,-2.3804,-2.3804,-2.3804,-2.3804,-2.3804,-2.3804,-2.3804,-2.3804,-2.3804,-2.3804,-2.3804,-2.3804,-2.3795,-2.3869,-2.3972,-2.4089,-2.4126,-2.4079,-2.3981,-2.4057,-2.4164,-2.4257,-2.4329,-2.4409,-2.4453,-2.4469,-2.4432,-2.4349,-2.4293,-2.4264,-2.4208,-2.4181,-2.4238,-2.4284,-2.4247,-2.4238,-2.4303,-2.4256,-2.4209,-2.4199,-2.42,-2.4086,-2.1285,-2.1285,-2.1285,-2.1341,-2.1405,-2.157,-2.1638,-2.1634,-2.1733,-2.1915,-2.2113,-2.2056,-2.2096,-2.222,-2.2322,-2.2248,-2.2076,-2.2124,-2.2088,-2.2019,-2.2056,-2.2047,-2.2019,-2.2064,-2.2141,-2.222,-2.2284,-2.2439,-2.2617,-2.2695,-2.2875,-2.3184,-2.3392,-2.3494,-2.3494,-2.3494,-2.3494,-2.3494,-2.3494,-2.3494,-2.3494,-2.3494,-2.3494,-2.3494,-2.3494,-2.3494,-2.3494,-2.3494,-2.3494,-2.3494,-2.3494,-2.3499,-2.3526,-2.3544,-2.3589,-2.3665,-2.3678,-2.3725,-2.3834,-2.3834,-2.3834,-2.3825,-2.3885,-2.3924,-2.3905,-2.391,-2.3881,-2.3816,-2.3804,-2.3804,-2.3804,-2.3804,-2.3804,-2.3804,-2.3804,-2.3837,-2.3849,-2.3878,-2.389,-2.3921,-2.3941,-2.395,-2.393,-2.395,-2.395,-2.399,-2.4088,-2.4229,-2.4381,-2.4408,-2.4346,-2.4293,-2.4266,-2.4301,-2.4489,-2.4566,-2.4617,-2.4682,-2.4681,-2.4604,-2.4472,-2.4337,-2.4136,-2.3979,-2.3777,-2.3793,-2.4044,-2.4052,-2.4081,-2.4272,-2.4275,-2.4125,-2.3887,-2.3676,-2.3814,-2.1309,-2.1285,-2.1317,-2.1285,-2.1371,-2.163,-2.1774,-2.1819,-2.2086,-2.2405,-2.2535,-2.2198,-2.2124,-2.2267,-2.2275,-2.2256,-2.2192,-2.2068,-2.2019,-2.2056,-2.224,-2.224,-2.2056,-2.226,-2.2307,-2.2275,-2.2555,-2.2824,-2.2959,-2.323,-2.3407,-2.3471,-2.3494,-2.3494,-2.3494,-2.3494,-2.3494,-2.3494,-2.3494,-2.3494,-2.3494,-2.3494,-2.3494,-2.3494,-2.3494,-2.3494,-2.3494,-2.3494,-2.3494,-2.3494,-2.3508,-2.3549,-2.3667,-2.368,-2.3753,-2.3946,-2.4057,-2.4201,-2.4311,-2.4284,-2.422,-2.4229,-2.4238,-2.4229,-2.4247,-2.4283,-2.4183,-2.3919,-2.3825,-2.3837,-2.3804,-2.3807,-2.3828,-2.3849,-2.3828,-2.3878,-2.4028,-2.4087,-2.4145,-2.4337,-2.4301,-2.4337,-2.4301,-2.4311,-2.4319,-2.431,-2.4346,-2.4399,-2.445,-2.4467,-2.4526,-2.4584,-2.455,-2.4489,-2.4528,-2.4623,-2.4719,-2.4713,-2.4701,-2.4704,-2.4573,-2.4069,-2.3491,-2.3586,-2.2899,-2.2802,-2.3223,-2.3405,-2.3538,-2.3914,-2.3987,-2.3906,-2.3263,-2.2751,-2.2785,-2.1534,-2.1565,-2.167,-2.1705,-2.1735,-2.187,-2.1928,-2.194,-2.2073,-2.226,-2.2506,-2.2409,-2.2492,-2.2756,-2.2917,-2.2883,-2.273,-2.2747,-2.2738,-2.266,-2.2686,-2.2642,-2.2544,-2.2642,-2.2694,-2.2747,-2.2985,-2.3175,-2.3304,-2.343,-2.3494,-2.3494,-2.3494,-2.3494,-2.3494,-2.3494,-2.3494,-2.3494,-2.3494,-2.3494,-2.3494,-2.3494,-2.3494,-2.3494,-2.3494,-2.3494,-2.3494,-2.3494,-2.3544,-2.362,-2.362,-2.3698,-2.3867,-2.3876,-2.3917,-2.4005,-2.4115,-2.4229,-2.4293,-2.431,-2.4363,-2.4363,-2.4363,-2.4363,-2.4372,-2.438,-2.4319,-2.4192,-2.4155,-2.4146,-2.4146,-2.4146,-2.4136,-2.4146,-2.4174,-2.419,-2.4244,-2.4274,-2.4316,-2.4404,-2.4405,-2.4425,-2.4408,-2.4408,-2.4459,-2.4543,-2.4568,-2.461,-2.4719,-2.4744,-2.4789,-2.4865,-2.4861,-2.4861,-2.4861,-2.4912,-2.4949,-2.4989,-2.4989,-2.4966,-2.47,-2.4141,-2.3553,-2.3394,-2.2567,-2.221,-2.2706,-2.2675,-2.2722,-2.3144,-2.3076,-2.2822,-2.2471,-2.2205,-2.2356,-2.1625,-2.1746,-2.1928,-2.1998,-2.2019,-2.2099,-2.2108,-2.2121,-2.2178,-2.2307,-2.2479,-2.2624,-2.2833,-2.3119,-2.3313,-2.3298,-2.3193,-2.3217,-2.3201,-2.3103,-2.297,-2.291,-2.2927,-2.291,-2.2995,-2.3126,-2.3241,-2.3369,-2.3485,-2.3494,-2.3494,-2.3494,-2.3494,-2.3494,-2.3494,-2.3494,-2.3494,-2.3494,-2.3494,-2.3494,-2.3494,-2.3494,-2.3494,-2.3494,-2.3494,-2.3499,-2.3549,-2.3558,-2.3638,-2.3765,-2.3765,-2.3867,-2.4037,-2.4056,-2.4086,-2.4182,-2.4275,-2.4365,-2.4417,-2.451,-2.4559,-2.4559,-2.4559,-2.455,-2.4559,-2.4568,-2.4559,-2.4559,-2.4559,-2.4533,-2.4416,-2.4408,-2.4408,-2.4408,-2.4408,-2.4413,-2.4458,-2.4495,-2.4498,-2.4554,-2.4612,-2.4559,-2.4568,-2.4584,-2.4657,-2.4753,-2.4793,-2.4817,-2.495,-2.4987,-2.4991,-2.5002,-2.5057,-2.5082,-2.5095,-2.5098,-2.5146,-2.518,-2.5168,-2.5018,-2.4696,-2.3925,-2.3157,-2.2558,-2.2016,-2.1828,-2.2028,-2.1988,-2.1971,-2.2137,-2.2086,-2.185,-2.1701,-2.1576,-2.1351,-2.1472,-2.1708,-2.1911,-2.2027,-2.2019,-2.2272,-2.2405,-2.2377,-2.2552,-2.265,-2.2677,-2.2808,-2.2961,-2.3095,-2.3144,-2.3175,-2.3265,-2.3184,-2.3144,-2.3119,-2.2986,-2.297,-2.3095,-2.2952,-2.3028,-2.3265,-2.3321,-2.3392,-2.3494,-2.3494,-2.3494,-2.3494,-2.3494,-2.3494,-2.3494,-2.3494,-2.3494,-2.3494,-2.3494,-2.3508,-2.3508,-2.3508,-2.3508,-2.353,-2.3517,-2.3589,-2.3689,-2.3701,-2.3786,-2.3976,-2.3996,-2.4047,-2.4164,-2.4192,-2.4338,-2.4594,-2.4657,-2.4753,-2.4908,-2.4946,-2.4936,-2.495,-2.4936,-2.4941,-2.4913,-2.4922,-2.4913,-2.495,-2.4903,-2.4774,-2.45,-2.4493,-2.4459,-2.445,-2.4424,-2.4513,-2.4664,-2.4685,-2.4778,-2.4879,-2.4912,-2.4889,-2.4927,-2.4973,-2.4936,-2.495,-2.4973,-2.4987,-2.4987,-2.5,-2.4995,-2.5021,-2.507,-2.5085,-2.511,-2.5144,-2.5189,-2.521,-2.5143,-2.4981,-2.4062,-2.3241,-2.2494,-2.172,-2.105,-2.0867,-2.1232,-2.1416,-2.1478,-2.1513,-2.1348,-2.1164,-2.0986,-2.042,-2.0261,-2.2126,-2.2343,-2.2417,-2.2436,-2.2472,-2.2555,-2.2598,-2.2623,-2.2659,-2.2712,-2.2712,-2.2756,-2.2893,-2.3111,-2.3111,-2.3208,-2.3398,-2.336,-2.336,-2.3354,-2.3208,-2.3193,-2.3217,-2.3177,-2.3184,-2.3289,-2.3383,-2.3453,-2.3485,-2.3494,-2.3494,-2.3494,-2.3494,-2.3494,-2.3494,-2.3494,-2.3494,-2.3485,-2.3494,-2.3544,-2.362,-2.3642,-2.3685,-2.3828,-2.3694,-2.3707,-2.3887,-2.3887,-2.3958,-2.4115,-2.4115,-2.4201,-2.4366,-2.4428,-2.4487,-2.4629,-2.4713,-2.4798,-2.4856,-2.496,-2.5,-2.5,-2.5,-2.5,-2.5,-2.5,-2.5,-2.5,-2.5,-2.4913,-2.4846,-2.4793,-2.4783,-2.4783,-2.4783,-2.4802,-2.4874,-2.4894,-2.4903,-2.4977,-2.5,-2.5,-2.5,-2.5,-2.5,-2.5,-2.5,-2.5,-2.5,-2.5004,-2.4999,-2.5047,-2.5095,-2.512,-2.5168,-2.5189,-2.521,-2.521,-2.5163,-2.5105,-2.4522,-2.33,-2.2458,-2.1979,-2.0996,-2.027,-2.0747,-2.0747,-2.0831,-2.0766,-2.0618,-2.0601,-2.0287,-2.0087,-1.9909,-2.247,-2.2605,-2.265,-2.2712,-2.2712,-2.2712,-2.2712,-2.2712,-2.2712,-2.2712,-2.2712,-2.2712,-2.2816,-2.3011,-2.3077,-2.3217,-2.343,-2.3462,-2.3494,-2.3485,-2.3321,-2.3256,-2.3289,-2.3265,-2.3265,-2.3313,-2.3439,-2.3494,-2.3494,-2.3494,-2.3494,-2.3494,-2.3494,-2.3494,-2.3508,-2.3535,-2.358,-2.358,-2.3625,-2.3725,-2.3804,-2.3795,-2.3878,-2.4027,-2.3939,-2.391,-2.4047,-2.4066,-2.4134,-2.4266,-2.4312,-2.4348,-2.449,-2.4556,-2.4615,-2.4629,-2.4738,-2.4827,-2.4856,-2.4941,-2.5,-2.5,-2.5,-2.5,-2.5,-2.5,-2.5,-2.5,-2.5,-2.5,-2.5,-2.4987,-2.5,-2.5,-2.5,-2.5,-2.5,-2.4987,-2.4987,-2.4987,-2.5,-2.5,-2.5,-2.5,-2.5,-2.5,-2.5,-2.5,-2.5,-2.4995,-2.5002,-2.5057,-2.5082,-2.511,-2.5146,-2.518,-2.5201,-2.5212,-2.5193,-2.5164,-2.4632,-2.3407,-2.2518,-2.2067,-2.1378,-2.0518,-2.0108,-2.0108,-2.0108,-2.0108,-2.0193,-2.0278,-2.0114,-2.0027,-1.9928,-2.2405,-2.2451,-2.2623,-2.2712,-2.2712,-2.2712,-2.2712,-2.2712,-2.2712,-2.2712,-2.2712,-2.2712,-2.279,-2.2919,-2.3045,-2.3184,-2.3313,-2.3448,-2.3494,-2.3485,-2.325,-2.3226,-2.3313,-2.3184,-2.3217,-2.3304,-2.3448,-2.3494,-2.3494,-2.3485,-2.3508,-2.3508,-2.353,-2.3553,-2.3508,-2.3664,-2.3701,-2.3723,-2.3876,-2.3967,-2.3987,-2.3987,-2.4075,-2.4201,-2.4192,-2.4201,-2.422,-2.421,-2.4284,-2.4456,-2.4482,-2.4509,-2.4517,-2.4556,-2.4622,-2.4692,-2.4759,-2.4856,-2.4964,-2.4996,-2.5,-2.5,-2.5,-2.5,-2.5,-2.5,-2.5,-2.5,-2.5,-2.5,-2.5,-2.5,-2.5,-2.5,-2.5,-2.5,-2.5,-2.5,-2.5,-2.5,-2.5,-2.5,-2.5,-2.5,-2.5,-2.5,-2.5,-2.5,-2.5014,-2.5008,-2.4999,-2.5038,-2.5113,-2.5174,-2.516,-2.5158,-2.5182,-2.5205,-2.5197,-2.5101,-2.432,-2.3266,-2.244,-2.1894,-2.1033,-2.021,-2.0108,-2.0108,-2.0108,-2.0108,-2.0098,-2.0088,-2.0069,-2.005,-2.0069,-2.2614,-2.2614,-2.265,-2.2712,-2.2712,-2.2712,-2.2712,-2.2712,-2.2712,-2.2712,-2.2712,-2.2712,-2.2782,-2.291,-2.3036,-2.316,-2.3313,-2.3448,-2.3494,-2.3453,-2.3304,-2.3289,-2.3378,-2.328,-2.3313,-2.343,-2.3494,-2.3494,-2.3508,-2.3508,-2.3535,-2.362,-2.3642,-2.3716,-2.3831,-2.3885,-2.3917,-2.3917,-2.3967,-2.4036,-2.4115,-2.4125,-2.422,-2.4403,-2.4411,-2.4411,-2.442,-2.4411,-2.4429,-2.4509,-2.4509,-2.4509,-2.4517,-2.4606,-2.4686,-2.4707,-2.487,-2.495,-2.4977,-2.5,-2.5,-2.5,-2.5,-2.5,-2.5,-2.5,-2.5,-2.5,-2.5,-2.5,-2.5,-2.5,-2.5,-2.5,-2.5,-2.5,-2.5,-2.5,-2.5,-2.5,-2.5,-2.5,-2.5,-2.4991,-2.5004,-2.5004,-2.5004,-2.5027,-2.506,-2.5079,-2.5118,-2.5195,-2.524,-2.5262,-2.5262,-2.5253,-2.5293,-2.5188,-2.511,-2.4908,-2.4111,-2.3129,-2.2339,-2.1551,-2.0682,-2.0255,-2.0154,-2.0126,-2.0126,-2.0117,-2.0107,-2.0107,-2.0117,-2.0126,-2.0144,-2.2712,-2.2712,-2.2712,-2.2712,-2.2712,-2.2712,-2.2712,-2.2712,-2.2712,-2.2712,-2.2712,-2.2712,-2.2738,-2.2859,-2.3011,-2.3135,-2.3241,-2.3415,-2.3494,-2.3462,-2.3313,-2.3256,-2.3298,-2.3232,-2.3345,-2.3471,-2.3494,-2.353,-2.3571,-2.3576,-2.3633,-2.3783,-2.3825,-2.3867,-2.3978,-2.4056,-2.4086,-2.4095,-2.4153,-2.4229,-2.4275,-2.4321,-2.4366,-2.4482,-2.4509,-2.4509,-2.4509,-2.4509,-2.4509,-2.45,-2.4534,-2.4532,-2.4558,-2.466,-2.4734,-2.4759,-2.4889,-2.5,-2.5,-2.5,-2.5,-2.5,-2.5,-2.5,-2.5,-2.5,-2.5,-2.5,-2.5,-2.5,-2.5,-2.5,-2.5004,-2.5053,-2.5014,-2.5,-2.5,-2.5,-2.5004,-2.5031,-2.5044,-2.5057,-2.5063,-2.5066,-2.5066,-2.5066,-2.5076,-2.5088,-2.512,-2.5145,-2.521,-2.5262,-2.5284,-2.5313,-2.535,-2.5375,-2.5414,-2.5215,-2.4997,-2.4652,-2.4065,-2.2877,-2.19,-2.1186,-2.0367,-2.0273,-2.0184,-2.016,-2.016,-2.0142,-2.0142,-2.0159,-2.0175,-2.0196,-2.0204,-2.2712,-2.2712,-2.2712,-2.2712,-2.2712,-2.2712,-2.2712,-2.2712,-2.2712,-2.2712,-2.2712,-2.2712,-2.2712,-2.2764,-2.2986,-2.3111,-2.316,-2.3392,-2.3499,-2.3444,-2.3271,-2.3151,-2.306,-2.3166,-2.3365,-2.3544,-2.3576,-2.3625,-2.3732,-2.3723,-2.3816,-2.3987,-2.4007,-2.4036,-2.4095,-2.4154,-2.4229,-2.4248,-2.4384,-2.4464,-2.4482,-2.4473,-2.4473,-2.4509,-2.4509,-2.4509,-2.4509,-2.4509,-2.4509,-2.4507,-2.4558,-2.4589,-2.4622,-2.4713,-2.4779,-2.4803,-2.4936,-2.4987,-2.5,-2.5,-2.5,-2.5,-2.5,-2.5,-2.5,-2.5,-2.501,-2.5014,-2.5014,-2.5004,-2.5018,-2.5021,-2.5038,-2.5079,-2.5063,-2.5033,-2.5004,-2.5018,-2.5051,-2.5091,-2.5115,-2.5139,-2.5179,-2.519,-2.519,-2.519,-2.5179,-2.519,-2.5202,-2.5203,-2.5203,-2.5264,-2.535,-2.5383,-2.5426,-2.5461,-2.5467,-2.5282,-2.4827,-2.4109,-2.3641,-2.2488,-2.1517,-2.0788,-2.0385,-2.0294,-2.0234,-2.0221,-2.0221,-2.0234,-2.0231,-2.0239,-2.0241,-2.0246,-2.0234,-2.2712,-2.2712,-2.2712,-2.2712,-2.2712,-2.2712,-2.2712,-2.2712,-2.2712,-2.2712,-2.2712,-2.2712,-2.2712,-2.2738,-2.2986,-2.3111,-2.3184,-2.3392,-2.3495,-2.3491,-2.345,-2.3318,-2.3271,-2.3427,-2.3655,-2.3831,-2.3831,-2.3894,-2.3917,-2.3908,-2.3998,-2.4135,-2.4163,-2.4229,-2.4358,-2.4393,-2.4411,-2.4419,-2.4456,-2.4509,-2.4509,-2.4509,-2.4509,-2.4509,-2.4509,-2.4509,-2.4509,-2.4509,-2.4509,-2.45,-2.4566,-2.4599,-2.4622,-2.4738,-2.4827,-2.4827,-2.4917,-2.5,-2.5,-2.5,-2.5,-2.5,-2.5,-2.5,-2.5,-2.5,-2.5027,-2.506,-2.5076,-2.5082,-2.5132,-2.5143,-2.5166,-2.5155,-2.5167,-2.5146,-2.5137,-2.5155,-2.5147,-2.5179,-2.5189,-2.519,-2.5212,-2.5222,-2.5222,-2.5222,-2.5233,-2.5234,-2.5264,-2.5284,-2.5284,-2.5395,-2.5472,-2.549,-2.5515,-2.5547,-2.5497,-2.5333,-2.4593,-2.3387,-2.277,-2.1865,-2.1089,-2.041,-2.0424,-2.0365,-2.0305,-2.0266,-2.0292,-2.0317,-2.0299,-2.0283,-2.0263,-2.025,-2.0234,-2.2712,-2.2712,-2.2712,-2.2712,-2.2712,-2.2712,-2.2712,-2.2712,-2.2712,-2.2712,-2.2729,-2.2816,-2.2868,-2.2919,-2.3197,-2.3339,-2.3385,-2.3616,-2.3707,-2.3732,-2.3723,-2.364,-2.3575,-2.3701,-2.3837,-2.3978,-2.3987,-2.4036,-2.4066,-2.4077,-2.4172,-2.4303,-2.4321,-2.4384,-2.4482,-2.4509,-2.4509,-2.45,-2.4509,-2.4509,-2.4509,-2.4509,-2.4509,-2.4509,-2.4509,-2.4509,-2.45,-2.4524,-2.4551,-2.4568,-2.4615,-2.4645,-2.4701,-2.4807,-2.487,-2.488,-2.4964,-2.5,-2.5,-2.5,-2.5,-2.5,-2.5027,-2.5044,-2.5057,-2.5063,-2.5115,-2.5122,-2.5153,-2.5157,-2.5191,-2.5224,-2.5235,-2.5254,-2.5298,-2.5284,-2.5222,-2.5196,-2.5197,-2.5235,-2.5244,-2.5274,-2.5322,-2.5332,-2.5332,-2.5332,-2.536,-2.5369,-2.5377,-2.5376,-2.5385,-2.5464,-2.5519,-2.5521,-2.5363,-2.5321,-2.5026,-2.4888,-2.3936,-2.2757,-2.1991,-2.1257,-2.0879,-2.0427,-2.0441,-2.0437,-2.0376,-2.0345,-2.0361,-2.0366,-2.0351,-2.0195,-2.0084,-2.0151,-2.0152,-2.2712,-2.2712,-2.2712,-2.2712,-2.2712,-2.2712,-2.2712,-2.2712,-2.2712,-2.2712,-2.2738,-2.2944,-2.2995,-2.3086,-2.3298,-2.3615,-2.3628,-2.3783,-2.3937,-2.3978,-2.3998,-2.3959,-2.3919,-2.3869,-2.3969,-2.4086,-2.4056,-2.4134,-2.4229,-2.4229,-2.4312,-2.4429,-2.4482,-2.45,-2.4509,-2.4509,-2.4509,-2.4509,-2.4509,-2.4509,-2.4509,-2.4509,-2.4509,-2.4509,-2.4509,-2.4507,-2.4524,-2.4575,-2.4589,-2.4622,-2.4686,-2.4729,-2.4813,-2.4936,-2.4987,-2.4977,-2.4996,-2.5,-2.5,-2.5014,-2.5014,-2.5031,-2.5076,-2.5094,-2.5118,-2.5155,-2.518,-2.5203,-2.5203,-2.5214,-2.5254,-2.5293,-2.5321,-2.534,-2.5441,-2.5397,-2.5293,-2.5243,-2.5265,-2.531,-2.5321,-2.5376,-2.5458,-2.5511,-2.5503,-2.5424,-2.5443,-2.5441,-2.5458,-2.5458,-2.5458,-2.5493,-2.5522,-2.5544,-2.5314,-2.507,-2.4637,-2.4224,-2.3049,-2.1981,-2.1289,-2.0727,-2.06,-2.0453,-2.047,-2.0467,-2.0431,-2.0427,-2.0436,-2.0299,-2.0199,-1.9904,-1.9653,-1.9867,-1.9951,-2.2712,-2.2712,-2.2712,-2.2712,-2.2712,-2.2712,-2.2712,-2.2712,-2.2712,-2.2712,-2.2712,-2.279,-2.2825,-2.2833,-2.3149,-2.3283,-2.3468,-2.3714,-2.3899,-2.4154,-2.4165,-2.4247,-2.4266,-2.4182,-2.422,-2.4339,-2.4385,-2.4403,-2.442,-2.442,-2.4456,-2.4482,-2.4509,-2.4509,-2.4509,-2.4509,-2.4509,-2.4509,-2.4509,-2.4509,-2.4509,-2.4509,-2.4509,-2.4509,-2.4509,-2.4524,-2.4566,-2.4599,-2.4645,-2.4729,-2.4764,-2.4798,-2.4842,-2.495,-2.4987,-2.5,-2.5,-2.5,-2.5014,-2.5057,-2.5095,-2.5088,-2.5141,-2.5179,-2.5179,-2.521,-2.5244,-2.5264,-2.5284,-2.5312,-2.5396,-2.544,-2.544,-2.5448,-2.5466,-2.5476,-2.545,-2.5429,-2.5437,-2.5439,-2.5448,-2.5456,-2.5484,-2.5511,-2.5511,-2.5511,-2.5511,-2.5511,-2.5511,-2.5511,-2.5519,-2.5509,-2.5519,-2.5522,-2.5354,-2.4827,-2.3935,-2.3328,-2.2192,-2.1494,-2.0792,-2.051,-2.0477,-2.0481,-2.0494,-2.0487,-2.0467,-2.0474,-2.0477,-2.0266,-2.0075,-1.987,-1.9744,-1.9809,-1.9773,-2.2712,-2.2712,-2.2712,-2.2712,-2.2712,-2.2712,-2.2712,-2.2712,-2.2712,-2.2712,-2.2738,-2.2808,-2.2902,-2.2919,-2.323,-2.3482,-2.3671,-2.393,-2.4154,-2.4303,-2.4329,-2.4392,-2.4419,-2.4393,-2.4402,-2.45,-2.4509,-2.4509,-2.4509,-2.4509,-2.45,-2.4509,-2.4509,-2.4509,-2.4509,-2.4509,-2.4509,-2.4509,-2.4509,-2.4509,-2.4509,-2.4509,-2.4509,-2.4509,-2.45,-2.4515,-2.4599,-2.4629,-2.4698,-2.4789,-2.4856,-2.4889,-2.4903,-2.4973,-2.4987,-2.5,-2.5031,-2.5034,-2.5051,-2.5115,-2.5134,-2.5143,-2.5213,-2.5235,-2.5264,-2.5303,-2.5369,-2.5395,-2.5404,-2.543,-2.5503,-2.5511,-2.5511,-2.5511,-2.5511,-2.5511,-2.5511,-2.5511,-2.5511,-2.5511,-2.5503,-2.5503,-2.5511,-2.5511,-2.5511,-2.5511,-2.5511,-2.5511,-2.5511,-2.5511,-2.5507,-2.5512,-2.5507,-2.5473,-2.5356,-2.4593,-2.3223,-2.2383,-2.1354,-2.0958,-2.0607,-2.051,-2.0507,-2.051,-2.051,-2.051,-2.0494,-2.051,-2.051,-2.039,-2.0224,-2.0003,-1.9886,-1.9899,-1.9769,-2.2712,-2.2712,-2.2712,-2.2712,-2.2712,-2.2712,-2.2712,-2.2712,-2.2712,-2.2747,-2.2782,-2.302,-2.3086,-2.3206,-2.3513,-2.3795,-2.4028,-2.422,-2.4337,-2.4366,-2.4382,-2.4409,-2.4419,-2.4456,-2.4473,-2.4509,-2.4509,-2.4509,-2.4509,-2.4509,-2.4509,-2.4509,-2.4509,-2.4509,-2.4509,-2.4509,-2.4509,-2.4509,-2.4509,-2.4509,-2.4509,-2.4509,-2.4509,-2.4509,-2.4524,-2.4549,-2.4622,-2.4676,-2.4749,-2.4837,-2.4945,-2.4995,-2.5021,-2.5004,-2.5004,-2.5018,-2.5076,-2.5115,-2.513,-2.5189,-2.5223,-2.5214,-2.5293,-2.534,-2.5358,-2.5404,-2.5468,-2.5485,-2.5493,-2.5493,-2.5511,-2.5511,-2.5511,-2.5511,-2.5511,-2.5511,-2.5511,-2.5511,-2.5511,-2.5511,-2.5511,-2.5511,-2.5511,-2.5511,-2.5511,-2.5511,-2.5511,-2.5511,-2.5511,-2.5517,-2.5519,-2.5538,-2.5548,-2.5578,-2.5489,-2.4422,-2.3039,-2.2182,-2.1045,-2.0627,-2.051,-2.051,-2.051,-2.051,-2.051,-2.051,-2.051,-2.051,-2.05,-2.048,-2.0227,-1.9857,-1.9847,-1.9964,-1.9843,-2.2712,-2.2712,-2.2712,-2.2712,-2.2712,-2.2712,-2.2703,-2.2712,-2.2729,-2.2842,-2.3028,-2.3086,-2.3197,-2.3373,-2.3575,-2.384,-2.405,-2.4201,-2.4299,-2.4365,-2.4363,-2.4344,-2.4473,-2.4482,-2.4509,-2.4509,-2.4509,-2.4509,-2.4509,-2.4509,-2.4509,-2.4509,-2.4509,-2.4509,-2.4509,-2.4509,-2.4509,-2.4509,-2.4509,-2.4509,-2.4509,-2.4509,-2.4509,-2.4509,-2.4541,-2.4596,-2.4667,-2.4744,-2.4851,-2.5022,-2.5085,-2.5115,-2.5132,-2.5115,-2.5091,-2.5094,-2.5143,-2.519,-2.5201,-2.5264,-2.5293,-2.5312,-2.5376,-2.5448,-2.5476,-2.5484,-2.5511,-2.5511,-2.5511,-2.5511,-2.5511,-2.5511,-2.5511,-2.5511,-2.5511,-2.5511,-2.5511,-2.5511,-2.5511,-2.5511,-2.5511,-2.5511,-2.5511,-2.5511,-2.5511,-2.5511,-2.5511,-2.5507,-2.551,-2.5524,-2.5538,-2.556,-2.5589,-2.5634,-2.5652,-2.4267,-2.2968,-2.2423,-2.1497,-2.063,-2.051,-2.051,-2.051,-2.051,-2.051,-2.051,-2.051,-2.051,-2.051,-2.05,-2.011,-1.9691,-1.9925,-2.0159,-2.0084,-2.2712,-2.2712,-2.2712,-2.2712,-2.2729,-2.2868,-2.291,-2.2927,-2.3026,-2.3122,-2.3218,-2.3251,-2.3303,-2.3414,-2.3557,-2.381,-2.406,-2.4219,-2.4328,-2.4401,-2.4399,-2.4399,-2.4509,-2.4509,-2.4509,-2.4509,-2.4509,-2.4509,-2.4509,-2.4509,-2.4509,-2.4509,-2.4509,-2.4509,-2.4509,-2.4509,-2.4509,-2.4509,-2.4509,-2.4509,-2.4509,-2.4509,-2.4509,-2.4517,-2.4575,-2.4629,-2.4723,-2.4847,-2.4957,-2.5069,-2.5151,-2.5168,-2.5201,-2.5212,-2.518,-2.5169,-2.5214,-2.5254,-2.5284,-2.534,-2.5404,-2.5412,-2.5466,-2.5493,-2.5511,-2.5511,-2.5511,-2.5511,-2.5511,-2.5511,-2.5511,-2.5511,-2.5511,-2.5511,-2.5511,-2.5511,-2.5511,-2.5511,-2.5511,-2.5511,-2.5511,-2.5511,-2.5511,-2.5511,-2.5511,-2.5511,-2.5511,-2.5512,-2.5518,-2.5525,-2.5549,-2.5591,-2.5592,-2.5392,-2.5246,-2.4095,-2.2893,-2.2334,-2.1695,-2.0837,-2.0513,-2.051,-2.051,-2.051,-2.051,-2.051,-2.051,-2.051,-2.051,-2.051,-2.0286,-2.013,-2.0237,-2.0315,-2.024,-2.2712,-2.2712,-2.2712,-2.2712,-2.2738,-2.2986,-2.3091,-2.3135,-2.33,-2.3401,-2.3468,-2.3482,-2.3504,-2.357,-2.3687,-2.3892,-2.4164,-2.4321,-2.4393,-2.4438,-2.4473,-2.4509,-2.4509,-2.4509,-2.4509,-2.4509,-2.4509,-2.4509,-2.4509,-2.4509,-2.4509,-2.4509,-2.4509,-2.4509,-2.4509,-2.4509,-2.4509,-2.4509,-2.4509,-2.4509,-2.4509,-2.4509,-2.4517,-2.4532,-2.4615,-2.4673,-2.4798,-2.4947,-2.5072,-2.5145,-2.5182,-2.5234,-2.5264,-2.5303,-2.5303,-2.5274,-2.5303,-2.533,-2.5358,-2.5412,-2.5485,-2.5493,-2.5503,-2.5511,-2.5511,-2.5511,-2.5511,-2.5511,-2.5511,-2.5511,-2.5511,-2.5511,-2.5511,-2.5511,-2.5511,-2.5511,-2.5511,-2.5511,-2.5511,-2.5511,-2.5511,-2.5511,-2.5509,-2.5511,-2.5511,-2.5522,-2.5529,-2.5548,-2.5549,-2.5542,-2.5556,-2.5626,-2.5537,-2.5174,-2.4707,-2.3901,-2.2832,-2.2081,-2.1421,-2.0632,-2.0513,-2.051,-2.051,-2.051,-2.051,-2.051,-2.051,-2.051,-2.051,-2.051,-2.051,-2.049,-2.0441,-2.0432,-2.0402,-2.2712,-2.2712,-2.2712,-2.2712,-2.2738,-2.2995,-2.3094,-2.3124,-2.3311,-2.3544,-2.3692,-2.3744,-2.384,-2.401,-2.4087,-2.4173,-2.4266,-2.4321,-2.4367,-2.4393,-2.4465,-2.4509,-2.4509,-2.4509,-2.4509,-2.4509,-2.4509,-2.4509,-2.4509,-2.4509,-2.4509,-2.4509,-2.4509,-2.4509,-2.4509,-2.4509,-2.4509,-2.4509,-2.4509,-2.4509,-2.4509,-2.4517,-2.4532,-2.4603,-2.4706,-2.4837,-2.4947,-2.5077,-2.5202,-2.5255,-2.5274,-2.534,-2.544,-2.5458,-2.5466,-2.5458,-2.5476,-2.5484,-2.5466,-2.5493,-2.5511,-2.5511,-2.5511,-2.5511,-2.5511,-2.5511,-2.5511,-2.5511,-2.5511,-2.5511,-2.5511,-2.5511,-2.5511,-2.5511,-2.5511,-2.5511,-2.5511,-2.5511,-2.5511,-2.5511,-2.5511,-2.5517,-2.5515,-2.5509,-2.5511,-2.5536,-2.5541,-2.556,-2.5576,-2.5572,-2.5587,-2.5652,-2.5581,-2.5243,-2.4531,-2.3671,-2.2786,-2.193,-2.1191,-2.0536,-2.0509,-2.0506,-2.0513,-2.0513,-2.051,-2.051,-2.051,-2.051,-2.051,-2.051,-2.051,-2.051,-2.05,-2.051,-2.051,-2.2712,-2.2712,-2.2712,-2.2712,-2.2738,-2.2986,-2.3102,-2.3135,-2.3315,-2.3468,-2.3597,-2.3744,-2.3958,-2.4153,-2.421,-2.4229,-2.4303,-2.4349,-2.4385,-2.4393,-2.4482,-2.4509,-2.4509,-2.4509,-2.4509,-2.4509,-2.4509,-2.4509,-2.4509,-2.4509,-2.4509,-2.4509,-2.4509,-2.4509,-2.4509,-2.4509,-2.4509,-2.4509,-2.4509,-2.4509,-2.4524,-2.4571,-2.4607,-2.4664,-2.485,-2.4975,-2.508,-2.5192,-2.5264,-2.5312,-2.5358,-2.544,-2.5493,-2.5511,-2.5511,-2.5511,-2.5503,-2.5511,-2.5511,-2.5511,-2.5511,-2.5511,-2.5511,-2.5511,-2.5511,-2.5511,-2.5511,-2.5511,-2.5511,-2.5511,-2.5511,-2.5511,-2.5511,-2.5511,-2.5511,-2.5511,-2.5511,-2.5511,-2.5511,-2.5511,-2.5519,-2.5529,-2.5554,-2.5557,-2.5572,-2.5581,-2.5584,-2.558,-2.5612,-2.5632,-2.5647,-2.5683,-2.5557,-2.5361,-2.4519,-2.3659,-2.2764,-2.1911,-2.1129,-2.0615,-2.0531,-2.0504,-2.0504,-2.0511,-2.0509,-2.0506,-2.0513,-2.051,-2.051,-2.051,-2.051,-2.051,-2.051,-2.051,-2.051,-2.2738,-2.2782,-2.2738,-2.2712,-2.2738,-2.2995,-2.3111,-2.3135,-2.3387,-2.35,-2.3575,-2.3786,-2.4018,-2.4162,-2.421,-2.4229,-2.433,-2.4367,-2.442,-2.4465,-2.45,-2.4509,-2.4509,-2.4509,-2.4509,-2.4509,-2.4509,-2.4509,-2.4509,-2.4509,-2.4509,-2.4509,-2.4509,-2.4509,-2.4509,-2.4509,-2.4509,-2.4509,-2.4509,-2.4517,-2.4558,-2.4648,-2.4706,-2.4828,-2.4978,-2.513,-2.5163,-2.5274,-2.5349,-2.5386,-2.544,-2.5503,-2.5511,-2.5511,-2.5511,-2.5511,-2.5511,-2.5511,-2.5511,-2.5511,-2.5511,-2.5511,-2.5511,-2.5511,-2.5511,-2.5511,-2.5511,-2.5511,-2.5511,-2.5511,-2.5511,-2.5511,-2.5511,-2.5511,-2.5511,-2.5511,-2.5528,-2.5551,-2.5563,-2.5559,-2.557,-2.5605,-2.5608,-2.5625,-2.5631,-2.5637,-2.5623,-2.5609,-2.5632,-2.5672,-2.5683,-2.5701,-2.5633,-2.5241,-2.4154,-2.3351,-2.2557,-2.1865,-2.1084,-2.0663,-2.0546,-2.0511,-2.0503,-2.0508,-2.0511,-2.0513,-2.0506,-2.0504,-2.051,-2.051,-2.051,-2.051,-2.051,-2.051,-2.051,-2.2851,-2.3061,-2.2825,-2.2712,-2.272,-2.2995,-2.31,-2.3127,-2.3567,-2.3723,-2.3756,-2.4019,-2.4154,-2.4247,-2.4247,-2.4266,-2.4375,-2.4338,-2.4375,-2.442,-2.4456,-2.4509,-2.4509,-2.4509,-2.4509,-2.4509,-2.4509,-2.4509,-2.4509,-2.4509,-2.4509,-2.4509,-2.4509,-2.4509,-2.4509,-2.4509,-2.4509,-2.4509,-2.4517,-2.4549,-2.4613,-2.471,-2.4809,-2.4968,-2.5107,-2.5216,-2.5293,-2.5404,-2.5466,-2.5466,-2.5493,-2.5511,-2.5511,-2.5511,-2.5511,-2.5511,-2.5511,-2.5511,-2.5511,-2.5511,-2.5511,-2.5511,-2.5511,-2.5511,-2.5511,-2.5511,-2.5511,-2.5511,-2.5511,-2.5511,-2.5511,-2.5511,-2.5511,-2.5511,-2.5519,-2.5532,-2.5563,-2.5635,-2.5641,-2.5621,-2.5625,-2.5649,-2.5652,-2.5661,-2.5664,-2.566,-2.5664,-2.5653,-2.5662,-2.569,-2.5688,-2.5693,-2.5693,-2.5048,-2.3661,-2.2912,-2.2545,-2.1796,-2.0947,-2.0664,-2.0523,-2.0514,-2.0526,-2.0522,-2.0529,-2.052,-2.0509,-2.051,-2.0507,-2.0506,-2.051,-2.0506,-2.0513,-2.051,-2.051,-2.285,-2.3095,-2.2995,-2.2937,-2.2946,-2.3064,-2.31,-2.3144,-2.3423,-2.3649,-2.3807,-2.391,-2.4058,-2.4192,-2.4266,-2.4294,-2.4358,-2.4419,-2.4402,-2.4411,-2.4456,-2.45,-2.4509,-2.4509,-2.4509,-2.4509,-2.4509,-2.4509,-2.4509,-2.4509,-2.4509,-2.4509,-2.4509,-2.4509,-2.4509,-2.4509,-2.45,-2.4534,-2.4582,-2.4635,-2.47,-2.4919,-2.5049,-2.5118,-2.5293,-2.5377,-2.543,-2.5466,-2.5493,-2.5511,-2.5511,-2.5511,-2.5511,-2.5511,-2.5511,-2.5511,-2.5511,-2.5511,-2.5511,-2.5511,-2.5511,-2.5511,-2.5511,-2.5511,-2.5511,-2.5511,-2.5511,-2.5511,-2.5511,-2.5511,-2.5511,-2.5511,-2.5511,-2.5511,-2.5526,-2.5546,-2.5597,-2.5664,-2.5692,-2.5654,-2.5657,-2.5681,-2.5687,-2.5692,-2.5692,-2.5692,-2.5696,-2.5697,-2.5699,-2.5642,-2.5613,-2.5613,-2.5603,-2.5143,-2.3815,-2.3184,-2.2661,-2.1775,-2.0869,-2.0674,-2.0537,-2.0555,-2.0574,-2.0556,-2.0536,-2.0526,-2.0523,-2.0508,-2.0511,-2.0508,-2.0511,-2.0504,-2.0509,-2.0503,-2.0506,-2.2859,-2.3086,-2.3003,-2.3067,-2.3172,-2.319,-2.317,-2.3226,-2.3436,-2.368,-2.3908,-2.3917,-2.4018,-2.4182,-2.4238,-2.4303,-2.4339,-2.4393,-2.443,-2.4447,-2.4473,-2.45,-2.4509,-2.4509,-2.4509,-2.4509,-2.4509,-2.4509,-2.4509,-2.4509,-2.4509,-2.4509,-2.4509,-2.4509,-2.4509,-2.4509,-2.4517,-2.4582,-2.4629,-2.4755,-2.4847,-2.5046,-2.5204,-2.5235,-2.5386,-2.5476,-2.5493,-2.5511,-2.5511,-2.5511,-2.5511,-2.5511,-2.5511,-2.5511,-2.5511,-2.5511,-2.5511,-2.5511,-2.5511,-2.5511,-2.5511,-2.5511,-2.5511,-2.5511,-2.5511,-2.5511,-2.5511,-2.5511,-2.5511,-2.5511,-2.5511,-2.5511,-2.5511,-2.5521,-2.5598,-2.5624,-2.5627,-2.5679,-2.5689,-2.5683,-2.5698,-2.57,-2.5693,-2.5694,-2.5696,-2.5697,-2.5693,-2.5697,-2.5697,-2.5611,-2.5467,-2.5468,-2.5468,-2.4861,-2.4137,-2.3407,-2.2667,-2.1916,-2.1128,-2.0727,-2.059,-2.0604,-2.0604,-2.0581,-2.0566,-2.0547,-2.0547,-2.0547,-2.0526,-2.0503,-2.0508,-2.0511,-2.051,-2.0508,-2.0506,-2.2859,-2.3052,-2.2842,-2.2998,-2.3363,-2.3392,-2.3394,-2.3446,-2.3685,-2.3926,-2.4142,-2.4161,-2.4162,-2.421,-2.4228,-2.4275,-2.4339,-2.4348,-2.4375,-2.4456,-2.4473,-2.45,-2.4509,-2.4509,-2.4509,-2.4509,-2.4509,-2.4509,-2.4509,-2.4509,-2.4509,-2.4509,-2.4509,-2.4509,-2.4509,-2.45,-2.4566,-2.4667,-2.4698,-2.4856,-2.5016,-2.5169,-2.5254,-2.5331,-2.5421,-2.5501,-2.5511,-2.5511,-2.5511,-2.5511,-2.5511,-2.5511,-2.5511,-2.5511,-2.5511,-2.5511,-2.5511,-2.5511,-2.5511,-2.5511,-2.5511,-2.5511,-2.5511,-2.5511,-2.5511,-2.5511,-2.5511,-2.5511,-2.5511,-2.5511,-2.5511,-2.5511,-2.5511,-2.5557,-2.5642,-2.5671,-2.5669,-2.5673,-2.5693,-2.5693,-2.5698,-2.5701,-2.5701,-2.5699,-2.5699,-2.5699,-2.5699,-2.5697,-2.5697,-2.5631,-2.5496,-2.534,-2.533,-2.4762,-2.4097,-2.3394,-2.2664,-2.194,-2.1317,-2.083,-2.0596,-2.0604,-2.0604,-2.0596,-2.0589,-2.0574,-2.0581,-2.0596,-2.0574,-2.0547,-2.0516,-2.0504,-2.0503,-2.0512,-2.0509,-2.285,-2.3086,-2.3011,-2.3139,-2.3377,-2.3403,-2.35,-2.369,-2.3947,-2.4122,-2.419,-2.4199,-2.419,-2.4219,-2.4257,-2.4294,-2.4321,-2.4438,-2.4482,-2.443,-2.4473,-2.45,-2.4509,-2.4509,-2.4509,-2.4509,-2.4509,-2.4509,-2.4509,-2.4509,-2.4509,-2.4509,-2.4517,-2.4509,-2.4534,-2.4575,-2.467,-2.4719,-2.4861,-2.5053,-2.5168,-2.5273,-2.536,-2.5422,-2.5474,-2.5501,-2.5511,-2.5511,-2.5511,-2.5511,-2.5511,-2.5511,-2.5511,-2.5511,-2.5511,-2.5511,-2.5511,-2.5511,-2.5511,-2.5511,-2.5511,-2.5521,-2.5511,-2.5511,-2.5511,-2.5511,-2.5511,-2.5511,-2.5511,-2.5511,-2.5511,-2.5511,-2.5538,-2.5633,-2.5686,-2.5687,-2.5693,-2.569,-2.5694,-2.5694,-2.5697,-2.5697,-2.5697,-2.5697,-2.5697,-2.5697,-2.5697,-2.5697,-2.5697,-2.5697,-2.5611,-2.5348,-2.5143,-2.4633,-2.4017,-2.3111,-2.2545,-2.1969,-2.1305,-2.0731,-2.0604,-2.0603,-2.0604,-2.0604,-2.0604,-2.0603,-2.0603,-2.0604,-2.0596,-2.0582,-2.0556,-2.0527,-2.0526,-2.0516,-2.0506,-2.2808,-2.2961,-2.297,-2.3095,-2.3298,-2.3359,-2.3541,-2.3804,-2.4087,-2.4199,-2.4199,-2.4199,-2.419,-2.4229,-2.4238,-2.4312,-2.4339,-2.443,-2.4492,-2.443,-2.4473,-2.45,-2.4509,-2.4509,-2.4509,-2.4509,-2.4509,-2.4509,-2.4509,-2.4509,-2.4509,-2.4517,-2.4541,-2.4592,-2.4624,-2.4679,-2.4749,-2.4847,-2.5031,-2.5139,-2.5253,-2.5351,-2.5414,-2.5476,-2.5511,-2.5511,-2.5511,-2.5511,-2.5511,-2.5511,-2.5511,-2.5511,-2.5511,-2.5511,-2.5511,-2.5511,-2.5511,-2.5511,-2.5511,-2.5511,-2.5521,-2.554,-2.5521,-2.5511,-2.5511,-2.5511,-2.5511,-2.5511,-2.5519,-2.553,-2.554,-2.554,-2.5602,-2.5696,-2.5697,-2.5692,-2.5701,-2.5701,-2.5697,-2.5697,-2.5697,-2.5697,-2.5687,-2.5697,-2.5697,-2.5697,-2.5697,-2.5687,-2.5678,-2.5697,-2.5443,-2.4975,-2.4653,-2.4124,-2.3431,-2.2602,-2.2143,-2.1918,-2.1325,-2.0642,-2.0603,-2.0603,-2.0603,-2.0603,-2.0603,-2.0603,-2.0603,-2.0604,-2.0596,-2.0597,-2.059,-2.0565,-2.0547,-2.0537,-2.0527,-2.2712,-2.2712,-2.2712,-2.2877,-2.3085,-2.3274,-2.354,-2.3786,-2.4065,-2.417,-2.417,-2.419,-2.4209,-2.4201,-2.421,-2.4284,-2.4375,-2.4412,-2.4457,-2.4492,-2.45,-2.4509,-2.4509,-2.4509,-2.4509,-2.4509,-2.4509,-2.4509,-2.4509,-2.4509,-2.4509,-2.4541,-2.4622,-2.4692,-2.4729,-2.4794,-2.4879,-2.5009,-2.5115,-2.5223,-2.5341,-2.5378,-2.5432,-2.5485,-2.5511,-2.5511,-2.5511,-2.5511,-2.5511,-2.5511,-2.5511,-2.5511,-2.5511,-2.5511,-2.5511,-2.5511,-2.5511,-2.5511,-2.5528,-2.5528,-2.5538,-2.5565,-2.5544,-2.5519,-2.5521,-2.5521,-2.5515,-2.5539,-2.556,-2.5582,-2.5588,-2.5633,-2.5667,-2.5698,-2.5694,-2.5693,-2.5694,-2.5697,-2.5697,-2.5697,-2.5697,-2.5687,-2.5639,-2.5639,-2.5492,-2.559,-2.557,-2.5541,-2.557,-2.5697,-2.5258,-2.4175,-2.3851,-2.3499,-2.2807,-2.2036,-2.1655,-2.1403,-2.112,-2.0603,-2.0603,-2.0603,-2.0603,-2.0603,-2.0603,-2.0603,-2.0603,-2.0603,-2.0604,-2.0604,-2.0635,-2.0597,-2.0574,-2.056,-2.0557,-2.2712,-2.2712,-2.2712,-2.2746,-2.2859,-2.3076,-2.332,-2.3531,-2.3804,-2.3917,-2.3908,-2.4134,-2.4201,-2.421,-2.4284,-2.4376,-2.4421,-2.4457,-2.4492,-2.4509,-2.4509,-2.4509,-2.4509,-2.4509,-2.4509,-2.4509,-2.4509,-2.4509,-2.45,-2.45,-2.4566,-2.4645,-2.4713,-2.4813,-2.4906,-2.4975,-2.5037,-2.5105,-2.5191,-2.5284,-2.5369,-2.5395,-2.544,-2.5485,-2.5511,-2.5511,-2.5511,-2.5511,-2.5511,-2.5511,-2.5511,-2.5511,-2.5511,-2.5511,-2.5511,-2.5511,-2.5511,-2.5521,-2.5555,-2.5579,-2.5582,-2.5592,-2.5577,-2.557,-2.5556,-2.5548,-2.5527,-2.5567,-2.5604,-2.5629,-2.5646,-2.5679,-2.5698,-2.5697,-2.5693,-2.5699,-2.5699,-2.5697,-2.5697,-2.5697,-2.5697,-2.5687,-2.5639,-2.5278,-2.517,-2.5346,-2.5453,-2.5443,-2.5492,-2.5629,-2.5238,-2.4145,-2.3394,-2.315,-2.2309,-2.1509,-2.1178,-2.0866,-2.069,-2.0603,-2.0603,-2.0603,-2.0603,-2.069,-2.0847,-2.0759,-2.0603,-2.0739,-2.1139,-2.0739,-2.0692,-2.0643,-2.0622,-2.0755,-2.08,-2.2246,-2.2289,-2.26,-2.2712,-2.2738,-2.2971,-2.3175,-2.3327,-2.3667,-2.3837,-2.3967,-2.4135,-2.421,-2.4257,-2.4339,-2.4412,-2.4447,-2.4465,-2.4509,-2.4509,-2.4509,-2.4509,-2.4509,-2.4509,-2.4509,-2.4509,-2.4509,-2.4509,-2.4517,-2.4566,-2.4629,-2.4682,-2.477,-2.4923,-2.5049,-2.5126,-2.518,-2.5222,-2.5273,-2.5351,-2.5378,-2.5395,-2.544,-2.5493,-2.5511,-2.5511,-2.5511,-2.5511,-2.5511,-2.5511,-2.5511,-2.5511,-2.5511,-2.5511,-2.5511,-2.5511,-2.5511,-2.5559,-2.5621,-2.5604,-2.5621,-2.5625,-2.5608,-2.5611,-2.5608,-2.5615,-2.5604,-2.5625,-2.5642,-2.5664,-2.5688,-2.57,-2.5696,-2.5699,-2.5697,-2.5694,-2.5701,-2.5699,-2.5697,-2.5697,-2.5697,-2.5697,-2.5482,-2.5063,-2.4975,-2.5375,-2.5561,-2.5521,-2.5561,-2.5658,-2.5229,-2.438,-2.354,-2.2896,-2.1998,-2.1247,-2.0925,-2.073,-2.0671,-2.0603,-2.0603,-2.073,-2.0856,-2.1022,-2.1198,-2.1247,-2.1422,-2.1627,-2.1852,-2.1491,-2.1383,-2.1637,-2.1637,-2.144,-2.1415,-2.1556,-2.1711,-2.2375,-2.2712,-2.279,-2.3003,-2.3138,-2.3206,-2.3646,-2.3955,-2.4113,-2.4201,-2.4266,-2.4312,-2.4385,-2.4457,-2.4465,-2.4509,-2.4509,-2.4509,-2.4509,-2.4509,-2.4509,-2.4509,-2.4509,-2.4509,-2.4509,-2.4509,-2.4532,-2.4606,-2.4676,-2.4729,-2.4945,-2.5094,-2.5149,-2.5233,-2.5263,-2.5273,-2.5332,-2.5388,-2.5387,-2.5404,-2.5429,-2.5493,-2.5511,-2.5511,-2.5511,-2.5511,-2.5511,-2.5511,-2.5511,-2.5511,-2.5511,-2.5511,-2.5511,-2.555,-2.5559,-2.5606,-2.565,-2.564,-2.5649,-2.5649,-2.5639,-2.5654,-2.5662,-2.5667,-2.5662,-2.5663,-2.5681,-2.5681,-2.569,-2.57,-2.5701,-2.5694,-2.5693,-2.5701,-2.5699,-2.5697,-2.5697,-2.5697,-2.5697,-2.5687,-2.559,-2.5209,-2.5024,-2.5453,-2.5424,-2.5356,-2.5619,-2.5687,-2.5229,-2.4555,-2.3687,-2.2838,-2.2008,-2.1305,-2.0808,-2.0612,-2.0671,-2.0847,-2.1032,-2.111,-2.1159,-2.154,-2.1979,-2.232,-2.2555,-2.2574,-2.2564,-2.2584,-2.2584,-2.2877,-2.2779,-2.2405,-2.2408,-2.1065,-2.1643,-2.2401,-2.2808,-2.301,-2.3079,-2.3347,-2.3719,-2.3804,-2.3917,-2.4016,-2.4247,-2.4367,-2.4376,-2.4447,-2.4492,-2.4509,-2.4509,-2.4509,-2.4509,-2.4509,-2.4509,-2.4509,-2.4509,-2.4509,-2.4509,-2.4509,-2.4517,-2.4558,-2.4654,-2.4764,-2.487,-2.5046,-2.5139,-2.5233,-2.5293,-2.5293,-2.5303,-2.5341,-2.5388,-2.5387,-2.5405,-2.5432,-2.5485,-2.5511,-2.5511,-2.5511,-2.5511,-2.5511,-2.5511,-2.5511,-2.5511,-2.5511,-2.5511,-2.5569,-2.5637,-2.5644,-2.5663,-2.5674,-2.5674,-2.5684,-2.5684,-2.5683,-2.5686,-2.5691,-2.5696,-2.5696,-2.5694,-2.5693,-2.5693,-2.5694,-2.5701,-2.5697,-2.5699,-2.5699,-2.5699,-2.5697,-2.5697,-2.5697,-2.5697,-2.5697,-2.5648,-2.558,-2.5453,-2.5278,-2.5063,-2.4809,-2.4838,-2.5453,-2.5668,-2.5346,-2.4672,-2.3745,-2.2886,-2.2174,-2.1666,-2.1335,-2.1022,-2.1022,-2.1227,-2.1491,-2.1637,-2.1832,-2.2408,-2.2877,-2.3189,-2.3287,-2.3062,-2.3091,-2.341,-2.3509,-2.3693,-2.372,-2.3444,-2.3581,-2.0162,-2.0713,-2.1747,-2.2565,-2.3047,-2.3191,-2.3503,-2.3851,-2.4018,-2.4086,-2.4125,-2.4312,-2.4413,-2.4421,-2.4474,-2.4509,-2.4509,-2.4509,-2.4509,-2.4509,-2.4509,-2.4509,-2.4509,-2.4509,-2.4509,-2.4509,-2.4575,-2.4615,-2.4615,-2.4808,-2.4955,-2.5006,-2.5117,-2.5213,-2.5303,-2.5303,-2.5303,-2.5303,-2.5341,-2.537,-2.5387,-2.5405,-2.5432,-2.5484,-2.5511,-2.5511,-2.5511,-2.5511,-2.5511,-2.5511,-2.5511,-2.5511,-2.5524,-2.5535,-2.5608,-2.5669,-2.5694,-2.5693,-2.5693,-2.5693,-2.5693,-2.5693,-2.5693,-2.5693,-2.5693,-2.5697,-2.5697,-2.5693,-2.5693,-2.5693,-2.5693,-2.5693,-2.5699,-2.5699,-2.5699,-2.5697,-2.5697,-2.5697,-2.5697,-2.5697,-2.5697,-2.5687,-2.5629,-2.5609,-2.5463,-2.5463,-2.5063,-2.4965,-2.5463,-2.5697,-2.5356,-2.4975,-2.4155,-2.3706,-2.3382,-2.276,-2.2125,-2.1813,-2.1501,-2.1948,-2.2358,-2.2367,-2.2555,-2.3244,-2.3761,-2.4019,-2.4019,-2.3905,-2.4142,-2.4553,-2.4503,-2.441,-2.4405,-2.4407,-2.4527,-1.9223,-1.9502,-2.096,-2.21,-2.2931,-2.3277,-2.3593,-2.3912,-2.4163,-2.433,-2.4394,-2.4403,-2.4412,-2.4439,-2.4483,-2.4492,-2.4509,-2.4509,-2.4509,-2.4509,-2.4509,-2.4509,-2.4509,-2.4509,-2.4509,-2.4541,-2.4606,-2.466,-2.4667,-2.4892,-2.5058,-2.5126,-2.5222,-2.5303,-2.5303,-2.5303,-2.5303,-2.5303,-2.5322,-2.5361,-2.5369,-2.5395,-2.5421,-2.5466,-2.5511,-2.5511,-2.5511,-2.5511,-2.5511,-2.5511,-2.5521,-2.554,-2.5563,-2.559,-2.5624,-2.5679,-2.569,-2.5694,-2.5693,-2.5693,-2.5693,-2.5693,-2.5693,-2.5693,-2.5693,-2.5693,-2.5693,-2.5693,-2.5693,-2.5693,-2.5693,-2.5694,-2.5701,-2.5697,-2.5697,-2.5697,-2.5697,-2.5697,-2.5697,-2.5697,-2.5697,-2.5697,-2.5687,-2.5668,-2.5678,-2.5687,-2.5697,-2.5697,-2.5697,-2.5697,-2.5541,-2.5346,-2.4926,-2.4594,-2.4309,-2.3597,-2.2758,-2.26,-2.2393,-2.2873,-2.3269,-2.3478,-2.3777,-2.423,-2.4681,-2.4748,-2.4989,-2.5031,-2.5346,-2.535,-2.5188,-2.4935,-2.503,-2.5075,-2.5299,-1.8749,-1.9438,-2.0952,-2.1806,-2.223,-2.3007,-2.3605,-2.3989,-2.4191,-2.4358,-2.4465,-2.4482,-2.4482,-2.4482,-2.4492,-2.4509,-2.4509,-2.4509,-2.4509,-2.4509,-2.4509,-2.4509,-2.4509,-2.4509,-2.4509,-2.4575,-2.4645,-2.4692,-2.479,-2.4987,-2.5096,-2.5117,-2.5243,-2.5293,-2.5303,-2.5303,-2.5303,-2.5303,-2.5313,-2.5341,-2.5379,-2.5387,-2.5394,-2.5421,-2.5464,-2.5493,-2.5511,-2.5511,-2.5511,-2.5511,-2.5519,-2.5555,-2.5611,-2.5647,-2.5668,-2.5684,-2.5693,-2.5693,-2.5693,-2.5693,-2.5693,-2.5693,-2.5693,-2.5693,-2.5693,-2.5693,-2.5693,-2.5693,-2.5693,-2.5693,-2.5694,-2.5701,-2.5697,-2.5697,-2.5697,-2.5697,-2.5697,-2.5697,-2.5697,-2.5697,-2.5697,-2.5697,-2.5697,-2.5687,-2.5687,-2.5697,-2.5697,-2.5697,-2.5697,-2.5697,-2.5697,-2.5568,-2.543,-2.5014,-2.4524,-2.3973,-2.332,-2.321,-2.3232,-2.354,-2.4029,-2.4749,-2.5085,-2.5042,-2.5152,-2.5235,-2.5522,-2.5571,-2.5527,-2.5438,-2.5471,-2.5426,-2.5505,-2.5505,-2.5505]}]]